<?xml version="1.0" encoding="UTF-8" standalone="no" ?>
<gpx xmlns="http://www.topografix.com/GPX/1/1" xmlns:xsi="http://www.w3.org/2001/XMLSchema-instance" xsi:schemaLocation="http://www.topografix.com/GPX/1/1 http://www.topografix.com/GPX/1/1/gpx.xsd" version="1.1" creator="VisuGPX - https://www.visugpx.com">
  <metadata>
    <name>Tour du Pic Rouge de Pailla</name>
    <desc><![CDATA[Randonnée à skis autour du Pic rouge de Pailla dans le sesn horaire]]></desc>
  </metadata>
  <trk>
    <name><![CDATA[2017-03-17 16:20:57]]></name>
    <trkseg>
      <trkpt lat="42.72643" lon="-0.00734">
        <ele>1359.54</ele>
        <time>2017-03-17T07:39:58Z</time>
      </trkpt>
      <trkpt lat="42.72643" lon="-0.00734">
        <ele>1359.54</ele>
        <time>2017-03-17T07:39:59Z</time>
      </trkpt>
      <trkpt lat="42.72642" lon="-0.00733">
        <ele>1359.47</ele>
        <time>2017-03-17T07:40:23Z</time>
      </trkpt>
      <trkpt lat="42.72652" lon="-0.00738">
        <ele>1359.92</ele>
        <time>2017-03-17T07:40:44Z</time>
      </trkpt>
      <trkpt lat="42.72651" lon="-0.00739">
        <ele>1360.02</ele>
        <time>2017-03-17T07:41:01Z</time>
      </trkpt>
      <trkpt lat="42.7265" lon="-0.00741">
        <ele>1360.38</ele>
        <time>2017-03-17T07:41:11Z</time>
      </trkpt>
      <trkpt lat="42.72644" lon="-0.00744">
        <ele>1360.4</ele>
        <time>2017-03-17T07:41:18Z</time>
      </trkpt>
      <trkpt lat="42.72619" lon="-0.00748">
        <ele>1360.53</ele>
        <time>2017-03-17T07:41:41Z</time>
      </trkpt>
      <trkpt lat="42.72586" lon="-0.00753">
        <ele>1361.56</ele>
        <time>2017-03-17T07:42:09Z</time>
      </trkpt>
      <trkpt lat="42.72551" lon="-0.00769">
        <ele>1361.62</ele>
        <time>2017-03-17T07:42:38Z</time>
      </trkpt>
      <trkpt lat="42.72529" lon="-0.00786">
        <ele>1362.07</ele>
        <time>2017-03-17T07:42:58Z</time>
      </trkpt>
      <trkpt lat="42.72503" lon="-0.00797">
        <ele>1362.65</ele>
        <time>2017-03-17T07:43:20Z</time>
      </trkpt>
      <trkpt lat="42.7248" lon="-0.00803">
        <ele>1363.96</ele>
        <time>2017-03-17T07:43:39Z</time>
      </trkpt>
      <trkpt lat="42.72459" lon="-0.00805">
        <ele>1364.3</ele>
        <time>2017-03-17T07:43:56Z</time>
      </trkpt>
      <trkpt lat="42.72442" lon="-0.00801">
        <ele>1364.82</ele>
        <time>2017-03-17T07:44:10Z</time>
      </trkpt>
      <trkpt lat="42.72423" lon="-0.00795">
        <ele>1365.29</ele>
        <time>2017-03-17T07:44:25Z</time>
      </trkpt>
      <trkpt lat="42.72403" lon="-0.00784">
        <ele>1365.5</ele>
        <time>2017-03-17T07:44:42Z</time>
      </trkpt>
      <trkpt lat="42.72385" lon="-0.00773">
        <ele>1366.02</ele>
        <time>2017-03-17T07:44:57Z</time>
      </trkpt>
      <trkpt lat="42.72368" lon="-0.00764">
        <ele>1366.96</ele>
        <time>2017-03-17T07:45:12Z</time>
      </trkpt>
      <trkpt lat="42.72347" lon="-0.00751">
        <ele>1368.12</ele>
        <time>2017-03-17T07:45:31Z</time>
      </trkpt>
      <trkpt lat="42.72329" lon="-0.00742">
        <ele>1368.81</ele>
        <time>2017-03-17T07:45:47Z</time>
      </trkpt>
      <trkpt lat="42.72316" lon="-0.00733">
        <ele>1369.31</ele>
        <time>2017-03-17T07:46:00Z</time>
      </trkpt>
      <trkpt lat="42.72317" lon="-0.00716">
        <ele>1370.1</ele>
        <time>2017-03-17T07:46:13Z</time>
      </trkpt>
      <trkpt lat="42.72325" lon="-0.00702">
        <ele>1371.74</ele>
        <time>2017-03-17T07:46:26Z</time>
      </trkpt>
      <trkpt lat="42.72327" lon="-0.00694">
        <ele>1373.53</ele>
        <time>2017-03-17T07:46:36Z</time>
      </trkpt>
      <trkpt lat="42.72326" lon="-0.00678">
        <ele>1375.5</ele>
        <time>2017-03-17T07:46:48Z</time>
      </trkpt>
      <trkpt lat="42.72325" lon="-0.00673">
        <ele>1376.19</ele>
        <time>2017-03-17T07:46:53Z</time>
      </trkpt>
      <trkpt lat="42.72325" lon="-0.0067">
        <ele>1376.43</ele>
        <time>2017-03-17T07:46:56Z</time>
      </trkpt>
      <trkpt lat="42.72325" lon="-0.00667">
        <ele>1376.62</ele>
        <time>2017-03-17T07:46:58Z</time>
      </trkpt>
      <trkpt lat="42.7233" lon="-0.00651">
        <ele>1378.28</ele>
        <time>2017-03-17T07:47:12Z</time>
      </trkpt>
      <trkpt lat="42.72339" lon="-0.00641">
        <ele>1379.92</ele>
        <time>2017-03-17T07:47:26Z</time>
      </trkpt>
      <trkpt lat="42.72344" lon="-0.0063">
        <ele>1382.04</ele>
        <time>2017-03-17T07:47:38Z</time>
      </trkpt>
      <trkpt lat="42.7235" lon="-0.00618">
        <ele>1383.26</ele>
        <time>2017-03-17T07:47:50Z</time>
      </trkpt>
      <trkpt lat="42.7235" lon="-0.00616">
        <ele>1383.32</ele>
        <time>2017-03-17T07:47:51Z</time>
      </trkpt>
      <trkpt lat="42.7235" lon="-0.00602">
        <ele>1384.89</ele>
        <time>2017-03-17T07:48:05Z</time>
      </trkpt>
      <trkpt lat="42.72352" lon="-0.00591">
        <ele>1386.18</ele>
        <time>2017-03-17T07:48:16Z</time>
      </trkpt>
      <trkpt lat="42.72361" lon="-0.0058">
        <ele>1387.96</ele>
        <time>2017-03-17T07:48:31Z</time>
      </trkpt>
      <trkpt lat="42.72363" lon="-0.00575">
        <ele>1388.67</ele>
        <time>2017-03-17T07:48:37Z</time>
      </trkpt>
      <trkpt lat="42.72368" lon="-0.00564">
        <ele>1390.53</ele>
        <time>2017-03-17T07:48:51Z</time>
      </trkpt>
      <trkpt lat="42.72371" lon="-0.00555">
        <ele>1392.77</ele>
        <time>2017-03-17T07:49:03Z</time>
      </trkpt>
      <trkpt lat="42.72376" lon="-0.00545">
        <ele>1395.19</ele>
        <time>2017-03-17T07:49:17Z</time>
      </trkpt>
      <trkpt lat="42.72381" lon="-0.00536">
        <ele>1396.81</ele>
        <time>2017-03-17T07:49:29Z</time>
      </trkpt>
      <trkpt lat="42.72385" lon="-0.0053">
        <ele>1398.26</ele>
        <time>2017-03-17T07:49:39Z</time>
      </trkpt>
      <trkpt lat="42.72391" lon="-0.00523">
        <ele>1400.1</ele>
        <time>2017-03-17T07:49:52Z</time>
      </trkpt>
      <trkpt lat="42.72399" lon="-0.00517">
        <ele>1401.85</ele>
        <time>2017-03-17T07:50:06Z</time>
      </trkpt>
      <trkpt lat="42.72407" lon="-0.00515">
        <ele>1403.67</ele>
        <time>2017-03-17T07:50:18Z</time>
      </trkpt>
      <trkpt lat="42.72415" lon="-0.00506">
        <ele>1406.82</ele>
        <time>2017-03-17T07:50:35Z</time>
      </trkpt>
      <trkpt lat="42.7242" lon="-0.00495">
        <ele>1408.96</ele>
        <time>2017-03-17T07:50:51Z</time>
      </trkpt>
      <trkpt lat="42.72427" lon="-0.00486">
        <ele>1411.36</ele>
        <time>2017-03-17T07:51:06Z</time>
      </trkpt>
      <trkpt lat="42.72435" lon="-0.00477">
        <ele>1414.09</ele>
        <time>2017-03-17T07:51:24Z</time>
      </trkpt>
      <trkpt lat="42.72442" lon="-0.00469">
        <ele>1416.19</ele>
        <time>2017-03-17T07:51:40Z</time>
      </trkpt>
      <trkpt lat="42.72442" lon="-0.00461">
        <ele>1417.64</ele>
        <time>2017-03-17T07:51:50Z</time>
      </trkpt>
      <trkpt lat="42.72432" lon="-0.00457">
        <ele>1420.37</ele>
        <time>2017-03-17T07:52:04Z</time>
      </trkpt>
      <trkpt lat="42.7242" lon="-0.00457">
        <ele>1422.69</ele>
        <time>2017-03-17T07:52:22Z</time>
      </trkpt>
      <trkpt lat="42.72412" lon="-0.00455">
        <ele>1424.88</ele>
        <time>2017-03-17T07:52:36Z</time>
      </trkpt>
      <trkpt lat="42.72405" lon="-0.00451">
        <ele>1427.18</ele>
        <time>2017-03-17T07:52:50Z</time>
      </trkpt>
      <trkpt lat="42.72416" lon="-0.00444">
        <ele>1429.86</ele>
        <time>2017-03-17T07:53:07Z</time>
      </trkpt>
      <trkpt lat="42.72423" lon="-0.00438">
        <ele>1432.29</ele>
        <time>2017-03-17T07:53:22Z</time>
      </trkpt>
      <trkpt lat="42.72427" lon="-0.00434">
        <ele>1434.78</ele>
        <time>2017-03-17T07:53:39Z</time>
      </trkpt>
      <trkpt lat="42.72417" lon="-0.0043">
        <ele>1436.98</ele>
        <time>2017-03-17T07:53:54Z</time>
      </trkpt>
      <trkpt lat="42.7241" lon="-0.00425">
        <ele>1439.15</ele>
        <time>2017-03-17T07:54:09Z</time>
      </trkpt>
      <trkpt lat="42.72401" lon="-0.00423">
        <ele>1441.51</ele>
        <time>2017-03-17T07:54:26Z</time>
      </trkpt>
      <trkpt lat="42.72404" lon="-0.00416">
        <ele>1443.56</ele>
        <time>2017-03-17T07:54:41Z</time>
      </trkpt>
      <trkpt lat="42.7241" lon="-0.00413">
        <ele>1446.34</ele>
        <time>2017-03-17T07:54:55Z</time>
      </trkpt>
      <trkpt lat="42.72418" lon="-0.0041">
        <ele>1447.82</ele>
        <time>2017-03-17T07:55:10Z</time>
      </trkpt>
      <trkpt lat="42.72422" lon="-0.00407">
        <ele>1449.69</ele>
        <time>2017-03-17T07:55:21Z</time>
      </trkpt>
      <trkpt lat="42.72428" lon="-0.00402">
        <ele>1451.93</ele>
        <time>2017-03-17T07:55:35Z</time>
      </trkpt>
      <trkpt lat="42.72434" lon="-0.00396">
        <ele>1454.05</ele>
        <time>2017-03-17T07:55:49Z</time>
      </trkpt>
      <trkpt lat="42.72429" lon="-0.0039">
        <ele>1457.04</ele>
        <time>2017-03-17T07:56:05Z</time>
      </trkpt>
      <trkpt lat="42.72422" lon="-0.00388">
        <ele>1459.07</ele>
        <time>2017-03-17T07:56:19Z</time>
      </trkpt>
      <trkpt lat="42.7241" lon="-0.00384">
        <ele>1461.4</ele>
        <time>2017-03-17T07:56:36Z</time>
      </trkpt>
      <trkpt lat="42.72403" lon="-0.0038">
        <ele>1462.67</ele>
        <time>2017-03-17T07:56:50Z</time>
      </trkpt>
      <trkpt lat="42.72409" lon="-0.00375">
        <ele>1464.89</ele>
        <time>2017-03-17T07:57:06Z</time>
      </trkpt>
      <trkpt lat="42.72415" lon="-0.0037">
        <ele>1467.18</ele>
        <time>2017-03-17T07:57:20Z</time>
      </trkpt>
      <trkpt lat="42.72414" lon="-0.00366">
        <ele>1469.18</ele>
        <time>2017-03-17T07:57:33Z</time>
      </trkpt>
      <trkpt lat="42.72405" lon="-0.00363">
        <ele>1471.05</ele>
        <time>2017-03-17T07:57:47Z</time>
      </trkpt>
      <trkpt lat="42.72398" lon="-0.00355">
        <ele>1473.4</ele>
        <time>2017-03-17T07:58:03Z</time>
      </trkpt>
      <trkpt lat="42.72407" lon="-0.00357">
        <ele>1475.6</ele>
        <time>2017-03-17T07:58:16Z</time>
      </trkpt>
      <trkpt lat="42.72412" lon="-0.00355">
        <ele>1477.16</ele>
        <time>2017-03-17T07:58:28Z</time>
      </trkpt>
      <trkpt lat="42.72406" lon="-0.00349">
        <ele>1479.91</ele>
        <time>2017-03-17T07:58:42Z</time>
      </trkpt>
      <trkpt lat="42.72399" lon="-0.0034">
        <ele>1481.96</ele>
        <time>2017-03-17T07:59:00Z</time>
      </trkpt>
      <trkpt lat="42.72407" lon="-0.0034">
        <ele>1483.83</ele>
        <time>2017-03-17T07:59:13Z</time>
      </trkpt>
      <trkpt lat="42.72415" lon="-0.00339">
        <ele>1486.06</ele>
        <time>2017-03-17T07:59:28Z</time>
      </trkpt>
      <trkpt lat="42.72423" lon="-0.00334">
        <ele>1487.94</ele>
        <time>2017-03-17T07:59:42Z</time>
      </trkpt>
      <trkpt lat="42.72431" lon="-0.00329">
        <ele>1490.16</ele>
        <time>2017-03-17T07:59:56Z</time>
      </trkpt>
      <trkpt lat="42.72437" lon="-0.00322">
        <ele>1492.52</ele>
        <time>2017-03-17T08:00:10Z</time>
      </trkpt>
      <trkpt lat="42.72443" lon="-0.00316">
        <ele>1494.61</ele>
        <time>2017-03-17T08:00:24Z</time>
      </trkpt>
      <trkpt lat="42.72438" lon="-0.00309">
        <ele>1496.47</ele>
        <time>2017-03-17T08:00:36Z</time>
      </trkpt>
      <trkpt lat="42.72426" lon="-0.00308">
        <ele>1498.76</ele>
        <time>2017-03-17T08:00:52Z</time>
      </trkpt>
      <trkpt lat="42.72434" lon="-0.00302">
        <ele>1501.68</ele>
        <time>2017-03-17T08:01:09Z</time>
      </trkpt>
      <trkpt lat="42.72442" lon="-0.00296">
        <ele>1503.89</ele>
        <time>2017-03-17T08:01:23Z</time>
      </trkpt>
      <trkpt lat="42.72431" lon="-0.00297">
        <ele>1505.02</ele>
        <time>2017-03-17T08:01:38Z</time>
      </trkpt>
      <trkpt lat="42.7242" lon="-0.00294">
        <ele>1507.15</ele>
        <time>2017-03-17T08:01:54Z</time>
      </trkpt>
      <trkpt lat="42.72411" lon="-0.00289">
        <ele>1509.22</ele>
        <time>2017-03-17T08:02:09Z</time>
      </trkpt>
      <trkpt lat="42.72405" lon="-0.00285">
        <ele>1512.1</ele>
        <time>2017-03-17T08:02:24Z</time>
      </trkpt>
      <trkpt lat="42.72397" lon="-0.00282">
        <ele>1514.35</ele>
        <time>2017-03-17T08:02:40Z</time>
      </trkpt>
      <trkpt lat="42.72399" lon="-0.00281">
        <ele>1516.49</ele>
        <time>2017-03-17T08:02:53Z</time>
      </trkpt>
      <trkpt lat="42.72406" lon="-0.00276">
        <ele>1518.59</ele>
        <time>2017-03-17T08:03:08Z</time>
      </trkpt>
      <trkpt lat="42.72415" lon="-0.00274">
        <ele>1520.83</ele>
        <time>2017-03-17T08:03:22Z</time>
      </trkpt>
      <trkpt lat="42.72422" lon="-0.00267">
        <ele>1522.67</ele>
        <time>2017-03-17T08:03:38Z</time>
      </trkpt>
      <trkpt lat="42.72412" lon="-0.00263">
        <ele>1525.2</ele>
        <time>2017-03-17T08:03:55Z</time>
      </trkpt>
      <trkpt lat="42.72403" lon="-0.00262">
        <ele>1527.47</ele>
        <time>2017-03-17T08:04:11Z</time>
      </trkpt>
      <trkpt lat="42.72398" lon="-0.00258">
        <ele>1528.84</ele>
        <time>2017-03-17T08:04:26Z</time>
      </trkpt>
      <trkpt lat="42.72404" lon="-0.00254">
        <ele>1531.24</ele>
        <time>2017-03-17T08:04:41Z</time>
      </trkpt>
      <trkpt lat="42.72415" lon="-0.0025">
        <ele>1533.47</ele>
        <time>2017-03-17T08:04:57Z</time>
      </trkpt>
      <trkpt lat="42.7242" lon="-0.00243">
        <ele>1535.44</ele>
        <time>2017-03-17T08:05:12Z</time>
      </trkpt>
      <trkpt lat="42.7241" lon="-0.00242">
        <ele>1537.6</ele>
        <time>2017-03-17T08:05:27Z</time>
      </trkpt>
      <trkpt lat="42.724" lon="-0.0024">
        <ele>1540.21</ele>
        <time>2017-03-17T08:05:46Z</time>
      </trkpt>
      <trkpt lat="42.72397" lon="-0.00234">
        <ele>1542.47</ele>
        <time>2017-03-17T08:06:02Z</time>
      </trkpt>
      <trkpt lat="42.72404" lon="-0.00231">
        <ele>1544.93</ele>
        <time>2017-03-17T08:06:16Z</time>
      </trkpt>
      <trkpt lat="42.72406" lon="-0.0022">
        <ele>1547.07</ele>
        <time>2017-03-17T08:06:33Z</time>
      </trkpt>
      <trkpt lat="42.72399" lon="-0.00215">
        <ele>1549.4</ele>
        <time>2017-03-17T08:06:50Z</time>
      </trkpt>
      <trkpt lat="42.72395" lon="-0.00209">
        <ele>1552.04</ele>
        <time>2017-03-17T08:07:06Z</time>
      </trkpt>
      <trkpt lat="42.7239" lon="-0.00208">
        <ele>1555.02</ele>
        <time>2017-03-17T08:07:20Z</time>
      </trkpt>
      <trkpt lat="42.72383" lon="-0.00209">
        <ele>1557.08</ele>
        <time>2017-03-17T08:07:35Z</time>
      </trkpt>
      <trkpt lat="42.72375" lon="-0.00207">
        <ele>1558.56</ele>
        <time>2017-03-17T08:07:47Z</time>
      </trkpt>
      <trkpt lat="42.72366" lon="-0.00204">
        <ele>1560.71</ele>
        <time>2017-03-17T08:08:03Z</time>
      </trkpt>
      <trkpt lat="42.72361" lon="-0.00202">
        <ele>1562.84</ele>
        <time>2017-03-17T08:08:16Z</time>
      </trkpt>
      <trkpt lat="42.72368" lon="-0.00195">
        <ele>1565.21</ele>
        <time>2017-03-17T08:08:34Z</time>
      </trkpt>
      <trkpt lat="42.72365" lon="-0.00192">
        <ele>1567.5</ele>
        <time>2017-03-17T08:08:49Z</time>
      </trkpt>
      <trkpt lat="42.72357" lon="-0.00189">
        <ele>1570.24</ele>
        <time>2017-03-17T08:09:04Z</time>
      </trkpt>
      <trkpt lat="42.72349" lon="-0.00188">
        <ele>1571.43</ele>
        <time>2017-03-17T08:09:21Z</time>
      </trkpt>
      <trkpt lat="42.72339" lon="-0.00192">
        <ele>1573.57</ele>
        <time>2017-03-17T08:09:37Z</time>
      </trkpt>
      <trkpt lat="42.72334" lon="-0.00192">
        <ele>1575.16</ele>
        <time>2017-03-17T08:09:50Z</time>
      </trkpt>
      <trkpt lat="42.72331" lon="-0.00186">
        <ele>1577.13</ele>
        <time>2017-03-17T08:10:03Z</time>
      </trkpt>
      <trkpt lat="42.72323" lon="-0.00187">
        <ele>1578.3</ele>
        <time>2017-03-17T08:10:16Z</time>
      </trkpt>
      <trkpt lat="42.72312" lon="-0.0019">
        <ele>1580.64</ele>
        <time>2017-03-17T08:10:31Z</time>
      </trkpt>
      <trkpt lat="42.7231" lon="-0.00184">
        <ele>1582.76</ele>
        <time>2017-03-17T08:10:45Z</time>
      </trkpt>
      <trkpt lat="42.72311" lon="-0.00174">
        <ele>1585.77</ele>
        <time>2017-03-17T08:11:01Z</time>
      </trkpt>
      <trkpt lat="42.72321" lon="-0.00171">
        <ele>1587.49</ele>
        <time>2017-03-17T08:11:16Z</time>
      </trkpt>
      <trkpt lat="42.72332" lon="-0.0016">
        <ele>1589.68</ele>
        <time>2017-03-17T08:11:34Z</time>
      </trkpt>
      <trkpt lat="42.72339" lon="-0.00152">
        <ele>1592.01</ele>
        <time>2017-03-17T08:11:51Z</time>
      </trkpt>
      <trkpt lat="42.72349" lon="-0.00143">
        <ele>1594.67</ele>
        <time>2017-03-17T08:12:10Z</time>
      </trkpt>
      <trkpt lat="42.72356" lon="-0.0013">
        <ele>1596.99</ele>
        <time>2017-03-17T08:12:27Z</time>
      </trkpt>
      <trkpt lat="42.72362" lon="-0.00118">
        <ele>1599.15</ele>
        <time>2017-03-17T08:12:44Z</time>
      </trkpt>
      <trkpt lat="42.72368" lon="-0.00105">
        <ele>1601.81</ele>
        <time>2017-03-17T08:13:02Z</time>
      </trkpt>
      <trkpt lat="42.72363" lon="-0.00106">
        <ele>1604</ele>
        <time>2017-03-17T08:13:20Z</time>
      </trkpt>
      <trkpt lat="42.72353" lon="-0.00111">
        <ele>1605.98</ele>
        <time>2017-03-17T08:13:37Z</time>
      </trkpt>
      <trkpt lat="42.72337" lon="-0.00114">
        <ele>1608.44</ele>
        <time>2017-03-17T08:13:56Z</time>
      </trkpt>
      <trkpt lat="42.72326" lon="-0.00111">
        <ele>1611.45</ele>
        <time>2017-03-17T08:14:14Z</time>
      </trkpt>
      <trkpt lat="42.72313" lon="-0.00115">
        <ele>1613.83</ele>
        <time>2017-03-17T08:14:32Z</time>
      </trkpt>
      <trkpt lat="42.723" lon="-0.00115">
        <ele>1616.33</ele>
        <time>2017-03-17T08:14:50Z</time>
      </trkpt>
      <trkpt lat="42.72292" lon="-0.00108">
        <ele>1617.83</ele>
        <time>2017-03-17T08:15:04Z</time>
      </trkpt>
      <trkpt lat="42.72282" lon="-0.00095">
        <ele>1620.29</ele>
        <time>2017-03-17T08:15:22Z</time>
      </trkpt>
      <trkpt lat="42.72274" lon="-0.00086">
        <ele>1622.73</ele>
        <time>2017-03-17T08:15:39Z</time>
      </trkpt>
      <trkpt lat="42.72267" lon="-0.00078">
        <ele>1624.36</ele>
        <time>2017-03-17T08:15:52Z</time>
      </trkpt>
      <trkpt lat="42.72262" lon="-0.00069">
        <ele>1625.63</ele>
        <time>2017-03-17T08:16:06Z</time>
      </trkpt>
      <trkpt lat="42.72254" lon="-0.0006">
        <ele>1627.53</ele>
        <time>2017-03-17T08:16:21Z</time>
      </trkpt>
      <trkpt lat="42.72247" lon="-0.00051">
        <ele>1629.32</ele>
        <time>2017-03-17T08:16:36Z</time>
      </trkpt>
      <trkpt lat="42.72239" lon="-0.00042">
        <ele>1632.01</ele>
        <time>2017-03-17T08:16:53Z</time>
      </trkpt>
      <trkpt lat="42.72229" lon="-0.00035">
        <ele>1634.15</ele>
        <time>2017-03-17T08:17:09Z</time>
      </trkpt>
      <trkpt lat="42.72218" lon="-0.00022">
        <ele>1636</ele>
        <time>2017-03-17T08:17:27Z</time>
      </trkpt>
      <trkpt lat="42.72215" lon="-0.00014">
        <ele>1639.02</ele>
        <time>2017-03-17T08:17:41Z</time>
      </trkpt>
      <trkpt lat="42.72207" lon="-4.0E-5">
        <ele>1641.19</ele>
        <time>2017-03-17T08:17:57Z</time>
      </trkpt>
      <trkpt lat="42.72199" lon="8.0E-5">
        <ele>1643.53</ele>
        <time>2017-03-17T08:18:15Z</time>
      </trkpt>
      <trkpt lat="42.72191" lon="0.00021">
        <ele>1646.39</ele>
        <time>2017-03-17T08:18:32Z</time>
      </trkpt>
      <trkpt lat="42.72184" lon="0.00032">
        <ele>1647.93</ele>
        <time>2017-03-17T08:18:46Z</time>
      </trkpt>
      <trkpt lat="42.72175" lon="0.00045">
        <ele>1650.21</ele>
        <time>2017-03-17T08:19:03Z</time>
      </trkpt>
      <trkpt lat="42.72168" lon="0.00055">
        <ele>1652.96</ele>
        <time>2017-03-17T08:19:19Z</time>
      </trkpt>
      <trkpt lat="42.72161" lon="0.00063">
        <ele>1654.76</ele>
        <time>2017-03-17T08:19:33Z</time>
      </trkpt>
      <trkpt lat="42.72156" lon="0.0007">
        <ele>1657.15</ele>
        <time>2017-03-17T08:19:49Z</time>
      </trkpt>
      <trkpt lat="42.72152" lon="0.00077">
        <ele>1658.93</ele>
        <time>2017-03-17T08:20:03Z</time>
      </trkpt>
      <trkpt lat="42.72148" lon="0.00084">
        <ele>1661.45</ele>
        <time>2017-03-17T08:20:18Z</time>
      </trkpt>
      <trkpt lat="42.72139" lon="0.00086">
        <ele>1663.62</ele>
        <time>2017-03-17T08:20:36Z</time>
      </trkpt>
      <trkpt lat="42.72132" lon="0.00094">
        <ele>1664.95</ele>
        <time>2017-03-17T08:20:52Z</time>
      </trkpt>
      <trkpt lat="42.72125" lon="0.00105">
        <ele>1667.97</ele>
        <time>2017-03-17T08:21:11Z</time>
      </trkpt>
      <trkpt lat="42.72131" lon="0.00111">
        <ele>1670.14</ele>
        <time>2017-03-17T08:21:26Z</time>
      </trkpt>
      <trkpt lat="42.7214" lon="0.00114">
        <ele>1672.21</ele>
        <time>2017-03-17T08:21:41Z</time>
      </trkpt>
      <trkpt lat="42.72148" lon="0.00117">
        <ele>1673.92</ele>
        <time>2017-03-17T08:21:55Z</time>
      </trkpt>
      <trkpt lat="42.72156" lon="0.00115">
        <ele>1676.73</ele>
        <time>2017-03-17T08:22:11Z</time>
      </trkpt>
      <trkpt lat="42.7216" lon="0.00121">
        <ele>1679.45</ele>
        <time>2017-03-17T08:22:28Z</time>
      </trkpt>
      <trkpt lat="42.72152" lon="0.0013">
        <ele>1681.26</ele>
        <time>2017-03-17T08:22:44Z</time>
      </trkpt>
      <trkpt lat="42.72144" lon="0.00142">
        <ele>1683.13</ele>
        <time>2017-03-17T08:23:00Z</time>
      </trkpt>
      <trkpt lat="42.72137" lon="0.00153">
        <ele>1685.22</ele>
        <time>2017-03-17T08:23:17Z</time>
      </trkpt>
      <trkpt lat="42.72128" lon="0.00162">
        <ele>1687.62</ele>
        <time>2017-03-17T08:23:35Z</time>
      </trkpt>
      <trkpt lat="42.7212" lon="0.00169">
        <ele>1690.08</ele>
        <time>2017-03-17T08:23:52Z</time>
      </trkpt>
      <trkpt lat="42.72111" lon="0.00177">
        <ele>1692.82</ele>
        <time>2017-03-17T08:24:09Z</time>
      </trkpt>
      <trkpt lat="42.72108" lon="0.00184">
        <ele>1694.83</ele>
        <time>2017-03-17T08:24:22Z</time>
      </trkpt>
      <trkpt lat="42.72102" lon="0.00191">
        <ele>1696.1</ele>
        <time>2017-03-17T08:24:36Z</time>
      </trkpt>
      <trkpt lat="42.72095" lon="0.00197">
        <ele>1698.34</ele>
        <time>2017-03-17T08:24:52Z</time>
      </trkpt>
      <trkpt lat="42.72091" lon="0.00208">
        <ele>1701.41</ele>
        <time>2017-03-17T08:25:06Z</time>
      </trkpt>
      <trkpt lat="42.72089" lon="0.00217">
        <ele>1702.88</ele>
        <time>2017-03-17T08:25:20Z</time>
      </trkpt>
      <trkpt lat="42.72084" lon="0.00227">
        <ele>1705.97</ele>
        <time>2017-03-17T08:25:35Z</time>
      </trkpt>
      <trkpt lat="42.72077" lon="0.00235">
        <ele>1708.56</ele>
        <time>2017-03-17T08:25:51Z</time>
      </trkpt>
      <trkpt lat="42.72074" lon="0.00244">
        <ele>1711.1</ele>
        <time>2017-03-17T08:26:05Z</time>
      </trkpt>
      <trkpt lat="42.72073" lon="0.00253">
        <ele>1713.31</ele>
        <time>2017-03-17T08:26:22Z</time>
      </trkpt>
      <trkpt lat="42.7207" lon="0.0026">
        <ele>1714.39</ele>
        <time>2017-03-17T08:26:45Z</time>
      </trkpt>
      <trkpt lat="42.72063" lon="0.00273">
        <ele>1717.21</ele>
        <time>2017-03-17T08:27:01Z</time>
      </trkpt>
      <trkpt lat="42.7206" lon="0.00287">
        <ele>1719.89</ele>
        <time>2017-03-17T08:27:19Z</time>
      </trkpt>
      <trkpt lat="42.72055" lon="0.00301">
        <ele>1722.28</ele>
        <time>2017-03-17T08:27:36Z</time>
      </trkpt>
      <trkpt lat="42.7205" lon="0.00316">
        <ele>1724.75</ele>
        <time>2017-03-17T08:27:53Z</time>
      </trkpt>
      <trkpt lat="42.72044" lon="0.0033">
        <ele>1726.74</ele>
        <time>2017-03-17T08:28:11Z</time>
      </trkpt>
      <trkpt lat="42.72039" lon="0.00343">
        <ele>1729.75</ele>
        <time>2017-03-17T08:28:29Z</time>
      </trkpt>
      <trkpt lat="42.72033" lon="0.00356">
        <ele>1732.04</ele>
        <time>2017-03-17T08:28:47Z</time>
      </trkpt>
      <trkpt lat="42.72033" lon="0.00367">
        <ele>1735.18</ele>
        <time>2017-03-17T08:29:04Z</time>
      </trkpt>
      <trkpt lat="42.72031" lon="0.0038">
        <ele>1737.72</ele>
        <time>2017-03-17T08:29:19Z</time>
      </trkpt>
      <trkpt lat="42.72026" lon="0.00391">
        <ele>1740.2</ele>
        <time>2017-03-17T08:29:34Z</time>
      </trkpt>
      <trkpt lat="42.72022" lon="0.00402">
        <ele>1743.26</ele>
        <time>2017-03-17T08:29:53Z</time>
      </trkpt>
      <trkpt lat="42.72021" lon="0.0041">
        <ele>1746.41</ele>
        <time>2017-03-17T08:30:07Z</time>
      </trkpt>
      <trkpt lat="42.7202" lon="0.0042">
        <ele>1749.42</ele>
        <time>2017-03-17T08:30:24Z</time>
      </trkpt>
      <trkpt lat="42.72012" lon="0.0043">
        <ele>1752.22</ele>
        <time>2017-03-17T08:30:42Z</time>
      </trkpt>
      <trkpt lat="42.72008" lon="0.00437">
        <ele>1754.85</ele>
        <time>2017-03-17T08:30:54Z</time>
      </trkpt>
      <trkpt lat="42.72" lon="0.00444">
        <ele>1757.55</ele>
        <time>2017-03-17T08:31:10Z</time>
      </trkpt>
      <trkpt lat="42.71999" lon="0.00452">
        <ele>1760.56</ele>
        <time>2017-03-17T08:31:26Z</time>
      </trkpt>
      <trkpt lat="42.72007" lon="0.00457">
        <ele>1763.03</ele>
        <time>2017-03-17T08:31:44Z</time>
      </trkpt>
      <trkpt lat="42.72006" lon="0.00466">
        <ele>1765.07</ele>
        <time>2017-03-17T08:31:57Z</time>
      </trkpt>
      <trkpt lat="42.72005" lon="0.00475">
        <ele>1767.43</ele>
        <time>2017-03-17T08:32:17Z</time>
      </trkpt>
      <trkpt lat="42.72013" lon="0.00476">
        <ele>1768.85</ele>
        <time>2017-03-17T08:32:38Z</time>
      </trkpt>
      <trkpt lat="42.7202" lon="0.00484">
        <ele>1771.26</ele>
        <time>2017-03-17T08:32:52Z</time>
      </trkpt>
      <trkpt lat="42.72026" lon="0.00495">
        <ele>1773.45</ele>
        <time>2017-03-17T08:33:07Z</time>
      </trkpt>
      <trkpt lat="42.72023" lon="0.00507">
        <ele>1776.5</ele>
        <time>2017-03-17T08:33:22Z</time>
      </trkpt>
      <trkpt lat="42.72028" lon="0.00508">
        <ele>1778.31</ele>
        <time>2017-03-17T08:33:35Z</time>
      </trkpt>
      <trkpt lat="42.72037" lon="0.00507">
        <ele>1781.21</ele>
        <time>2017-03-17T08:33:51Z</time>
      </trkpt>
      <trkpt lat="42.72036" lon="0.00515">
        <ele>1783.22</ele>
        <time>2017-03-17T08:34:05Z</time>
      </trkpt>
      <trkpt lat="42.72038" lon="0.00521">
        <ele>1785.82</ele>
        <time>2017-03-17T08:34:19Z</time>
      </trkpt>
      <trkpt lat="42.72045" lon="0.00515">
        <ele>1787.99</ele>
        <time>2017-03-17T08:34:34Z</time>
      </trkpt>
      <trkpt lat="42.72053" lon="0.00512">
        <ele>1790.86</ele>
        <time>2017-03-17T08:34:49Z</time>
      </trkpt>
      <trkpt lat="42.72058" lon="0.00511">
        <ele>1792.35</ele>
        <time>2017-03-17T08:35:01Z</time>
      </trkpt>
      <trkpt lat="42.72059" lon="0.00519">
        <ele>1794.48</ele>
        <time>2017-03-17T08:35:15Z</time>
      </trkpt>
      <trkpt lat="42.72061" lon="0.00523">
        <ele>1796.43</ele>
        <time>2017-03-17T08:35:28Z</time>
      </trkpt>
      <trkpt lat="42.72059" lon="0.0053">
        <ele>1798.49</ele>
        <time>2017-03-17T08:35:42Z</time>
      </trkpt>
      <trkpt lat="42.72059" lon="0.00535">
        <ele>1801.6</ele>
        <time>2017-03-17T08:35:55Z</time>
      </trkpt>
      <trkpt lat="42.72057" lon="0.00543">
        <ele>1804.09</ele>
        <time>2017-03-17T08:36:11Z</time>
      </trkpt>
      <trkpt lat="42.72062" lon="0.00552">
        <ele>1807.25</ele>
        <time>2017-03-17T08:36:27Z</time>
      </trkpt>
      <trkpt lat="42.7207" lon="0.00558">
        <ele>1809.32</ele>
        <time>2017-03-17T08:36:42Z</time>
      </trkpt>
      <trkpt lat="42.7208" lon="0.00563">
        <ele>1811.73</ele>
        <time>2017-03-17T08:36:58Z</time>
      </trkpt>
      <trkpt lat="42.72081" lon="0.00573">
        <ele>1813.76</ele>
        <time>2017-03-17T08:37:12Z</time>
      </trkpt>
      <trkpt lat="42.72078" lon="0.00589">
        <ele>1816.11</ele>
        <time>2017-03-17T08:37:28Z</time>
      </trkpt>
      <trkpt lat="42.72075" lon="0.00602">
        <ele>1818.5</ele>
        <time>2017-03-17T08:37:44Z</time>
      </trkpt>
      <trkpt lat="42.7208" lon="0.00613">
        <ele>1820.4</ele>
        <time>2017-03-17T08:37:59Z</time>
      </trkpt>
      <trkpt lat="42.72078" lon="0.00627">
        <ele>1822.95</ele>
        <time>2017-03-17T08:38:15Z</time>
      </trkpt>
      <trkpt lat="42.72082" lon="0.00629">
        <ele>1824</ele>
        <time>2017-03-17T08:38:22Z</time>
      </trkpt>
      <trkpt lat="42.72092" lon="0.00634">
        <ele>1825.78</ele>
        <time>2017-03-17T08:38:37Z</time>
      </trkpt>
      <trkpt lat="42.72093" lon="0.00647">
        <ele>1828.19</ele>
        <time>2017-03-17T08:38:52Z</time>
      </trkpt>
      <trkpt lat="42.72095" lon="0.00651">
        <ele>1829.72</ele>
        <time>2017-03-17T08:39:11Z</time>
      </trkpt>
      <trkpt lat="42.721" lon="0.00663">
        <ele>1831.77</ele>
        <time>2017-03-17T08:39:28Z</time>
      </trkpt>
      <trkpt lat="42.72107" lon="0.00674">
        <ele>1834.8</ele>
        <time>2017-03-17T08:39:47Z</time>
      </trkpt>
      <trkpt lat="42.72115" lon="0.00682">
        <ele>1837.3</ele>
        <time>2017-03-17T08:40:04Z</time>
      </trkpt>
      <trkpt lat="42.72122" lon="0.0069">
        <ele>1838.95</ele>
        <time>2017-03-17T08:40:20Z</time>
      </trkpt>
      <trkpt lat="42.72129" lon="0.00695">
        <ele>1842.2</ele>
        <time>2017-03-17T08:40:34Z</time>
      </trkpt>
      <trkpt lat="42.72138" lon="0.007">
        <ele>1844.19</ele>
        <time>2017-03-17T08:40:50Z</time>
      </trkpt>
      <trkpt lat="42.72146" lon="0.00705">
        <ele>1846.37</ele>
        <time>2017-03-17T08:41:05Z</time>
      </trkpt>
      <trkpt lat="42.7215" lon="0.0071">
        <ele>1848.45</ele>
        <time>2017-03-17T08:41:18Z</time>
      </trkpt>
      <trkpt lat="42.72151" lon="0.00721">
        <ele>1850.89</ele>
        <time>2017-03-17T08:41:33Z</time>
      </trkpt>
      <trkpt lat="42.72157" lon="0.00727">
        <ele>1853.08</ele>
        <time>2017-03-17T08:41:50Z</time>
      </trkpt>
      <trkpt lat="42.72162" lon="0.00733">
        <ele>1854.96</ele>
        <time>2017-03-17T08:42:09Z</time>
      </trkpt>
      <trkpt lat="42.72166" lon="0.00736">
        <ele>1857.63</ele>
        <time>2017-03-17T08:42:26Z</time>
      </trkpt>
      <trkpt lat="42.7217" lon="0.00741">
        <ele>1859.14</ele>
        <time>2017-03-17T08:42:42Z</time>
      </trkpt>
      <trkpt lat="42.72176" lon="0.00747">
        <ele>1862.24</ele>
        <time>2017-03-17T08:43:01Z</time>
      </trkpt>
      <trkpt lat="42.72183" lon="0.0075">
        <ele>1864.23</ele>
        <time>2017-03-17T08:43:22Z</time>
      </trkpt>
      <trkpt lat="42.72188" lon="0.00759">
        <ele>1867.34</ele>
        <time>2017-03-17T08:43:41Z</time>
      </trkpt>
      <trkpt lat="42.72195" lon="0.00767">
        <ele>1869.8</ele>
        <time>2017-03-17T08:44:05Z</time>
      </trkpt>
      <trkpt lat="42.72201" lon="0.00771">
        <ele>1872.5</ele>
        <time>2017-03-17T08:44:24Z</time>
      </trkpt>
      <trkpt lat="42.72204" lon="0.00778">
        <ele>1875.13</ele>
        <time>2017-03-17T08:44:40Z</time>
      </trkpt>
      <trkpt lat="42.72205" lon="0.00782">
        <ele>1877.1</ele>
        <time>2017-03-17T08:44:55Z</time>
      </trkpt>
      <trkpt lat="42.72205" lon="0.00782">
        <ele>1876.01</ele>
        <time>2017-03-17T08:45:16Z</time>
      </trkpt>
      <trkpt lat="42.72204" lon="0.00782">
        <ele>1875.58</ele>
        <time>2017-03-17T08:45:54Z</time>
      </trkpt>
      <trkpt lat="42.72203" lon="0.00782">
        <ele>1875.79</ele>
        <time>2017-03-17T08:46:40Z</time>
      </trkpt>
      <trkpt lat="42.72202" lon="0.00783">
        <ele>1875.34</ele>
        <time>2017-03-17T08:47:37Z</time>
      </trkpt>
      <trkpt lat="42.72202" lon="0.00783">
        <ele>1875.61</ele>
        <time>2017-03-17T08:48:34Z</time>
      </trkpt>
      <trkpt lat="42.72202" lon="0.00782">
        <ele>1876.16</ele>
        <time>2017-03-17T08:49:33Z</time>
      </trkpt>
      <trkpt lat="42.72202" lon="0.00783">
        <ele>1875.26</ele>
        <time>2017-03-17T08:50:35Z</time>
      </trkpt>
      <trkpt lat="42.72202" lon="0.00783">
        <ele>1875.54</ele>
        <time>2017-03-17T08:51:27Z</time>
      </trkpt>
      <trkpt lat="42.72203" lon="0.00783">
        <ele>1875.09</ele>
        <time>2017-03-17T08:52:09Z</time>
      </trkpt>
      <trkpt lat="42.72205" lon="0.00783">
        <ele>1874.78</ele>
        <time>2017-03-17T08:52:45Z</time>
      </trkpt>
      <trkpt lat="42.72204" lon="0.00783">
        <ele>1875.05</ele>
        <time>2017-03-17T08:53:10Z</time>
      </trkpt>
      <trkpt lat="42.72205" lon="0.00781">
        <ele>1875.73</ele>
        <time>2017-03-17T08:53:35Z</time>
      </trkpt>
      <trkpt lat="42.72206" lon="0.00783">
        <ele>1875.32</ele>
        <time>2017-03-17T08:53:57Z</time>
      </trkpt>
      <trkpt lat="42.72205" lon="0.00784">
        <ele>1875.11</ele>
        <time>2017-03-17T08:54:09Z</time>
      </trkpt>
      <trkpt lat="42.72207" lon="0.00781">
        <ele>1874.93</ele>
        <time>2017-03-17T08:54:36Z</time>
      </trkpt>
      <trkpt lat="42.72206" lon="0.00783">
        <ele>1875.25</ele>
        <time>2017-03-17T08:55:13Z</time>
      </trkpt>
      <trkpt lat="42.72206" lon="0.00784">
        <ele>1875.05</ele>
        <time>2017-03-17T08:56:11Z</time>
      </trkpt>
      <trkpt lat="42.72206" lon="0.00783">
        <ele>1875.24</ele>
        <time>2017-03-17T08:56:44Z</time>
      </trkpt>
      <trkpt lat="42.72204" lon="0.00783">
        <ele>1875.19</ele>
        <time>2017-03-17T08:57:41Z</time>
      </trkpt>
      <trkpt lat="42.72202" lon="0.00783">
        <ele>1875.3</ele>
        <time>2017-03-17T08:58:33Z</time>
      </trkpt>
      <trkpt lat="42.72202" lon="0.00783">
        <ele>1875.07</ele>
        <time>2017-03-17T08:59:26Z</time>
      </trkpt>
      <trkpt lat="42.72201" lon="0.00783">
        <ele>1875.87</ele>
        <time>2017-03-17T09:00:04Z</time>
      </trkpt>
      <trkpt lat="42.72202" lon="0.00783">
        <ele>1875.31</ele>
        <time>2017-03-17T09:00:47Z</time>
      </trkpt>
      <trkpt lat="42.72202" lon="0.00783">
        <ele>1875.67</ele>
        <time>2017-03-17T09:01:33Z</time>
      </trkpt>
      <trkpt lat="42.72203" lon="0.00784">
        <ele>1876.29</ele>
        <time>2017-03-17T09:02:11Z</time>
      </trkpt>
      <trkpt lat="42.72205" lon="0.00783">
        <ele>1875.61</ele>
        <time>2017-03-17T09:03:02Z</time>
      </trkpt>
      <trkpt lat="42.72205" lon="0.00784">
        <ele>1875.52</ele>
        <time>2017-03-17T09:03:49Z</time>
      </trkpt>
      <trkpt lat="42.72205" lon="0.00784">
        <ele>1875.87</ele>
        <time>2017-03-17T09:04:11Z</time>
      </trkpt>
      <trkpt lat="42.72204" lon="0.00784">
        <ele>1876.02</ele>
        <time>2017-03-17T09:04:46Z</time>
      </trkpt>
      <trkpt lat="42.72205" lon="0.00784">
        <ele>1876.23</ele>
        <time>2017-03-17T09:05:17Z</time>
      </trkpt>
      <trkpt lat="42.72206" lon="0.00783">
        <ele>1876.16</ele>
        <time>2017-03-17T09:06:04Z</time>
      </trkpt>
      <trkpt lat="42.72205" lon="0.00782">
        <ele>1876.86</ele>
        <time>2017-03-17T09:06:33Z</time>
      </trkpt>
      <trkpt lat="42.72205" lon="0.00783">
        <ele>1877.11</ele>
        <time>2017-03-17T09:06:52Z</time>
      </trkpt>
      <trkpt lat="42.72203" lon="0.00784">
        <ele>1877.15</ele>
        <time>2017-03-17T09:07:28Z</time>
      </trkpt>
      <trkpt lat="42.72203" lon="0.00784">
        <ele>1877.31</ele>
        <time>2017-03-17T09:07:54Z</time>
      </trkpt>
      <trkpt lat="42.72203" lon="0.00784">
        <ele>1877.51</ele>
        <time>2017-03-17T09:08:12Z</time>
      </trkpt>
      <trkpt lat="42.72202" lon="0.00786">
        <ele>1877.61</ele>
        <time>2017-03-17T09:08:34Z</time>
      </trkpt>
      <trkpt lat="42.72202" lon="0.00786">
        <ele>1877.47</ele>
        <time>2017-03-17T09:09:03Z</time>
      </trkpt>
      <trkpt lat="42.72201" lon="0.00791">
        <ele>1877.53</ele>
        <time>2017-03-17T09:09:36Z</time>
      </trkpt>
      <trkpt lat="42.72199" lon="0.00804">
        <ele>1879.6</ele>
        <time>2017-03-17T09:09:53Z</time>
      </trkpt>
      <trkpt lat="42.72194" lon="0.00817">
        <ele>1882.65</ele>
        <time>2017-03-17T09:10:10Z</time>
      </trkpt>
      <trkpt lat="42.72187" lon="0.00835">
        <ele>1885.28</ele>
        <time>2017-03-17T09:10:30Z</time>
      </trkpt>
      <trkpt lat="42.72179" lon="0.00852">
        <ele>1886.71</ele>
        <time>2017-03-17T09:10:50Z</time>
      </trkpt>
      <trkpt lat="42.72171" lon="0.00865">
        <ele>1888.55</ele>
        <time>2017-03-17T09:11:06Z</time>
      </trkpt>
      <trkpt lat="42.72162" lon="0.00879">
        <ele>1891.16</ele>
        <time>2017-03-17T09:11:24Z</time>
      </trkpt>
      <trkpt lat="42.72154" lon="0.0089">
        <ele>1893.31</ele>
        <time>2017-03-17T09:11:41Z</time>
      </trkpt>
      <trkpt lat="42.72149" lon="0.00901">
        <ele>1895.73</ele>
        <time>2017-03-17T09:11:56Z</time>
      </trkpt>
      <trkpt lat="42.72143" lon="0.00916">
        <ele>1898.8</ele>
        <time>2017-03-17T09:12:15Z</time>
      </trkpt>
      <trkpt lat="42.72134" lon="0.00928">
        <ele>1901.49</ele>
        <time>2017-03-17T09:12:35Z</time>
      </trkpt>
      <trkpt lat="42.72129" lon="0.00937">
        <ele>1904.11</ele>
        <time>2017-03-17T09:12:51Z</time>
      </trkpt>
      <trkpt lat="42.72124" lon="0.00945">
        <ele>1907.11</ele>
        <time>2017-03-17T09:13:05Z</time>
      </trkpt>
      <trkpt lat="42.72118" lon="0.00951">
        <ele>1909.95</ele>
        <time>2017-03-17T09:13:18Z</time>
      </trkpt>
      <trkpt lat="42.72113" lon="0.00956">
        <ele>1912.37</ele>
        <time>2017-03-17T09:13:34Z</time>
      </trkpt>
      <trkpt lat="42.7211" lon="0.00958">
        <ele>1913.17</ele>
        <time>2017-03-17T09:13:57Z</time>
      </trkpt>
      <trkpt lat="42.72115" lon="0.00962">
        <ele>1913.92</ele>
        <time>2017-03-17T09:14:12Z</time>
      </trkpt>
      <trkpt lat="42.72124" lon="0.00967">
        <ele>1917.01</ele>
        <time>2017-03-17T09:14:28Z</time>
      </trkpt>
      <trkpt lat="42.72132" lon="0.00968">
        <ele>1919.7</ele>
        <time>2017-03-17T09:14:45Z</time>
      </trkpt>
      <trkpt lat="42.72129" lon="0.00973">
        <ele>1920.68</ele>
        <time>2017-03-17T09:15:04Z</time>
      </trkpt>
      <trkpt lat="42.72124" lon="0.0098">
        <ele>1923.88</ele>
        <time>2017-03-17T09:15:18Z</time>
      </trkpt>
      <trkpt lat="42.72117" lon="0.00987">
        <ele>1926.78</ele>
        <time>2017-03-17T09:15:33Z</time>
      </trkpt>
      <trkpt lat="42.72121" lon="0.00989">
        <ele>1927.08</ele>
        <time>2017-03-17T09:15:49Z</time>
      </trkpt>
      <trkpt lat="42.72125" lon="0.00993">
        <ele>1928.89</ele>
        <time>2017-03-17T09:16:03Z</time>
      </trkpt>
      <trkpt lat="42.7212" lon="0.01003">
        <ele>1931.14</ele>
        <time>2017-03-17T09:16:19Z</time>
      </trkpt>
      <trkpt lat="42.72119" lon="0.01007">
        <ele>1933.77</ele>
        <time>2017-03-17T09:16:33Z</time>
      </trkpt>
      <trkpt lat="42.72119" lon="0.01015">
        <ele>1935.76</ele>
        <time>2017-03-17T09:16:48Z</time>
      </trkpt>
      <trkpt lat="42.72118" lon="0.0102">
        <ele>1938.24</ele>
        <time>2017-03-17T09:17:02Z</time>
      </trkpt>
      <trkpt lat="42.72127" lon="0.01024">
        <ele>1940.14</ele>
        <time>2017-03-17T09:17:17Z</time>
      </trkpt>
      <trkpt lat="42.72134" lon="0.01028">
        <ele>1942.79</ele>
        <time>2017-03-17T09:17:33Z</time>
      </trkpt>
      <trkpt lat="42.72141" lon="0.01031">
        <ele>1945.12</ele>
        <time>2017-03-17T09:17:50Z</time>
      </trkpt>
      <trkpt lat="42.72136" lon="0.01036">
        <ele>1946.79</ele>
        <time>2017-03-17T09:18:13Z</time>
      </trkpt>
      <trkpt lat="42.72127" lon="0.0105">
        <ele>1949.79</ele>
        <time>2017-03-17T09:18:34Z</time>
      </trkpt>
      <trkpt lat="42.72121" lon="0.01062">
        <ele>1952.55</ele>
        <time>2017-03-17T09:18:51Z</time>
      </trkpt>
      <trkpt lat="42.72115" lon="0.01075">
        <ele>1955.23</ele>
        <time>2017-03-17T09:19:08Z</time>
      </trkpt>
      <trkpt lat="42.72108" lon="0.01089">
        <ele>1958.25</ele>
        <time>2017-03-17T09:19:28Z</time>
      </trkpt>
      <trkpt lat="42.72107" lon="0.01096">
        <ele>1959.78</ele>
        <time>2017-03-17T09:19:44Z</time>
      </trkpt>
      <trkpt lat="42.72117" lon="0.01097">
        <ele>1962.31</ele>
        <time>2017-03-17T09:20:00Z</time>
      </trkpt>
      <trkpt lat="42.72121" lon="0.01097">
        <ele>1963.35</ele>
        <time>2017-03-17T09:20:06Z</time>
      </trkpt>
      <trkpt lat="42.72134" lon="0.01098">
        <ele>1966.35</ele>
        <time>2017-03-17T09:20:24Z</time>
      </trkpt>
      <trkpt lat="42.72136" lon="0.01104">
        <ele>1969.12</ele>
        <time>2017-03-17T09:20:38Z</time>
      </trkpt>
      <trkpt lat="42.7213" lon="0.01119">
        <ele>1972.2</ele>
        <time>2017-03-17T09:20:56Z</time>
      </trkpt>
      <trkpt lat="42.72123" lon="0.01132">
        <ele>1974.85</ele>
        <time>2017-03-17T09:21:14Z</time>
      </trkpt>
      <trkpt lat="42.72117" lon="0.01147">
        <ele>1977.22</ele>
        <time>2017-03-17T09:21:33Z</time>
      </trkpt>
      <trkpt lat="42.72108" lon="0.01161">
        <ele>1979.88</ele>
        <time>2017-03-17T09:21:52Z</time>
      </trkpt>
      <trkpt lat="42.72108" lon="0.01161">
        <ele>1979.99</ele>
        <time>2017-03-17T09:21:53Z</time>
      </trkpt>
      <trkpt lat="42.72099" lon="0.01175">
        <ele>1982.41</ele>
        <time>2017-03-17T09:22:11Z</time>
      </trkpt>
      <trkpt lat="42.72091" lon="0.01191">
        <ele>1985.43</ele>
        <time>2017-03-17T09:22:32Z</time>
      </trkpt>
      <trkpt lat="42.72084" lon="0.01206">
        <ele>1988.49</ele>
        <time>2017-03-17T09:22:51Z</time>
      </trkpt>
      <trkpt lat="42.72079" lon="0.01224">
        <ele>1990.37</ele>
        <time>2017-03-17T09:23:10Z</time>
      </trkpt>
      <trkpt lat="42.72074" lon="0.01241">
        <ele>1992.56</ele>
        <time>2017-03-17T09:23:28Z</time>
      </trkpt>
      <trkpt lat="42.72072" lon="0.01248">
        <ele>1993.36</ele>
        <time>2017-03-17T09:23:35Z</time>
      </trkpt>
      <trkpt lat="42.72066" lon="0.01267">
        <ele>1995.43</ele>
        <time>2017-03-17T09:23:54Z</time>
      </trkpt>
      <trkpt lat="42.72061" lon="0.01286">
        <ele>1997.19</ele>
        <time>2017-03-17T09:24:13Z</time>
      </trkpt>
      <trkpt lat="42.72062" lon="0.01298">
        <ele>1998.44</ele>
        <time>2017-03-17T09:24:30Z</time>
      </trkpt>
      <trkpt lat="42.72062" lon="0.01298">
        <ele>1998.46</ele>
        <time>2017-03-17T09:24:33Z</time>
      </trkpt>
      <trkpt lat="42.72063" lon="0.0132">
        <ele>2000.25</ele>
        <time>2017-03-17T09:24:52Z</time>
      </trkpt>
      <trkpt lat="42.72064" lon="0.01341">
        <ele>2003.09</ele>
        <time>2017-03-17T09:25:11Z</time>
      </trkpt>
      <trkpt lat="42.72065" lon="0.01342">
        <ele>2004.1</ele>
        <time>2017-03-17T09:25:26Z</time>
      </trkpt>
      <trkpt lat="42.72065" lon="0.01344">
        <ele>2004.21</ele>
        <time>2017-03-17T09:25:55Z</time>
      </trkpt>
      <trkpt lat="42.72067" lon="0.01344">
        <ele>2004.26</ele>
        <time>2017-03-17T09:25:57Z</time>
      </trkpt>
      <trkpt lat="42.72072" lon="0.01344">
        <ele>2004.32</ele>
        <time>2017-03-17T09:26:11Z</time>
      </trkpt>
      <trkpt lat="42.72067" lon="0.01342">
        <ele>2004.28</ele>
        <time>2017-03-17T09:26:41Z</time>
      </trkpt>
      <trkpt lat="42.72064" lon="0.01341">
        <ele>2003.97</ele>
        <time>2017-03-17T09:26:55Z</time>
      </trkpt>
      <trkpt lat="42.72064" lon="0.01341">
        <ele>2004.47</ele>
        <time>2017-03-17T09:27:13Z</time>
      </trkpt>
      <trkpt lat="42.72064" lon="0.01341">
        <ele>2004.35</ele>
        <time>2017-03-17T09:27:37Z</time>
      </trkpt>
      <trkpt lat="42.72067" lon="0.0135">
        <ele>2004.31</ele>
        <time>2017-03-17T09:28:06Z</time>
      </trkpt>
      <trkpt lat="42.72073" lon="0.01361">
        <ele>2005.07</ele>
        <time>2017-03-17T09:28:18Z</time>
      </trkpt>
      <trkpt lat="42.72084" lon="0.01384">
        <ele>2006.17</ele>
        <time>2017-03-17T09:28:38Z</time>
      </trkpt>
      <trkpt lat="42.72095" lon="0.01399">
        <ele>2007.15</ele>
        <time>2017-03-17T09:28:53Z</time>
      </trkpt>
      <trkpt lat="42.72103" lon="0.01414">
        <ele>2008.38</ele>
        <time>2017-03-17T09:29:09Z</time>
      </trkpt>
      <trkpt lat="42.72111" lon="0.01432">
        <ele>2010.46</ele>
        <time>2017-03-17T09:29:28Z</time>
      </trkpt>
      <trkpt lat="42.72109" lon="0.01449">
        <ele>2013.52</ele>
        <time>2017-03-17T09:29:46Z</time>
      </trkpt>
      <trkpt lat="42.72117" lon="0.01462">
        <ele>2016.1</ele>
        <time>2017-03-17T09:30:03Z</time>
      </trkpt>
      <trkpt lat="42.7212" lon="0.01475">
        <ele>2018.21</ele>
        <time>2017-03-17T09:30:18Z</time>
      </trkpt>
      <trkpt lat="42.72124" lon="0.01492">
        <ele>2021.07</ele>
        <time>2017-03-17T09:30:35Z</time>
      </trkpt>
      <trkpt lat="42.72125" lon="0.0151">
        <ele>2023.98</ele>
        <time>2017-03-17T09:30:52Z</time>
      </trkpt>
      <trkpt lat="42.72126" lon="0.01526">
        <ele>2027.1</ele>
        <time>2017-03-17T09:31:10Z</time>
      </trkpt>
      <trkpt lat="42.72122" lon="0.01538">
        <ele>2030.2</ele>
        <time>2017-03-17T09:31:26Z</time>
      </trkpt>
      <trkpt lat="42.72111" lon="0.01545">
        <ele>2033.22</ele>
        <time>2017-03-17T09:31:43Z</time>
      </trkpt>
      <trkpt lat="42.721" lon="0.01551">
        <ele>2036</ele>
        <time>2017-03-17T09:32:00Z</time>
      </trkpt>
      <trkpt lat="42.72092" lon="0.01559">
        <ele>2039.05</ele>
        <time>2017-03-17T09:32:14Z</time>
      </trkpt>
      <trkpt lat="42.72087" lon="0.01573">
        <ele>2042.1</ele>
        <time>2017-03-17T09:32:31Z</time>
      </trkpt>
      <trkpt lat="42.72088" lon="0.01588">
        <ele>2044.99</ele>
        <time>2017-03-17T09:32:48Z</time>
      </trkpt>
      <trkpt lat="42.72094" lon="0.01603">
        <ele>2048.01</ele>
        <time>2017-03-17T09:33:06Z</time>
      </trkpt>
      <trkpt lat="42.721" lon="0.01615">
        <ele>2050.52</ele>
        <time>2017-03-17T09:33:23Z</time>
      </trkpt>
      <trkpt lat="42.72108" lon="0.01625">
        <ele>2053.4</ele>
        <time>2017-03-17T09:33:41Z</time>
      </trkpt>
      <trkpt lat="42.72118" lon="0.01636">
        <ele>2056.39</ele>
        <time>2017-03-17T09:33:59Z</time>
      </trkpt>
      <trkpt lat="42.72116" lon="0.01648">
        <ele>2058.94</ele>
        <time>2017-03-17T09:34:14Z</time>
      </trkpt>
      <trkpt lat="42.72107" lon="0.01656">
        <ele>2061.56</ele>
        <time>2017-03-17T09:34:31Z</time>
      </trkpt>
      <trkpt lat="42.72097" lon="0.01666">
        <ele>2064.71</ele>
        <time>2017-03-17T09:34:49Z</time>
      </trkpt>
      <trkpt lat="42.72092" lon="0.0168">
        <ele>2067.39</ele>
        <time>2017-03-17T09:35:06Z</time>
      </trkpt>
      <trkpt lat="42.72093" lon="0.01692">
        <ele>2069.66</ele>
        <time>2017-03-17T09:35:22Z</time>
      </trkpt>
      <trkpt lat="42.72084" lon="0.01701">
        <ele>2072.44</ele>
        <time>2017-03-17T09:35:39Z</time>
      </trkpt>
      <trkpt lat="42.72075" lon="0.01713">
        <ele>2075.41</ele>
        <time>2017-03-17T09:35:58Z</time>
      </trkpt>
      <trkpt lat="42.7207" lon="0.01721">
        <ele>2077.87</ele>
        <time>2017-03-17T09:36:16Z</time>
      </trkpt>
      <trkpt lat="42.72068" lon="0.0173">
        <ele>2079.15</ele>
        <time>2017-03-17T09:36:36Z</time>
      </trkpt>
      <trkpt lat="42.72065" lon="0.01738">
        <ele>2079.63</ele>
        <time>2017-03-17T09:37:06Z</time>
      </trkpt>
      <trkpt lat="42.72062" lon="0.01763">
        <ele>2081.47</ele>
        <time>2017-03-17T09:37:28Z</time>
      </trkpt>
      <trkpt lat="42.72058" lon="0.01779">
        <ele>2083.87</ele>
        <time>2017-03-17T09:37:43Z</time>
      </trkpt>
      <trkpt lat="42.72056" lon="0.01792">
        <ele>2085.3</ele>
        <time>2017-03-17T09:38:02Z</time>
      </trkpt>
      <trkpt lat="42.72055" lon="0.01803">
        <ele>2085.9</ele>
        <time>2017-03-17T09:38:25Z</time>
      </trkpt>
      <trkpt lat="42.72056" lon="0.01826">
        <ele>2088.1</ele>
        <time>2017-03-17T09:38:45Z</time>
      </trkpt>
      <trkpt lat="42.72058" lon="0.01848">
        <ele>2090.59</ele>
        <time>2017-03-17T09:39:03Z</time>
      </trkpt>
      <trkpt lat="42.72051" lon="0.01869">
        <ele>2092.09</ele>
        <time>2017-03-17T09:39:21Z</time>
      </trkpt>
      <trkpt lat="42.72046" lon="0.01888">
        <ele>2094.49</ele>
        <time>2017-03-17T09:39:40Z</time>
      </trkpt>
      <trkpt lat="42.72042" lon="0.01906">
        <ele>2096.86</ele>
        <time>2017-03-17T09:39:57Z</time>
      </trkpt>
      <trkpt lat="42.72035" lon="0.01923">
        <ele>2098.36</ele>
        <time>2017-03-17T09:40:14Z</time>
      </trkpt>
      <trkpt lat="42.72026" lon="0.01942">
        <ele>2100.16</ele>
        <time>2017-03-17T09:40:34Z</time>
      </trkpt>
      <trkpt lat="42.72019" lon="0.01961">
        <ele>2103.21</ele>
        <time>2017-03-17T09:40:56Z</time>
      </trkpt>
      <trkpt lat="42.72021" lon="0.01971">
        <ele>2105.85</ele>
        <time>2017-03-17T09:41:09Z</time>
      </trkpt>
      <trkpt lat="42.72021" lon="0.01981">
        <ele>2108.47</ele>
        <time>2017-03-17T09:41:23Z</time>
      </trkpt>
      <trkpt lat="42.72026" lon="0.01991">
        <ele>2111.69</ele>
        <time>2017-03-17T09:41:37Z</time>
      </trkpt>
      <trkpt lat="42.72029" lon="0.02006">
        <ele>2114.77</ele>
        <time>2017-03-17T09:41:55Z</time>
      </trkpt>
      <trkpt lat="42.72031" lon="0.02024">
        <ele>2117.58</ele>
        <time>2017-03-17T09:42:14Z</time>
      </trkpt>
      <trkpt lat="42.72029" lon="0.02042">
        <ele>2120.71</ele>
        <time>2017-03-17T09:42:33Z</time>
      </trkpt>
      <trkpt lat="42.72025" lon="0.02055">
        <ele>2123.22</ele>
        <time>2017-03-17T09:42:49Z</time>
      </trkpt>
      <trkpt lat="42.7202" lon="0.0207">
        <ele>2126.25</ele>
        <time>2017-03-17T09:43:08Z</time>
      </trkpt>
      <trkpt lat="42.72016" lon="0.02085">
        <ele>2129.36</ele>
        <time>2017-03-17T09:43:26Z</time>
      </trkpt>
      <trkpt lat="42.7201" lon="0.02102">
        <ele>2132.24</ele>
        <time>2017-03-17T09:43:45Z</time>
      </trkpt>
      <trkpt lat="42.72008" lon="0.02119">
        <ele>2134.68</ele>
        <time>2017-03-17T09:44:04Z</time>
      </trkpt>
      <trkpt lat="42.72011" lon="0.02137">
        <ele>2137.84</ele>
        <time>2017-03-17T09:44:25Z</time>
      </trkpt>
      <trkpt lat="42.72012" lon="0.02141">
        <ele>2138.61</ele>
        <time>2017-03-17T09:44:30Z</time>
      </trkpt>
      <trkpt lat="42.72012" lon="0.02157">
        <ele>2139.07</ele>
        <time>2017-03-17T09:44:45Z</time>
      </trkpt>
      <trkpt lat="42.7201" lon="0.02173">
        <ele>2140.63</ele>
        <time>2017-03-17T09:45:03Z</time>
      </trkpt>
      <trkpt lat="42.72007" lon="0.02185">
        <ele>2142.09</ele>
        <time>2017-03-17T09:45:17Z</time>
      </trkpt>
      <trkpt lat="42.72005" lon="0.02207">
        <ele>2145.18</ele>
        <time>2017-03-17T09:45:38Z</time>
      </trkpt>
      <trkpt lat="42.72001" lon="0.02221">
        <ele>2146.83</ele>
        <time>2017-03-17T09:45:54Z</time>
      </trkpt>
      <trkpt lat="42.71996" lon="0.02243">
        <ele>2149.83</ele>
        <time>2017-03-17T09:46:17Z</time>
      </trkpt>
      <trkpt lat="42.71997" lon="0.02246">
        <ele>2151.3</ele>
        <time>2017-03-17T09:46:39Z</time>
      </trkpt>
      <trkpt lat="42.71994" lon="0.0226">
        <ele>2152</ele>
        <time>2017-03-17T09:47:06Z</time>
      </trkpt>
      <trkpt lat="42.71994" lon="0.02283">
        <ele>2152.57</ele>
        <time>2017-03-17T09:47:26Z</time>
      </trkpt>
      <trkpt lat="42.71994" lon="0.02301">
        <ele>2153.94</ele>
        <time>2017-03-17T09:47:43Z</time>
      </trkpt>
      <trkpt lat="42.7199" lon="0.02315">
        <ele>2157.08</ele>
        <time>2017-03-17T09:47:59Z</time>
      </trkpt>
      <trkpt lat="42.71988" lon="0.02321">
        <ele>2159.62</ele>
        <time>2017-03-17T09:48:15Z</time>
      </trkpt>
      <trkpt lat="42.71988" lon="0.02321">
        <ele>2159.76</ele>
        <time>2017-03-17T09:48:35Z</time>
      </trkpt>
      <trkpt lat="42.71987" lon="0.02321">
        <ele>2160.11</ele>
        <time>2017-03-17T09:48:54Z</time>
      </trkpt>
      <trkpt lat="42.71989" lon="0.02323">
        <ele>2160.33</ele>
        <time>2017-03-17T09:49:08Z</time>
      </trkpt>
      <trkpt lat="42.71992" lon="0.02323">
        <ele>2162.47</ele>
        <time>2017-03-17T09:49:21Z</time>
      </trkpt>
      <trkpt lat="42.71995" lon="0.02327">
        <ele>2164.44</ele>
        <time>2017-03-17T09:49:36Z</time>
      </trkpt>
      <trkpt lat="42.71997" lon="0.02328">
        <ele>2166.86</ele>
        <time>2017-03-17T09:49:49Z</time>
      </trkpt>
      <trkpt lat="42.72" lon="0.02331">
        <ele>2168.58</ele>
        <time>2017-03-17T09:50:04Z</time>
      </trkpt>
      <trkpt lat="42.72001" lon="0.02334">
        <ele>2171</ele>
        <time>2017-03-17T09:50:20Z</time>
      </trkpt>
      <trkpt lat="42.72" lon="0.02338">
        <ele>2173.21</ele>
        <time>2017-03-17T09:50:34Z</time>
      </trkpt>
      <trkpt lat="42.72001" lon="0.02346">
        <ele>2175.95</ele>
        <time>2017-03-17T09:50:49Z</time>
      </trkpt>
      <trkpt lat="42.71998" lon="0.02353">
        <ele>2177.98</ele>
        <time>2017-03-17T09:51:05Z</time>
      </trkpt>
      <trkpt lat="42.71999" lon="0.02355">
        <ele>2179.32</ele>
        <time>2017-03-17T09:51:19Z</time>
      </trkpt>
      <trkpt lat="42.71999" lon="0.02355">
        <ele>2179.44</ele>
        <time>2017-03-17T09:51:37Z</time>
      </trkpt>
      <trkpt lat="42.71999" lon="0.02354">
        <ele>2179.67</ele>
        <time>2017-03-17T09:51:59Z</time>
      </trkpt>
      <trkpt lat="42.71999" lon="0.02366">
        <ele>2180.88</ele>
        <time>2017-03-17T09:52:14Z</time>
      </trkpt>
      <trkpt lat="42.72005" lon="0.02374">
        <ele>2183.64</ele>
        <time>2017-03-17T09:52:30Z</time>
      </trkpt>
      <trkpt lat="42.72001" lon="0.02394">
        <ele>2186.35</ele>
        <time>2017-03-17T09:52:50Z</time>
      </trkpt>
      <trkpt lat="42.71997" lon="0.02416">
        <ele>2188.62</ele>
        <time>2017-03-17T09:53:13Z</time>
      </trkpt>
      <trkpt lat="42.71992" lon="0.02433">
        <ele>2190.99</ele>
        <time>2017-03-17T09:53:32Z</time>
      </trkpt>
      <trkpt lat="42.71986" lon="0.02449">
        <ele>2193.27</ele>
        <time>2017-03-17T09:53:52Z</time>
      </trkpt>
      <trkpt lat="42.7198" lon="0.02463">
        <ele>2196.01</ele>
        <time>2017-03-17T09:54:11Z</time>
      </trkpt>
      <trkpt lat="42.71974" lon="0.02471">
        <ele>2198.31</ele>
        <time>2017-03-17T09:54:27Z</time>
      </trkpt>
      <trkpt lat="42.71962" lon="0.02478">
        <ele>2201.35</ele>
        <time>2017-03-17T09:54:46Z</time>
      </trkpt>
      <trkpt lat="42.71956" lon="0.02492">
        <ele>2204.78</ele>
        <time>2017-03-17T09:55:07Z</time>
      </trkpt>
      <trkpt lat="42.71956" lon="0.02497">
        <ele>2206.61</ele>
        <time>2017-03-17T09:55:27Z</time>
      </trkpt>
      <trkpt lat="42.71966" lon="0.025">
        <ele>2208.78</ele>
        <time>2017-03-17T09:55:42Z</time>
      </trkpt>
      <trkpt lat="42.71963" lon="0.02508">
        <ele>2211.5</ele>
        <time>2017-03-17T09:55:58Z</time>
      </trkpt>
      <trkpt lat="42.71959" lon="0.02518">
        <ele>2214.68</ele>
        <time>2017-03-17T09:56:13Z</time>
      </trkpt>
      <trkpt lat="42.71958" lon="0.02521">
        <ele>2216.67</ele>
        <time>2017-03-17T09:56:33Z</time>
      </trkpt>
      <trkpt lat="42.71957" lon="0.02527">
        <ele>2217.45</ele>
        <time>2017-03-17T09:56:55Z</time>
      </trkpt>
      <trkpt lat="42.71951" lon="0.02537">
        <ele>2220.5</ele>
        <time>2017-03-17T09:57:14Z</time>
      </trkpt>
      <trkpt lat="42.71947" lon="0.02545">
        <ele>2222.53</ele>
        <time>2017-03-17T09:57:30Z</time>
      </trkpt>
      <trkpt lat="42.71942" lon="0.02552">
        <ele>2225.22</ele>
        <time>2017-03-17T09:57:45Z</time>
      </trkpt>
      <trkpt lat="42.71935" lon="0.02562">
        <ele>2228.05</ele>
        <time>2017-03-17T09:58:04Z</time>
      </trkpt>
      <trkpt lat="42.71931" lon="0.0257">
        <ele>2230.6</ele>
        <time>2017-03-17T09:58:20Z</time>
      </trkpt>
      <trkpt lat="42.71925" lon="0.02577">
        <ele>2233.04</ele>
        <time>2017-03-17T09:58:42Z</time>
      </trkpt>
      <trkpt lat="42.7192" lon="0.02588">
        <ele>2236.11</ele>
        <time>2017-03-17T09:58:57Z</time>
      </trkpt>
      <trkpt lat="42.71915" lon="0.02598">
        <ele>2239.27</ele>
        <time>2017-03-17T09:59:11Z</time>
      </trkpt>
      <trkpt lat="42.71912" lon="0.02602">
        <ele>2240.94</ele>
        <time>2017-03-17T09:59:30Z</time>
      </trkpt>
      <trkpt lat="42.71905" lon="0.02611">
        <ele>2243.49</ele>
        <time>2017-03-17T09:59:46Z</time>
      </trkpt>
      <trkpt lat="42.71896" lon="0.02623">
        <ele>2246.12</ele>
        <time>2017-03-17T10:00:04Z</time>
      </trkpt>
      <trkpt lat="42.71886" lon="0.02629">
        <ele>2247.25</ele>
        <time>2017-03-17T10:00:20Z</time>
      </trkpt>
      <trkpt lat="42.71876" lon="0.02636">
        <ele>2249.75</ele>
        <time>2017-03-17T10:00:37Z</time>
      </trkpt>
      <trkpt lat="42.71867" lon="0.02644">
        <ele>2251.81</ele>
        <time>2017-03-17T10:00:55Z</time>
      </trkpt>
      <trkpt lat="42.71857" lon="0.02651">
        <ele>2254.29</ele>
        <time>2017-03-17T10:01:12Z</time>
      </trkpt>
      <trkpt lat="42.71847" lon="0.02656">
        <ele>2256.12</ele>
        <time>2017-03-17T10:01:30Z</time>
      </trkpt>
      <trkpt lat="42.71839" lon="0.02658">
        <ele>2257.16</ele>
        <time>2017-03-17T10:01:57Z</time>
      </trkpt>
      <trkpt lat="42.71828" lon="0.02663">
        <ele>2258.83</ele>
        <time>2017-03-17T10:02:15Z</time>
      </trkpt>
      <trkpt lat="42.71823" lon="0.02665">
        <ele>2260.42</ele>
        <time>2017-03-17T10:02:35Z</time>
      </trkpt>
      <trkpt lat="42.71812" lon="0.02669">
        <ele>2262.5</ele>
        <time>2017-03-17T10:02:53Z</time>
      </trkpt>
      <trkpt lat="42.71808" lon="0.02671">
        <ele>2265.11</ele>
        <time>2017-03-17T10:03:10Z</time>
      </trkpt>
      <trkpt lat="42.71804" lon="0.02673">
        <ele>2265.25</ele>
        <time>2017-03-17T10:03:43Z</time>
      </trkpt>
      <trkpt lat="42.71792" lon="0.02678">
        <ele>2267.01</ele>
        <time>2017-03-17T10:04:01Z</time>
      </trkpt>
      <trkpt lat="42.71781" lon="0.02682">
        <ele>2269.16</ele>
        <time>2017-03-17T10:04:19Z</time>
      </trkpt>
      <trkpt lat="42.71769" lon="0.02687">
        <ele>2271.92</ele>
        <time>2017-03-17T10:04:40Z</time>
      </trkpt>
      <trkpt lat="42.71768" lon="0.02687">
        <ele>2273.03</ele>
        <time>2017-03-17T10:05:00Z</time>
      </trkpt>
      <trkpt lat="42.71759" lon="0.0269">
        <ele>2273.67</ele>
        <time>2017-03-17T10:05:23Z</time>
      </trkpt>
      <trkpt lat="42.71758" lon="0.0269">
        <ele>2274.13</ele>
        <time>2017-03-17T10:05:48Z</time>
      </trkpt>
      <trkpt lat="42.71749" lon="0.02693">
        <ele>2275.39</ele>
        <time>2017-03-17T10:06:04Z</time>
      </trkpt>
      <trkpt lat="42.71738" lon="0.02699">
        <ele>2277.6</ele>
        <time>2017-03-17T10:06:23Z</time>
      </trkpt>
      <trkpt lat="42.71727" lon="0.02705">
        <ele>2280.33</ele>
        <time>2017-03-17T10:06:43Z</time>
      </trkpt>
      <trkpt lat="42.71714" lon="0.02708">
        <ele>2282.9</ele>
        <time>2017-03-17T10:07:02Z</time>
      </trkpt>
      <trkpt lat="42.71709" lon="0.02709">
        <ele>2284.61</ele>
        <time>2017-03-17T10:07:19Z</time>
      </trkpt>
      <trkpt lat="42.71709" lon="0.02709">
        <ele>2283.49</ele>
        <time>2017-03-17T10:07:43Z</time>
      </trkpt>
      <trkpt lat="42.71709" lon="0.02709">
        <ele>2283.09</ele>
        <time>2017-03-17T10:08:13Z</time>
      </trkpt>
      <trkpt lat="42.71709" lon="0.02707">
        <ele>2283.36</ele>
        <time>2017-03-17T10:09:16Z</time>
      </trkpt>
      <trkpt lat="42.71709" lon="0.02709">
        <ele>2284.32</ele>
        <time>2017-03-17T10:09:42Z</time>
      </trkpt>
      <trkpt lat="42.7171" lon="0.0271">
        <ele>2283.78</ele>
        <time>2017-03-17T10:10:19Z</time>
      </trkpt>
      <trkpt lat="42.7171" lon="0.02712">
        <ele>2283.77</ele>
        <time>2017-03-17T10:10:57Z</time>
      </trkpt>
      <trkpt lat="42.71712" lon="0.02712">
        <ele>2283.52</ele>
        <time>2017-03-17T10:11:29Z</time>
      </trkpt>
      <trkpt lat="42.7171" lon="0.02713">
        <ele>2283.33</ele>
        <time>2017-03-17T10:12:01Z</time>
      </trkpt>
      <trkpt lat="42.7171" lon="0.02712">
        <ele>2283.09</ele>
        <time>2017-03-17T10:12:43Z</time>
      </trkpt>
      <trkpt lat="42.71708" lon="0.0271">
        <ele>2283.19</ele>
        <time>2017-03-17T10:13:53Z</time>
      </trkpt>
      <trkpt lat="42.71708" lon="0.02709">
        <ele>2282.94</ele>
        <time>2017-03-17T10:15:11Z</time>
      </trkpt>
      <trkpt lat="42.71708" lon="0.02709">
        <ele>2282.72</ele>
        <time>2017-03-17T10:15:42Z</time>
      </trkpt>
      <trkpt lat="42.71706" lon="0.02709">
        <ele>2283</ele>
        <time>2017-03-17T10:16:24Z</time>
      </trkpt>
      <trkpt lat="42.71706" lon="0.02708">
        <ele>2282.34</ele>
        <time>2017-03-17T10:16:48Z</time>
      </trkpt>
      <trkpt lat="42.71705" lon="0.02712">
        <ele>2283.04</ele>
        <time>2017-03-17T10:17:20Z</time>
      </trkpt>
      <trkpt lat="42.71708" lon="0.02714">
        <ele>2282.4</ele>
        <time>2017-03-17T10:17:45Z</time>
      </trkpt>
      <trkpt lat="42.71709" lon="0.02714">
        <ele>2282.71</ele>
        <time>2017-03-17T10:18:25Z</time>
      </trkpt>
      <trkpt lat="42.71709" lon="0.02714">
        <ele>2282.39</ele>
        <time>2017-03-17T10:19:11Z</time>
      </trkpt>
      <trkpt lat="42.7171" lon="0.02712">
        <ele>2283.81</ele>
        <time>2017-03-17T10:19:25Z</time>
      </trkpt>
      <trkpt lat="42.71708" lon="0.02711">
        <ele>2284.35</ele>
        <time>2017-03-17T10:19:43Z</time>
      </trkpt>
      <trkpt lat="42.71709" lon="0.02722">
        <ele>2287.11</ele>
        <time>2017-03-17T10:20:04Z</time>
      </trkpt>
      <trkpt lat="42.71709" lon="0.02722">
        <ele>2288.58</ele>
        <time>2017-03-17T10:20:22Z</time>
      </trkpt>
      <trkpt lat="42.71708" lon="0.02723">
        <ele>2288.89</ele>
        <time>2017-03-17T10:20:53Z</time>
      </trkpt>
      <trkpt lat="42.71708" lon="0.02723">
        <ele>2288.81</ele>
        <time>2017-03-17T10:21:29Z</time>
      </trkpt>
      <trkpt lat="42.71707" lon="0.02725">
        <ele>2288.8</ele>
        <time>2017-03-17T10:21:50Z</time>
      </trkpt>
      <trkpt lat="42.71704" lon="0.02727">
        <ele>2289.9</ele>
        <time>2017-03-17T10:22:12Z</time>
      </trkpt>
      <trkpt lat="42.717" lon="0.0273">
        <ele>2291.2</ele>
        <time>2017-03-17T10:22:28Z</time>
      </trkpt>
      <trkpt lat="42.71693" lon="0.02734">
        <ele>2294.14</ele>
        <time>2017-03-17T10:22:50Z</time>
      </trkpt>
      <trkpt lat="42.71689" lon="0.02735">
        <ele>2296.35</ele>
        <time>2017-03-17T10:23:06Z</time>
      </trkpt>
      <trkpt lat="42.71685" lon="0.02735">
        <ele>2297.52</ele>
        <time>2017-03-17T10:23:32Z</time>
      </trkpt>
      <trkpt lat="42.71679" lon="0.02737">
        <ele>2299.62</ele>
        <time>2017-03-17T10:23:50Z</time>
      </trkpt>
      <trkpt lat="42.71673" lon="0.0274">
        <ele>2302.62</ele>
        <time>2017-03-17T10:24:10Z</time>
      </trkpt>
      <trkpt lat="42.7167" lon="0.02742">
        <ele>2304.48</ele>
        <time>2017-03-17T10:24:28Z</time>
      </trkpt>
      <trkpt lat="42.71668" lon="0.02744">
        <ele>2306.49</ele>
        <time>2017-03-17T10:24:46Z</time>
      </trkpt>
      <trkpt lat="42.71664" lon="0.02746">
        <ele>2308.07</ele>
        <time>2017-03-17T10:25:03Z</time>
      </trkpt>
      <trkpt lat="42.71663" lon="0.02747">
        <ele>2309.21</ele>
        <time>2017-03-17T10:25:18Z</time>
      </trkpt>
      <trkpt lat="42.71664" lon="0.02753">
        <ele>2311.21</ele>
        <time>2017-03-17T10:25:34Z</time>
      </trkpt>
      <trkpt lat="42.71664" lon="0.02757">
        <ele>2312.63</ele>
        <time>2017-03-17T10:25:56Z</time>
      </trkpt>
      <trkpt lat="42.71666" lon="0.02763">
        <ele>2314.35</ele>
        <time>2017-03-17T10:26:14Z</time>
      </trkpt>
      <trkpt lat="42.71667" lon="0.02766">
        <ele>2315.98</ele>
        <time>2017-03-17T10:26:32Z</time>
      </trkpt>
      <trkpt lat="42.71668" lon="0.02774">
        <ele>2318.25</ele>
        <time>2017-03-17T10:26:52Z</time>
      </trkpt>
      <trkpt lat="42.71668" lon="0.02777">
        <ele>2320.34</ele>
        <time>2017-03-17T10:27:11Z</time>
      </trkpt>
      <trkpt lat="42.71669" lon="0.02781">
        <ele>2322.39</ele>
        <time>2017-03-17T10:27:29Z</time>
      </trkpt>
      <trkpt lat="42.71669" lon="0.02783">
        <ele>2323.54</ele>
        <time>2017-03-17T10:27:52Z</time>
      </trkpt>
      <trkpt lat="42.71667" lon="0.02785">
        <ele>2325.39</ele>
        <time>2017-03-17T10:28:07Z</time>
      </trkpt>
      <trkpt lat="42.71666" lon="0.02787">
        <ele>2327.02</ele>
        <time>2017-03-17T10:28:22Z</time>
      </trkpt>
      <trkpt lat="42.71663" lon="0.02789">
        <ele>2329.42</ele>
        <time>2017-03-17T10:28:47Z</time>
      </trkpt>
      <trkpt lat="42.7166" lon="0.02791">
        <ele>2331.32</ele>
        <time>2017-03-17T10:29:11Z</time>
      </trkpt>
      <trkpt lat="42.71658" lon="0.02793">
        <ele>2333.29</ele>
        <time>2017-03-17T10:29:29Z</time>
      </trkpt>
      <trkpt lat="42.71657" lon="0.02794">
        <ele>2334.55</ele>
        <time>2017-03-17T10:29:49Z</time>
      </trkpt>
      <trkpt lat="42.71654" lon="0.02796">
        <ele>2336.97</ele>
        <time>2017-03-17T10:30:08Z</time>
      </trkpt>
      <trkpt lat="42.71652" lon="0.02798">
        <ele>2338.8</ele>
        <time>2017-03-17T10:30:28Z</time>
      </trkpt>
      <trkpt lat="42.7165" lon="0.02798">
        <ele>2339.77</ele>
        <time>2017-03-17T10:30:55Z</time>
      </trkpt>
      <trkpt lat="42.71647" lon="0.028">
        <ele>2341.66</ele>
        <time>2017-03-17T10:31:10Z</time>
      </trkpt>
      <trkpt lat="42.71644" lon="0.02801">
        <ele>2343.66</ele>
        <time>2017-03-17T10:31:24Z</time>
      </trkpt>
      <trkpt lat="42.71643" lon="0.02802">
        <ele>2345.64</ele>
        <time>2017-03-17T10:31:39Z</time>
      </trkpt>
      <trkpt lat="42.7164" lon="0.02804">
        <ele>2346.1</ele>
        <time>2017-03-17T10:31:59Z</time>
      </trkpt>
      <trkpt lat="42.71638" lon="0.02805">
        <ele>2348.35</ele>
        <time>2017-03-17T10:32:15Z</time>
      </trkpt>
      <trkpt lat="42.71635" lon="0.02807">
        <ele>2349.72</ele>
        <time>2017-03-17T10:32:41Z</time>
      </trkpt>
      <trkpt lat="42.71636" lon="0.02809">
        <ele>2350.61</ele>
        <time>2017-03-17T10:32:58Z</time>
      </trkpt>
      <trkpt lat="42.71636" lon="0.02812">
        <ele>2351.9</ele>
        <time>2017-03-17T10:33:17Z</time>
      </trkpt>
      <trkpt lat="42.71637" lon="0.02816">
        <ele>2353.13</ele>
        <time>2017-03-17T10:33:41Z</time>
      </trkpt>
      <trkpt lat="42.71637" lon="0.0282">
        <ele>2355.15</ele>
        <time>2017-03-17T10:33:58Z</time>
      </trkpt>
      <trkpt lat="42.71636" lon="0.0282">
        <ele>2355.81</ele>
        <time>2017-03-17T10:34:14Z</time>
      </trkpt>
      <trkpt lat="42.71634" lon="0.02821">
        <ele>2357.54</ele>
        <time>2017-03-17T10:34:29Z</time>
      </trkpt>
      <trkpt lat="42.71633" lon="0.02821">
        <ele>2358.53</ele>
        <time>2017-03-17T10:34:49Z</time>
      </trkpt>
      <trkpt lat="42.71631" lon="0.02822">
        <ele>2359.23</ele>
        <time>2017-03-17T10:35:04Z</time>
      </trkpt>
      <trkpt lat="42.7163" lon="0.02825">
        <ele>2359.78</ele>
        <time>2017-03-17T10:35:17Z</time>
      </trkpt>
      <trkpt lat="42.71629" lon="0.02826">
        <ele>2361.02</ele>
        <time>2017-03-17T10:35:36Z</time>
      </trkpt>
      <trkpt lat="42.71629" lon="0.02827">
        <ele>2360.94</ele>
        <time>2017-03-17T10:35:56Z</time>
      </trkpt>
      <trkpt lat="42.71628" lon="0.02829">
        <ele>2361.94</ele>
        <time>2017-03-17T10:36:20Z</time>
      </trkpt>
      <trkpt lat="42.71626" lon="0.0283">
        <ele>2364.08</ele>
        <time>2017-03-17T10:36:35Z</time>
      </trkpt>
      <trkpt lat="42.71626" lon="0.02832">
        <ele>2364.9</ele>
        <time>2017-03-17T10:36:50Z</time>
      </trkpt>
      <trkpt lat="42.71624" lon="0.02832">
        <ele>2366.33</ele>
        <time>2017-03-17T10:37:05Z</time>
      </trkpt>
      <trkpt lat="42.71622" lon="0.0283">
        <ele>2367.19</ele>
        <time>2017-03-17T10:37:20Z</time>
      </trkpt>
      <trkpt lat="42.7162" lon="0.02832">
        <ele>2368.02</ele>
        <time>2017-03-17T10:37:37Z</time>
      </trkpt>
      <trkpt lat="42.71617" lon="0.02831">
        <ele>2369.51</ele>
        <time>2017-03-17T10:37:55Z</time>
      </trkpt>
      <trkpt lat="42.71615" lon="0.0283">
        <ele>2370.35</ele>
        <time>2017-03-17T10:38:09Z</time>
      </trkpt>
      <trkpt lat="42.71614" lon="0.02828">
        <ele>2371.28</ele>
        <time>2017-03-17T10:38:25Z</time>
      </trkpt>
      <trkpt lat="42.71611" lon="0.02827">
        <ele>2372.3</ele>
        <time>2017-03-17T10:38:46Z</time>
      </trkpt>
      <trkpt lat="42.71604" lon="0.02826">
        <ele>2374.39</ele>
        <time>2017-03-17T10:39:04Z</time>
      </trkpt>
      <trkpt lat="42.716" lon="0.02827">
        <ele>2376.46</ele>
        <time>2017-03-17T10:39:20Z</time>
      </trkpt>
      <trkpt lat="42.71598" lon="0.02827">
        <ele>2378.67</ele>
        <time>2017-03-17T10:39:41Z</time>
      </trkpt>
      <trkpt lat="42.71595" lon="0.02828">
        <ele>2380.37</ele>
        <time>2017-03-17T10:39:59Z</time>
      </trkpt>
      <trkpt lat="42.71592" lon="0.02828">
        <ele>2381.7</ele>
        <time>2017-03-17T10:40:12Z</time>
      </trkpt>
      <trkpt lat="42.7159" lon="0.02828">
        <ele>2382.75</ele>
        <time>2017-03-17T10:40:26Z</time>
      </trkpt>
      <trkpt lat="42.71589" lon="0.0283">
        <ele>2383.21</ele>
        <time>2017-03-17T10:40:42Z</time>
      </trkpt>
      <trkpt lat="42.7159" lon="0.02835">
        <ele>2384.5</ele>
        <time>2017-03-17T10:40:56Z</time>
      </trkpt>
      <trkpt lat="42.71586" lon="0.02835">
        <ele>2385.32</ele>
        <time>2017-03-17T10:41:14Z</time>
      </trkpt>
      <trkpt lat="42.71583" lon="0.02836">
        <ele>2387.35</ele>
        <time>2017-03-17T10:41:28Z</time>
      </trkpt>
      <trkpt lat="42.71583" lon="0.02832">
        <ele>2387.99</ele>
        <time>2017-03-17T10:41:42Z</time>
      </trkpt>
      <trkpt lat="42.71582" lon="0.0283">
        <ele>2388.58</ele>
        <time>2017-03-17T10:41:57Z</time>
      </trkpt>
      <trkpt lat="42.71583" lon="0.02829">
        <ele>2389.54</ele>
        <time>2017-03-17T10:42:13Z</time>
      </trkpt>
      <trkpt lat="42.71583" lon="0.02828">
        <ele>2388.22</ele>
        <time>2017-03-17T10:42:36Z</time>
      </trkpt>
      <trkpt lat="42.71581" lon="0.02829">
        <ele>2388.13</ele>
        <time>2017-03-17T10:43:38Z</time>
      </trkpt>
      <trkpt lat="42.71582" lon="0.0283">
        <ele>2388.35</ele>
        <time>2017-03-17T10:45:01Z</time>
      </trkpt>
      <trkpt lat="42.71582" lon="0.0283">
        <ele>2388.13</ele>
        <time>2017-03-17T10:46:11Z</time>
      </trkpt>
      <trkpt lat="42.71583" lon="0.0283">
        <ele>2388.32</ele>
        <time>2017-03-17T10:47:25Z</time>
      </trkpt>
      <trkpt lat="42.71583" lon="0.0283">
        <ele>2388.53</ele>
        <time>2017-03-17T10:48:33Z</time>
      </trkpt>
      <trkpt lat="42.71582" lon="0.02831">
        <ele>2388.65</ele>
        <time>2017-03-17T10:50:31Z</time>
      </trkpt>
      <trkpt lat="42.71581" lon="0.02831">
        <ele>2388.64</ele>
        <time>2017-03-17T10:52:18Z</time>
      </trkpt>
      <trkpt lat="42.71581" lon="0.02829">
        <ele>2389.32</ele>
        <time>2017-03-17T10:52:37Z</time>
      </trkpt>
      <trkpt lat="42.71581" lon="0.02829">
        <ele>2388.75</ele>
        <time>2017-03-17T10:53:00Z</time>
      </trkpt>
      <trkpt lat="42.71582" lon="0.02829">
        <ele>2389.07</ele>
        <time>2017-03-17T10:54:32Z</time>
      </trkpt>
      <trkpt lat="42.71582" lon="0.0283">
        <ele>2388.75</ele>
        <time>2017-03-17T10:55:08Z</time>
      </trkpt>
      <trkpt lat="42.71581" lon="0.02829">
        <ele>2388.85</ele>
        <time>2017-03-17T10:56:07Z</time>
      </trkpt>
      <trkpt lat="42.71583" lon="0.02828">
        <ele>2389.11</ele>
        <time>2017-03-17T10:56:53Z</time>
      </trkpt>
      <trkpt lat="42.71582" lon="0.02829">
        <ele>2388.84</ele>
        <time>2017-03-17T10:57:29Z</time>
      </trkpt>
      <trkpt lat="42.71581" lon="0.02831">
        <ele>2388.92</ele>
        <time>2017-03-17T10:58:29Z</time>
      </trkpt>
      <trkpt lat="42.71581" lon="0.0283">
        <ele>2388.76</ele>
        <time>2017-03-17T10:59:45Z</time>
      </trkpt>
      <trkpt lat="42.71581" lon="0.02833">
        <ele>2389.27</ele>
        <time>2017-03-17T11:01:11Z</time>
      </trkpt>
      <trkpt lat="42.71582" lon="0.02831">
        <ele>2388.74</ele>
        <time>2017-03-17T11:02:17Z</time>
      </trkpt>
      <trkpt lat="42.71582" lon="0.02829">
        <ele>2389.04</ele>
        <time>2017-03-17T11:03:49Z</time>
      </trkpt>
      <trkpt lat="42.71583" lon="0.02832">
        <ele>2389.18</ele>
        <time>2017-03-17T11:04:57Z</time>
      </trkpt>
      <trkpt lat="42.71584" lon="0.02831">
        <ele>2388.42</ele>
        <time>2017-03-17T11:05:53Z</time>
      </trkpt>
      <trkpt lat="42.71583" lon="0.02829">
        <ele>2388.54</ele>
        <time>2017-03-17T11:07:18Z</time>
      </trkpt>
      <trkpt lat="42.71583" lon="0.02831">
        <ele>2389.38</ele>
        <time>2017-03-17T11:07:30Z</time>
      </trkpt>
      <trkpt lat="42.71582" lon="0.02833">
        <ele>2389.53</ele>
        <time>2017-03-17T11:07:56Z</time>
      </trkpt>
      <trkpt lat="42.71582" lon="0.02829">
        <ele>2389.47</ele>
        <time>2017-03-17T11:08:24Z</time>
      </trkpt>
      <trkpt lat="42.71583" lon="0.02829">
        <ele>2389.14</ele>
        <time>2017-03-17T11:08:56Z</time>
      </trkpt>
      <trkpt lat="42.71581" lon="0.02829">
        <ele>2388.83</ele>
        <time>2017-03-17T11:09:24Z</time>
      </trkpt>
      <trkpt lat="42.71582" lon="0.02831">
        <ele>2389.04</ele>
        <time>2017-03-17T11:09:47Z</time>
      </trkpt>
      <trkpt lat="42.71584" lon="0.0283">
        <ele>2388.88</ele>
        <time>2017-03-17T11:10:15Z</time>
      </trkpt>
      <trkpt lat="42.71585" lon="0.0283">
        <ele>2388.38</ele>
        <time>2017-03-17T11:10:42Z</time>
      </trkpt>
      <trkpt lat="42.71585" lon="0.02828">
        <ele>2388.54</ele>
        <time>2017-03-17T11:11:15Z</time>
      </trkpt>
      <trkpt lat="42.71584" lon="0.02829">
        <ele>2388.52</ele>
        <time>2017-03-17T11:11:48Z</time>
      </trkpt>
      <trkpt lat="42.71584" lon="0.02831">
        <ele>2389.14</ele>
        <time>2017-03-17T11:12:31Z</time>
      </trkpt>
      <trkpt lat="42.71584" lon="0.02833">
        <ele>2388.91</ele>
        <time>2017-03-17T11:12:55Z</time>
      </trkpt>
      <trkpt lat="42.71584" lon="0.02832">
        <ele>2389.08</ele>
        <time>2017-03-17T11:13:22Z</time>
      </trkpt>
      <trkpt lat="42.71583" lon="0.02831">
        <ele>2389.33</ele>
        <time>2017-03-17T11:13:45Z</time>
      </trkpt>
      <trkpt lat="42.71583" lon="0.0283">
        <ele>2388.94</ele>
        <time>2017-03-17T11:14:16Z</time>
      </trkpt>
      <trkpt lat="42.71584" lon="0.02829">
        <ele>2388.88</ele>
        <time>2017-03-17T11:14:41Z</time>
      </trkpt>
      <trkpt lat="42.71582" lon="0.0283">
        <ele>2388.77</ele>
        <time>2017-03-17T11:15:13Z</time>
      </trkpt>
      <trkpt lat="42.71584" lon="0.02831">
        <ele>2388.61</ele>
        <time>2017-03-17T11:15:35Z</time>
      </trkpt>
      <trkpt lat="42.71585" lon="0.02831">
        <ele>2388.7</ele>
        <time>2017-03-17T11:15:55Z</time>
      </trkpt>
      <trkpt lat="42.71582" lon="0.0283">
        <ele>2388.98</ele>
        <time>2017-03-17T11:16:13Z</time>
      </trkpt>
      <trkpt lat="42.71582" lon="0.02832">
        <ele>2388.47</ele>
        <time>2017-03-17T11:16:35Z</time>
      </trkpt>
      <trkpt lat="42.71584" lon="0.02833">
        <ele>2388.89</ele>
        <time>2017-03-17T11:16:58Z</time>
      </trkpt>
      <trkpt lat="42.71585" lon="0.02832">
        <ele>2388.85</ele>
        <time>2017-03-17T11:17:18Z</time>
      </trkpt>
      <trkpt lat="42.71584" lon="0.02831">
        <ele>2388.54</ele>
        <time>2017-03-17T11:17:33Z</time>
      </trkpt>
      <trkpt lat="42.71585" lon="0.02828">
        <ele>2388.34</ele>
        <time>2017-03-17T11:18:01Z</time>
      </trkpt>
      <trkpt lat="42.71583" lon="0.02828">
        <ele>2388.58</ele>
        <time>2017-03-17T11:18:26Z</time>
      </trkpt>
      <trkpt lat="42.71583" lon="0.0283">
        <ele>2388.65</ele>
        <time>2017-03-17T11:18:52Z</time>
      </trkpt>
      <trkpt lat="42.71585" lon="0.02831">
        <ele>2388.87</ele>
        <time>2017-03-17T11:19:07Z</time>
      </trkpt>
      <trkpt lat="42.71587" lon="0.02832">
        <ele>2388.31</ele>
        <time>2017-03-17T11:19:33Z</time>
      </trkpt>
      <trkpt lat="42.71585" lon="0.02832">
        <ele>2388.75</ele>
        <time>2017-03-17T11:19:56Z</time>
      </trkpt>
      <trkpt lat="42.71586" lon="0.02834">
        <ele>2388.65</ele>
        <time>2017-03-17T11:20:23Z</time>
      </trkpt>
      <trkpt lat="42.71585" lon="0.02834">
        <ele>2389.18</ele>
        <time>2017-03-17T11:21:02Z</time>
      </trkpt>
      <trkpt lat="42.71586" lon="0.02834">
        <ele>2388.9</ele>
        <time>2017-03-17T11:21:31Z</time>
      </trkpt>
      <trkpt lat="42.71582" lon="0.02834">
        <ele>2388.64</ele>
        <time>2017-03-17T11:21:51Z</time>
      </trkpt>
      <trkpt lat="42.71583" lon="0.02834">
        <ele>2388.91</ele>
        <time>2017-03-17T11:22:30Z</time>
      </trkpt>
      <trkpt lat="42.71586" lon="0.02833">
        <ele>2388.82</ele>
        <time>2017-03-17T11:23:03Z</time>
      </trkpt>
      <trkpt lat="42.71584" lon="0.02832">
        <ele>2389.51</ele>
        <time>2017-03-17T11:23:39Z</time>
      </trkpt>
      <trkpt lat="42.71582" lon="0.02832">
        <ele>2389.95</ele>
        <time>2017-03-17T11:24:04Z</time>
      </trkpt>
      <trkpt lat="42.71583" lon="0.0283">
        <ele>2389.65</ele>
        <time>2017-03-17T11:24:25Z</time>
      </trkpt>
      <trkpt lat="42.71579" lon="0.02826">
        <ele>2389.72</ele>
        <time>2017-03-17T11:24:48Z</time>
      </trkpt>
      <trkpt lat="42.71579" lon="0.02826">
        <ele>2389.66</ele>
        <time>2017-03-17T11:24:52Z</time>
      </trkpt>
      <trkpt lat="42.71567" lon="0.02825">
        <ele>2389.2</ele>
        <time>2017-03-17T11:24:57Z</time>
      </trkpt>
      <trkpt lat="42.71562" lon="0.02847">
        <ele>2385.45</ele>
        <time>2017-03-17T11:25:05Z</time>
      </trkpt>
      <trkpt lat="42.7156" lon="0.02858">
        <ele>2381.9</ele>
        <time>2017-03-17T11:25:08Z</time>
      </trkpt>
      <trkpt lat="42.71559" lon="0.02869">
        <ele>2377.6</ele>
        <time>2017-03-17T11:25:11Z</time>
      </trkpt>
      <trkpt lat="42.71552" lon="0.02869">
        <ele>2374.11</ele>
        <time>2017-03-17T11:25:13Z</time>
      </trkpt>
      <trkpt lat="42.71547" lon="0.0287">
        <ele>2372.42</ele>
        <time>2017-03-17T11:25:14Z</time>
      </trkpt>
      <trkpt lat="42.71527" lon="0.02875">
        <ele>2366.67</ele>
        <time>2017-03-17T11:25:18Z</time>
      </trkpt>
      <trkpt lat="42.71518" lon="0.02878">
        <ele>2363.32</ele>
        <time>2017-03-17T11:25:21Z</time>
      </trkpt>
      <trkpt lat="42.71512" lon="0.02878">
        <ele>2360.11</ele>
        <time>2017-03-17T11:25:26Z</time>
      </trkpt>
      <trkpt lat="42.71512" lon="0.02875">
        <ele>2358.39</ele>
        <time>2017-03-17T11:25:45Z</time>
      </trkpt>
      <trkpt lat="42.71509" lon="0.02877">
        <ele>2358.39</ele>
        <time>2017-03-17T11:25:47Z</time>
      </trkpt>
      <trkpt lat="42.71481" lon="0.02891">
        <ele>2356.69</ele>
        <time>2017-03-17T11:25:55Z</time>
      </trkpt>
      <trkpt lat="42.71468" lon="0.02895">
        <ele>2355.59</ele>
        <time>2017-03-17T11:25:58Z</time>
      </trkpt>
      <trkpt lat="42.71441" lon="0.02906">
        <ele>2352.82</ele>
        <time>2017-03-17T11:26:04Z</time>
      </trkpt>
      <trkpt lat="42.71426" lon="0.02915">
        <ele>2350.24</ele>
        <time>2017-03-17T11:26:08Z</time>
      </trkpt>
      <trkpt lat="42.71397" lon="0.02928">
        <ele>2346.48</ele>
        <time>2017-03-17T11:26:17Z</time>
      </trkpt>
      <trkpt lat="42.71385" lon="0.02932">
        <ele>2344.99</ele>
        <time>2017-03-17T11:26:21Z</time>
      </trkpt>
      <trkpt lat="42.71363" lon="0.02947">
        <ele>2342.73</ele>
        <time>2017-03-17T11:26:26Z</time>
      </trkpt>
      <trkpt lat="42.71324" lon="0.02992">
        <ele>2338.71</ele>
        <time>2017-03-17T11:26:33Z</time>
      </trkpt>
      <trkpt lat="42.71314" lon="0.03004">
        <ele>2335.36</ele>
        <time>2017-03-17T11:26:37Z</time>
      </trkpt>
      <trkpt lat="42.71311" lon="0.03">
        <ele>2332.28</ele>
        <time>2017-03-17T11:26:47Z</time>
      </trkpt>
      <trkpt lat="42.71312" lon="0.03002">
        <ele>2331.75</ele>
        <time>2017-03-17T11:27:02Z</time>
      </trkpt>
      <trkpt lat="42.71344" lon="0.02985">
        <ele>2328.25</ele>
        <time>2017-03-17T11:27:10Z</time>
      </trkpt>
      <trkpt lat="42.71349" lon="0.02985">
        <ele>2325.27</ele>
        <time>2017-03-17T11:27:22Z</time>
      </trkpt>
      <trkpt lat="42.71353" lon="0.02984">
        <ele>2325.17</ele>
        <time>2017-03-17T11:27:43Z</time>
      </trkpt>
      <trkpt lat="42.71358" lon="0.02997">
        <ele>2324.88</ele>
        <time>2017-03-17T11:27:46Z</time>
      </trkpt>
      <trkpt lat="42.71369" lon="0.03026">
        <ele>2320.26</ele>
        <time>2017-03-17T11:27:51Z</time>
      </trkpt>
      <trkpt lat="42.71376" lon="0.03044">
        <ele>2314.82</ele>
        <time>2017-03-17T11:27:54Z</time>
      </trkpt>
      <trkpt lat="42.7138" lon="0.03058">
        <ele>2310.74</ele>
        <time>2017-03-17T11:27:56Z</time>
      </trkpt>
      <trkpt lat="42.71385" lon="0.03073">
        <ele>2305.9</ele>
        <time>2017-03-17T11:27:58Z</time>
      </trkpt>
      <trkpt lat="42.7138" lon="0.03089">
        <ele>2301.17</ele>
        <time>2017-03-17T11:28:00Z</time>
      </trkpt>
      <trkpt lat="42.71365" lon="0.03115">
        <ele>2293.98</ele>
        <time>2017-03-17T11:28:03Z</time>
      </trkpt>
      <trkpt lat="42.71353" lon="0.03133">
        <ele>2289.89</ele>
        <time>2017-03-17T11:28:05Z</time>
      </trkpt>
      <trkpt lat="42.71348" lon="0.03142">
        <ele>2287.97</ele>
        <time>2017-03-17T11:28:06Z</time>
      </trkpt>
      <trkpt lat="42.71343" lon="0.03154">
        <ele>2282.76</ele>
        <time>2017-03-17T11:28:09Z</time>
      </trkpt>
      <trkpt lat="42.71344" lon="0.03153">
        <ele>2279.41</ele>
        <time>2017-03-17T11:28:11Z</time>
      </trkpt>
      <trkpt lat="42.71345" lon="0.03153">
        <ele>2275.19</ele>
        <time>2017-03-17T11:28:13Z</time>
      </trkpt>
      <trkpt lat="42.71345" lon="0.03152">
        <ele>2272.13</ele>
        <time>2017-03-17T11:28:18Z</time>
      </trkpt>
      <trkpt lat="42.71345" lon="0.03155">
        <ele>2270.45</ele>
        <time>2017-03-17T11:28:39Z</time>
      </trkpt>
      <trkpt lat="42.71344" lon="0.03155">
        <ele>2270.57</ele>
        <time>2017-03-17T11:28:58Z</time>
      </trkpt>
      <trkpt lat="42.71344" lon="0.03155">
        <ele>2270.47</ele>
        <time>2017-03-17T11:29:01Z</time>
      </trkpt>
      <trkpt lat="42.71343" lon="0.03167">
        <ele>2270.28</ele>
        <time>2017-03-17T11:29:04Z</time>
      </trkpt>
      <trkpt lat="42.71333" lon="0.03197">
        <ele>2268.05</ele>
        <time>2017-03-17T11:29:14Z</time>
      </trkpt>
      <trkpt lat="42.71335" lon="0.03199">
        <ele>2267.73</ele>
        <time>2017-03-17T11:29:29Z</time>
      </trkpt>
      <trkpt lat="42.71343" lon="0.03194">
        <ele>2267.4</ele>
        <time>2017-03-17T11:29:33Z</time>
      </trkpt>
      <trkpt lat="42.71355" lon="0.03181">
        <ele>2266.98</ele>
        <time>2017-03-17T11:29:36Z</time>
      </trkpt>
      <trkpt lat="42.71372" lon="0.03191">
        <ele>2265</ele>
        <time>2017-03-17T11:29:41Z</time>
      </trkpt>
      <trkpt lat="42.71376" lon="0.03195">
        <ele>2264.31</ele>
        <time>2017-03-17T11:29:42Z</time>
      </trkpt>
      <trkpt lat="42.71382" lon="0.03204">
        <ele>2261.08</ele>
        <time>2017-03-17T11:29:44Z</time>
      </trkpt>
      <trkpt lat="42.71388" lon="0.03215">
        <ele>2257.34</ele>
        <time>2017-03-17T11:29:47Z</time>
      </trkpt>
      <trkpt lat="42.71398" lon="0.03224">
        <ele>2253.07</ele>
        <time>2017-03-17T11:29:50Z</time>
      </trkpt>
      <trkpt lat="42.71407" lon="0.03234">
        <ele>2248.47</ele>
        <time>2017-03-17T11:29:53Z</time>
      </trkpt>
      <trkpt lat="42.71413" lon="0.0324">
        <ele>2245.13</ele>
        <time>2017-03-17T11:29:55Z</time>
      </trkpt>
      <trkpt lat="42.71418" lon="0.03248">
        <ele>2241.42</ele>
        <time>2017-03-17T11:29:57Z</time>
      </trkpt>
      <trkpt lat="42.71422" lon="0.03259">
        <ele>2237.6</ele>
        <time>2017-03-17T11:29:59Z</time>
      </trkpt>
      <trkpt lat="42.71421" lon="0.03272">
        <ele>2233.76</ele>
        <time>2017-03-17T11:30:01Z</time>
      </trkpt>
      <trkpt lat="42.71416" lon="0.03279">
        <ele>2231.78</ele>
        <time>2017-03-17T11:30:02Z</time>
      </trkpt>
      <trkpt lat="42.71399" lon="0.03301">
        <ele>2225.81</ele>
        <time>2017-03-17T11:30:05Z</time>
      </trkpt>
      <trkpt lat="42.7139" lon="0.03309">
        <ele>2222.24</ele>
        <time>2017-03-17T11:30:07Z</time>
      </trkpt>
      <trkpt lat="42.71387" lon="0.03311">
        <ele>2218.99</ele>
        <time>2017-03-17T11:30:09Z</time>
      </trkpt>
      <trkpt lat="42.71387" lon="0.0331">
        <ele>2215.5</ele>
        <time>2017-03-17T11:30:12Z</time>
      </trkpt>
      <trkpt lat="42.71386" lon="0.03308">
        <ele>2212.13</ele>
        <time>2017-03-17T11:30:18Z</time>
      </trkpt>
      <trkpt lat="42.71385" lon="0.03309">
        <ele>2211.79</ele>
        <time>2017-03-17T11:30:20Z</time>
      </trkpt>
      <trkpt lat="42.7136" lon="0.0334">
        <ele>2209.81</ele>
        <time>2017-03-17T11:30:28Z</time>
      </trkpt>
      <trkpt lat="42.71349" lon="0.03357">
        <ele>2206.1</ele>
        <time>2017-03-17T11:30:33Z</time>
      </trkpt>
      <trkpt lat="42.71348" lon="0.03357">
        <ele>2205.41</ele>
        <time>2017-03-17T11:30:34Z</time>
      </trkpt>
      <trkpt lat="42.71345" lon="0.03361">
        <ele>2202.74</ele>
        <time>2017-03-17T11:30:39Z</time>
      </trkpt>
      <trkpt lat="42.71337" lon="0.03371">
        <ele>2201.29</ele>
        <time>2017-03-17T11:30:43Z</time>
      </trkpt>
      <trkpt lat="42.71335" lon="0.03377">
        <ele>2199.01</ele>
        <time>2017-03-17T11:30:52Z</time>
      </trkpt>
      <trkpt lat="42.7134" lon="0.03374">
        <ele>2197.6</ele>
        <time>2017-03-17T11:31:14Z</time>
      </trkpt>
      <trkpt lat="42.71341" lon="0.03373">
        <ele>2197.59</ele>
        <time>2017-03-17T11:31:15Z</time>
      </trkpt>
      <trkpt lat="42.71343" lon="0.03371">
        <ele>2197.28</ele>
        <time>2017-03-17T11:31:21Z</time>
      </trkpt>
      <trkpt lat="42.71352" lon="0.03373">
        <ele>2196.14</ele>
        <time>2017-03-17T11:31:29Z</time>
      </trkpt>
      <trkpt lat="42.71353" lon="0.03372">
        <ele>2196.05</ele>
        <time>2017-03-17T11:31:30Z</time>
      </trkpt>
      <trkpt lat="42.7136" lon="0.03372">
        <ele>2195.76</ele>
        <time>2017-03-17T11:31:33Z</time>
      </trkpt>
      <trkpt lat="42.71383" lon="0.03383">
        <ele>2192.69</ele>
        <time>2017-03-17T11:31:40Z</time>
      </trkpt>
      <trkpt lat="42.71388" lon="0.03385">
        <ele>2191.47</ele>
        <time>2017-03-17T11:31:41Z</time>
      </trkpt>
      <trkpt lat="42.71393" lon="0.03406">
        <ele>2185.5</ele>
        <time>2017-03-17T11:31:45Z</time>
      </trkpt>
      <trkpt lat="42.71379" lon="0.0342">
        <ele>2181.55</ele>
        <time>2017-03-17T11:31:47Z</time>
      </trkpt>
      <trkpt lat="42.71363" lon="0.03431">
        <ele>2176.55</ele>
        <time>2017-03-17T11:31:49Z</time>
      </trkpt>
      <trkpt lat="42.71349" lon="0.03438">
        <ele>2171.57</ele>
        <time>2017-03-17T11:31:51Z</time>
      </trkpt>
      <trkpt lat="42.71336" lon="0.03449">
        <ele>2165.89</ele>
        <time>2017-03-17T11:31:54Z</time>
      </trkpt>
      <trkpt lat="42.71321" lon="0.03459">
        <ele>2162.54</ele>
        <time>2017-03-17T11:31:57Z</time>
      </trkpt>
      <trkpt lat="42.713" lon="0.03471">
        <ele>2158.73</ele>
        <time>2017-03-17T11:32:01Z</time>
      </trkpt>
      <trkpt lat="42.71272" lon="0.03501">
        <ele>2154.67</ele>
        <time>2017-03-17T11:32:06Z</time>
      </trkpt>
      <trkpt lat="42.71249" lon="0.03535">
        <ele>2150.79</ele>
        <time>2017-03-17T11:32:10Z</time>
      </trkpt>
      <trkpt lat="42.71235" lon="0.03561">
        <ele>2147.25</ele>
        <time>2017-03-17T11:32:14Z</time>
      </trkpt>
      <trkpt lat="42.71225" lon="0.03578">
        <ele>2146.15</ele>
        <time>2017-03-17T11:32:16Z</time>
      </trkpt>
      <trkpt lat="42.71212" lon="0.03618">
        <ele>2141.96</ele>
        <time>2017-03-17T11:32:21Z</time>
      </trkpt>
      <trkpt lat="42.71213" lon="0.03621">
        <ele>2138.51</ele>
        <time>2017-03-17T11:32:26Z</time>
      </trkpt>
      <trkpt lat="42.71213" lon="0.0362">
        <ele>2135.79</ele>
        <time>2017-03-17T11:32:47Z</time>
      </trkpt>
      <trkpt lat="42.71215" lon="0.03618">
        <ele>2134.97</ele>
        <time>2017-03-17T11:33:04Z</time>
      </trkpt>
      <trkpt lat="42.71216" lon="0.03617">
        <ele>2134.89</ele>
        <time>2017-03-17T11:33:21Z</time>
      </trkpt>
      <trkpt lat="42.71217" lon="0.03615">
        <ele>2134.82</ele>
        <time>2017-03-17T11:33:36Z</time>
      </trkpt>
      <trkpt lat="42.71218" lon="0.03614">
        <ele>2134.64</ele>
        <time>2017-03-17T11:33:52Z</time>
      </trkpt>
      <trkpt lat="42.71217" lon="0.03614">
        <ele>2134.7</ele>
        <time>2017-03-17T11:34:14Z</time>
      </trkpt>
      <trkpt lat="42.71217" lon="0.03614">
        <ele>2134.7</ele>
        <time>2017-03-17T11:34:32Z</time>
      </trkpt>
      <trkpt lat="42.71218" lon="0.03614">
        <ele>2134.82</ele>
        <time>2017-03-17T11:34:49Z</time>
      </trkpt>
      <trkpt lat="42.71217" lon="0.03615">
        <ele>2135.92</ele>
        <time>2017-03-17T11:35:04Z</time>
      </trkpt>
      <trkpt lat="42.71219" lon="0.03612">
        <ele>2134.97</ele>
        <time>2017-03-17T11:35:31Z</time>
      </trkpt>
      <trkpt lat="42.71218" lon="0.03614">
        <ele>2134.89</ele>
        <time>2017-03-17T11:35:46Z</time>
      </trkpt>
      <trkpt lat="42.71217" lon="0.03617">
        <ele>2134.96</ele>
        <time>2017-03-17T11:36:02Z</time>
      </trkpt>
      <trkpt lat="42.71215" lon="0.03616">
        <ele>2134.7</ele>
        <time>2017-03-17T11:36:18Z</time>
      </trkpt>
      <trkpt lat="42.71214" lon="0.03617">
        <ele>2134.82</ele>
        <time>2017-03-17T11:36:33Z</time>
      </trkpt>
      <trkpt lat="42.71213" lon="0.03618">
        <ele>2134.95</ele>
        <time>2017-03-17T11:36:49Z</time>
      </trkpt>
      <trkpt lat="42.71213" lon="0.03618">
        <ele>2134.81</ele>
        <time>2017-03-17T11:37:04Z</time>
      </trkpt>
      <trkpt lat="42.71213" lon="0.0362">
        <ele>2134.74</ele>
        <time>2017-03-17T11:37:19Z</time>
      </trkpt>
      <trkpt lat="42.71213" lon="0.03621">
        <ele>2134.79</ele>
        <time>2017-03-17T11:37:35Z</time>
      </trkpt>
      <trkpt lat="42.71214" lon="0.0362">
        <ele>2134.68</ele>
        <time>2017-03-17T11:37:51Z</time>
      </trkpt>
      <trkpt lat="42.71215" lon="0.03621">
        <ele>2134.75</ele>
        <time>2017-03-17T11:38:07Z</time>
      </trkpt>
      <trkpt lat="42.71215" lon="0.03621">
        <ele>2134.74</ele>
        <time>2017-03-17T11:38:23Z</time>
      </trkpt>
      <trkpt lat="42.71216" lon="0.0362">
        <ele>2135.05</ele>
        <time>2017-03-17T11:38:39Z</time>
      </trkpt>
      <trkpt lat="42.71216" lon="0.0362">
        <ele>2134.85</ele>
        <time>2017-03-17T11:38:58Z</time>
      </trkpt>
      <trkpt lat="42.71217" lon="0.0362">
        <ele>2134.62</ele>
        <time>2017-03-17T11:39:17Z</time>
      </trkpt>
      <trkpt lat="42.71218" lon="0.03619">
        <ele>2134.72</ele>
        <time>2017-03-17T11:39:34Z</time>
      </trkpt>
      <trkpt lat="42.71217" lon="0.03618">
        <ele>2134.65</ele>
        <time>2017-03-17T11:39:52Z</time>
      </trkpt>
      <trkpt lat="42.71217" lon="0.03618">
        <ele>2134.55</ele>
        <time>2017-03-17T11:40:10Z</time>
      </trkpt>
      <trkpt lat="42.71216" lon="0.0362">
        <ele>2134.69</ele>
        <time>2017-03-17T11:40:27Z</time>
      </trkpt>
      <trkpt lat="42.71216" lon="0.03619">
        <ele>2134.81</ele>
        <time>2017-03-17T11:40:45Z</time>
      </trkpt>
      <trkpt lat="42.71216" lon="0.03618">
        <ele>2135.03</ele>
        <time>2017-03-17T11:41:04Z</time>
      </trkpt>
      <trkpt lat="42.71214" lon="0.03617">
        <ele>2135.24</ele>
        <time>2017-03-17T11:41:24Z</time>
      </trkpt>
      <trkpt lat="42.71213" lon="0.03617">
        <ele>2135.28</ele>
        <time>2017-03-17T11:41:48Z</time>
      </trkpt>
      <trkpt lat="42.71213" lon="0.03617">
        <ele>2134.89</ele>
        <time>2017-03-17T11:42:10Z</time>
      </trkpt>
      <trkpt lat="42.71213" lon="0.03619">
        <ele>2135.02</ele>
        <time>2017-03-17T11:42:33Z</time>
      </trkpt>
      <trkpt lat="42.71215" lon="0.0362">
        <ele>2134.76</ele>
        <time>2017-03-17T11:43:02Z</time>
      </trkpt>
      <trkpt lat="42.71215" lon="0.03619">
        <ele>2134.43</ele>
        <time>2017-03-17T11:43:29Z</time>
      </trkpt>
      <trkpt lat="42.71215" lon="0.0362">
        <ele>2134.5</ele>
        <time>2017-03-17T11:43:55Z</time>
      </trkpt>
      <trkpt lat="42.71215" lon="0.03619">
        <ele>2134.67</ele>
        <time>2017-03-17T11:44:18Z</time>
      </trkpt>
      <trkpt lat="42.71215" lon="0.03619">
        <ele>2134.6</ele>
        <time>2017-03-17T11:44:38Z</time>
      </trkpt>
      <trkpt lat="42.71215" lon="0.03619">
        <ele>2134.61</ele>
        <time>2017-03-17T11:44:58Z</time>
      </trkpt>
      <trkpt lat="42.71215" lon="0.03616">
        <ele>2135.17</ele>
        <time>2017-03-17T11:45:16Z</time>
      </trkpt>
      <trkpt lat="42.71216" lon="0.03612">
        <ele>2134.67</ele>
        <time>2017-03-17T11:45:52Z</time>
      </trkpt>
      <trkpt lat="42.71216" lon="0.03611">
        <ele>2134.82</ele>
        <time>2017-03-17T11:46:20Z</time>
      </trkpt>
      <trkpt lat="42.71216" lon="0.03612">
        <ele>2135.03</ele>
        <time>2017-03-17T11:46:49Z</time>
      </trkpt>
      <trkpt lat="42.71216" lon="0.03612">
        <ele>2135.01</ele>
        <time>2017-03-17T11:47:11Z</time>
      </trkpt>
      <trkpt lat="42.71214" lon="0.03612">
        <ele>2134.71</ele>
        <time>2017-03-17T11:47:33Z</time>
      </trkpt>
      <trkpt lat="42.71217" lon="0.03612">
        <ele>2134.52</ele>
        <time>2017-03-17T11:47:53Z</time>
      </trkpt>
      <trkpt lat="42.71218" lon="0.03613">
        <ele>2135.03</ele>
        <time>2017-03-17T11:48:17Z</time>
      </trkpt>
      <trkpt lat="42.71217" lon="0.03611">
        <ele>2134.54</ele>
        <time>2017-03-17T11:48:45Z</time>
      </trkpt>
      <trkpt lat="42.71216" lon="0.03612">
        <ele>2134.95</ele>
        <time>2017-03-17T11:49:23Z</time>
      </trkpt>
      <trkpt lat="42.71215" lon="0.03611">
        <ele>2134.33</ele>
        <time>2017-03-17T11:50:07Z</time>
      </trkpt>
      <trkpt lat="42.71215" lon="0.0361">
        <ele>2134.28</ele>
        <time>2017-03-17T11:50:35Z</time>
      </trkpt>
      <trkpt lat="42.71216" lon="0.03609">
        <ele>2134.6</ele>
        <time>2017-03-17T11:51:00Z</time>
      </trkpt>
      <trkpt lat="42.71218" lon="0.0361">
        <ele>2134.91</ele>
        <time>2017-03-17T11:51:18Z</time>
      </trkpt>
      <trkpt lat="42.71218" lon="0.03611">
        <ele>2134.48</ele>
        <time>2017-03-17T11:51:37Z</time>
      </trkpt>
      <trkpt lat="42.71216" lon="0.03612">
        <ele>2134.48</ele>
        <time>2017-03-17T11:52:09Z</time>
      </trkpt>
      <trkpt lat="42.71217" lon="0.03612">
        <ele>2135.07</ele>
        <time>2017-03-17T11:52:32Z</time>
      </trkpt>
      <trkpt lat="42.71217" lon="0.03613">
        <ele>2135.48</ele>
        <time>2017-03-17T11:53:04Z</time>
      </trkpt>
      <trkpt lat="42.71218" lon="0.03612">
        <ele>2135.79</ele>
        <time>2017-03-17T11:53:29Z</time>
      </trkpt>
      <trkpt lat="42.71218" lon="0.03612">
        <ele>2135.87</ele>
        <time>2017-03-17T11:53:49Z</time>
      </trkpt>
      <trkpt lat="42.71216" lon="0.03613">
        <ele>2136.01</ele>
        <time>2017-03-17T11:54:09Z</time>
      </trkpt>
      <trkpt lat="42.71215" lon="0.03613">
        <ele>2135.96</ele>
        <time>2017-03-17T11:54:38Z</time>
      </trkpt>
      <trkpt lat="42.71217" lon="0.03614">
        <ele>2136.03</ele>
        <time>2017-03-17T11:55:10Z</time>
      </trkpt>
      <trkpt lat="42.71215" lon="0.03616">
        <ele>2135.59</ele>
        <time>2017-03-17T11:55:45Z</time>
      </trkpt>
      <trkpt lat="42.71205" lon="0.03612">
        <ele>2136.57</ele>
        <time>2017-03-17T11:56:10Z</time>
      </trkpt>
      <trkpt lat="42.71195" lon="0.03611">
        <ele>2138.17</ele>
        <time>2017-03-17T11:56:29Z</time>
      </trkpt>
      <trkpt lat="42.71184" lon="0.03606">
        <ele>2139.89</ele>
        <time>2017-03-17T11:56:51Z</time>
      </trkpt>
      <trkpt lat="42.71174" lon="0.03603">
        <ele>2140.5</ele>
        <time>2017-03-17T11:57:09Z</time>
      </trkpt>
      <trkpt lat="42.71168" lon="0.036">
        <ele>2141.08</ele>
        <time>2017-03-17T11:57:24Z</time>
      </trkpt>
      <trkpt lat="42.71158" lon="0.03596">
        <ele>2140.75</ele>
        <time>2017-03-17T11:57:42Z</time>
      </trkpt>
      <trkpt lat="42.71142" lon="0.03596">
        <ele>2140.51</ele>
        <time>2017-03-17T11:58:03Z</time>
      </trkpt>
      <trkpt lat="42.71127" lon="0.03598">
        <ele>2141.88</ele>
        <time>2017-03-17T11:58:25Z</time>
      </trkpt>
      <trkpt lat="42.71112" lon="0.03599">
        <ele>2142.95</ele>
        <time>2017-03-17T11:58:46Z</time>
      </trkpt>
      <trkpt lat="42.71097" lon="0.036">
        <ele>2143.42</ele>
        <time>2017-03-17T11:59:04Z</time>
      </trkpt>
      <trkpt lat="42.71082" lon="0.03604">
        <ele>2144.49</ele>
        <time>2017-03-17T11:59:27Z</time>
      </trkpt>
      <trkpt lat="42.71076" lon="0.03608">
        <ele>2146.01</ele>
        <time>2017-03-17T11:59:52Z</time>
      </trkpt>
      <trkpt lat="42.71079" lon="0.03596">
        <ele>2147.7</ele>
        <time>2017-03-17T12:00:10Z</time>
      </trkpt>
      <trkpt lat="42.71081" lon="0.03589">
        <ele>2148.89</ele>
        <time>2017-03-17T12:00:20Z</time>
      </trkpt>
      <trkpt lat="42.71084" lon="0.03583">
        <ele>2150.99</ele>
        <time>2017-03-17T12:00:35Z</time>
      </trkpt>
      <trkpt lat="42.71073" lon="0.03589">
        <ele>2152.86</ele>
        <time>2017-03-17T12:00:55Z</time>
      </trkpt>
      <trkpt lat="42.71066" lon="0.03594">
        <ele>2155.58</ele>
        <time>2017-03-17T12:01:22Z</time>
      </trkpt>
      <trkpt lat="42.71057" lon="0.036">
        <ele>2158.47</ele>
        <time>2017-03-17T12:01:45Z</time>
      </trkpt>
      <trkpt lat="42.71049" lon="0.03604">
        <ele>2160.76</ele>
        <time>2017-03-17T12:02:08Z</time>
      </trkpt>
      <trkpt lat="42.71039" lon="0.03607">
        <ele>2163.78</ele>
        <time>2017-03-17T12:02:31Z</time>
      </trkpt>
      <trkpt lat="42.71033" lon="0.0361">
        <ele>2166</ele>
        <time>2017-03-17T12:02:56Z</time>
      </trkpt>
      <trkpt lat="42.71024" lon="0.03613">
        <ele>2168.11</ele>
        <time>2017-03-17T12:03:19Z</time>
      </trkpt>
      <trkpt lat="42.71015" lon="0.03615">
        <ele>2170.95</ele>
        <time>2017-03-17T12:03:46Z</time>
      </trkpt>
      <trkpt lat="42.71006" lon="0.0362">
        <ele>2173.65</ele>
        <time>2017-03-17T12:04:08Z</time>
      </trkpt>
      <trkpt lat="42.70994" lon="0.03619">
        <ele>2176.79</ele>
        <time>2017-03-17T12:04:29Z</time>
      </trkpt>
      <trkpt lat="42.70985" lon="0.03615">
        <ele>2179.6</ele>
        <time>2017-03-17T12:04:50Z</time>
      </trkpt>
      <trkpt lat="42.70987" lon="0.03619">
        <ele>2179.45</ele>
        <time>2017-03-17T12:05:33Z</time>
      </trkpt>
      <trkpt lat="42.70986" lon="0.03617">
        <ele>2179.78</ele>
        <time>2017-03-17T12:06:00Z</time>
      </trkpt>
      <trkpt lat="42.70985" lon="0.03617">
        <ele>2179.51</ele>
        <time>2017-03-17T12:06:19Z</time>
      </trkpt>
      <trkpt lat="42.70976" lon="0.03612">
        <ele>2182.58</ele>
        <time>2017-03-17T12:06:36Z</time>
      </trkpt>
      <trkpt lat="42.70965" lon="0.03607">
        <ele>2185.64</ele>
        <time>2017-03-17T12:06:56Z</time>
      </trkpt>
      <trkpt lat="42.70954" lon="0.03599">
        <ele>2188.76</ele>
        <time>2017-03-17T12:07:16Z</time>
      </trkpt>
      <trkpt lat="42.70943" lon="0.036">
        <ele>2191.89</ele>
        <time>2017-03-17T12:07:39Z</time>
      </trkpt>
      <trkpt lat="42.70936" lon="0.036">
        <ele>2194.91</ele>
        <time>2017-03-17T12:08:01Z</time>
      </trkpt>
      <trkpt lat="42.70937" lon="0.03584">
        <ele>2197.33</ele>
        <time>2017-03-17T12:08:25Z</time>
      </trkpt>
      <trkpt lat="42.70935" lon="0.03574">
        <ele>2200.16</ele>
        <time>2017-03-17T12:08:46Z</time>
      </trkpt>
      <trkpt lat="42.70923" lon="0.03579">
        <ele>2203.22</ele>
        <time>2017-03-17T12:09:00Z</time>
      </trkpt>
      <trkpt lat="42.70913" lon="0.03586">
        <ele>2205.89</ele>
        <time>2017-03-17T12:09:19Z</time>
      </trkpt>
      <trkpt lat="42.70911" lon="0.03587">
        <ele>2207.36</ele>
        <time>2017-03-17T12:09:37Z</time>
      </trkpt>
      <trkpt lat="42.70914" lon="0.03568">
        <ele>2210.17</ele>
        <time>2017-03-17T12:10:01Z</time>
      </trkpt>
      <trkpt lat="42.70915" lon="0.03554">
        <ele>2212.89</ele>
        <time>2017-03-17T12:10:21Z</time>
      </trkpt>
      <trkpt lat="42.70904" lon="0.03559">
        <ele>2215.92</ele>
        <time>2017-03-17T12:10:40Z</time>
      </trkpt>
      <trkpt lat="42.70894" lon="0.03563">
        <ele>2219.11</ele>
        <time>2017-03-17T12:11:01Z</time>
      </trkpt>
      <trkpt lat="42.70897" lon="0.03546">
        <ele>2221.9</ele>
        <time>2017-03-17T12:11:21Z</time>
      </trkpt>
      <trkpt lat="42.70897" lon="0.03543">
        <ele>2223.24</ele>
        <time>2017-03-17T12:11:38Z</time>
      </trkpt>
      <trkpt lat="42.70883" lon="0.03547">
        <ele>2226.34</ele>
        <time>2017-03-17T12:11:57Z</time>
      </trkpt>
      <trkpt lat="42.70883" lon="0.03536">
        <ele>2228.93</ele>
        <time>2017-03-17T12:12:16Z</time>
      </trkpt>
      <trkpt lat="42.70889" lon="0.03522">
        <ele>2230.82</ele>
        <time>2017-03-17T12:12:33Z</time>
      </trkpt>
      <trkpt lat="42.70891" lon="0.03513">
        <ele>2233.71</ele>
        <time>2017-03-17T12:12:55Z</time>
      </trkpt>
      <trkpt lat="42.70878" lon="0.03515">
        <ele>2236.94</ele>
        <time>2017-03-17T12:13:17Z</time>
      </trkpt>
      <trkpt lat="42.70876" lon="0.03507">
        <ele>2240.05</ele>
        <time>2017-03-17T12:13:35Z</time>
      </trkpt>
      <trkpt lat="42.70861" lon="0.03507">
        <ele>2243.21</ele>
        <time>2017-03-17T12:13:56Z</time>
      </trkpt>
      <trkpt lat="42.70858" lon="0.03504">
        <ele>2245.17</ele>
        <time>2017-03-17T12:14:14Z</time>
      </trkpt>
      <trkpt lat="42.70867" lon="0.03491">
        <ele>2247.81</ele>
        <time>2017-03-17T12:14:34Z</time>
      </trkpt>
      <trkpt lat="42.70855" lon="0.03492">
        <ele>2249.91</ele>
        <time>2017-03-17T12:14:55Z</time>
      </trkpt>
      <trkpt lat="42.70844" lon="0.03499">
        <ele>2252.99</ele>
        <time>2017-03-17T12:15:13Z</time>
      </trkpt>
      <trkpt lat="42.70843" lon="0.03492">
        <ele>2255.08</ele>
        <time>2017-03-17T12:15:31Z</time>
      </trkpt>
      <trkpt lat="42.70841" lon="0.03481">
        <ele>2258.13</ele>
        <time>2017-03-17T12:15:52Z</time>
      </trkpt>
      <trkpt lat="42.70837" lon="0.03485">
        <ele>2258.94</ele>
        <time>2017-03-17T12:15:57Z</time>
      </trkpt>
      <trkpt lat="42.70824" lon="0.03498">
        <ele>2261.57</ele>
        <time>2017-03-17T12:16:15Z</time>
      </trkpt>
      <trkpt lat="42.70823" lon="0.03497">
        <ele>2262.17</ele>
        <time>2017-03-17T12:16:37Z</time>
      </trkpt>
      <trkpt lat="42.70824" lon="0.03496">
        <ele>2262.16</ele>
        <time>2017-03-17T12:17:00Z</time>
      </trkpt>
      <trkpt lat="42.70824" lon="0.03497">
        <ele>2262.5</ele>
        <time>2017-03-17T12:17:30Z</time>
      </trkpt>
      <trkpt lat="42.70823" lon="0.03496">
        <ele>2262.79</ele>
        <time>2017-03-17T12:17:53Z</time>
      </trkpt>
      <trkpt lat="42.70821" lon="0.03495">
        <ele>2262.67</ele>
        <time>2017-03-17T12:17:56Z</time>
      </trkpt>
      <trkpt lat="42.70801" lon="0.03488">
        <ele>2261.47</ele>
        <time>2017-03-17T12:18:10Z</time>
      </trkpt>
      <trkpt lat="42.70783" lon="0.0349">
        <ele>2260.29</ele>
        <time>2017-03-17T12:18:29Z</time>
      </trkpt>
      <trkpt lat="42.70775" lon="0.03485">
        <ele>2262.2</ele>
        <time>2017-03-17T12:18:46Z</time>
      </trkpt>
      <trkpt lat="42.70769" lon="0.03481">
        <ele>2264.02</ele>
        <time>2017-03-17T12:19:03Z</time>
      </trkpt>
      <trkpt lat="42.70767" lon="0.03478">
        <ele>2263.82</ele>
        <time>2017-03-17T12:19:13Z</time>
      </trkpt>
      <trkpt lat="42.70764" lon="0.03475">
        <ele>2263.98</ele>
        <time>2017-03-17T12:19:17Z</time>
      </trkpt>
      <trkpt lat="42.70751" lon="0.0346">
        <ele>2265.21</ele>
        <time>2017-03-17T12:19:36Z</time>
      </trkpt>
      <trkpt lat="42.70742" lon="0.03445">
        <ele>2266.92</ele>
        <time>2017-03-17T12:19:56Z</time>
      </trkpt>
      <trkpt lat="42.70739" lon="0.03438">
        <ele>2267.52</ele>
        <time>2017-03-17T12:20:16Z</time>
      </trkpt>
      <trkpt lat="42.70733" lon="0.0343">
        <ele>2267.88</ele>
        <time>2017-03-17T12:20:35Z</time>
      </trkpt>
      <trkpt lat="42.70729" lon="0.03423">
        <ele>2268.3</ele>
        <time>2017-03-17T12:20:42Z</time>
      </trkpt>
      <trkpt lat="42.70719" lon="0.03411">
        <ele>2268.88</ele>
        <time>2017-03-17T12:20:59Z</time>
      </trkpt>
      <trkpt lat="42.70707" lon="0.03401">
        <ele>2269.64</ele>
        <time>2017-03-17T12:21:20Z</time>
      </trkpt>
      <trkpt lat="42.70693" lon="0.03391">
        <ele>2270.28</ele>
        <time>2017-03-17T12:21:40Z</time>
      </trkpt>
      <trkpt lat="42.70692" lon="0.03392">
        <ele>2270.25</ele>
        <time>2017-03-17T12:22:01Z</time>
      </trkpt>
      <trkpt lat="42.70685" lon="0.03386">
        <ele>2270.63</ele>
        <time>2017-03-17T12:22:24Z</time>
      </trkpt>
      <trkpt lat="42.70682" lon="0.03383">
        <ele>2270.62</ele>
        <time>2017-03-17T12:22:29Z</time>
      </trkpt>
      <trkpt lat="42.70678" lon="0.03381">
        <ele>2270.95</ele>
        <time>2017-03-17T12:22:33Z</time>
      </trkpt>
      <trkpt lat="42.70658" lon="0.03382">
        <ele>2270.38</ele>
        <time>2017-03-17T12:22:49Z</time>
      </trkpt>
      <trkpt lat="42.70656" lon="0.03384">
        <ele>2269.57</ele>
        <time>2017-03-17T12:23:00Z</time>
      </trkpt>
      <trkpt lat="42.70656" lon="0.03383">
        <ele>2269.51</ele>
        <time>2017-03-17T12:23:24Z</time>
      </trkpt>
      <trkpt lat="42.70657" lon="0.03381">
        <ele>2268.62</ele>
        <time>2017-03-17T12:23:47Z</time>
      </trkpt>
      <trkpt lat="42.70657" lon="0.03381">
        <ele>2269.11</ele>
        <time>2017-03-17T12:23:59Z</time>
      </trkpt>
      <trkpt lat="42.7066" lon="0.03381">
        <ele>2269.7</ele>
        <time>2017-03-17T12:24:23Z</time>
      </trkpt>
      <trkpt lat="42.70662" lon="0.03382">
        <ele>2269.64</ele>
        <time>2017-03-17T12:24:45Z</time>
      </trkpt>
      <trkpt lat="42.70662" lon="0.03386">
        <ele>2269.3</ele>
        <time>2017-03-17T12:25:10Z</time>
      </trkpt>
      <trkpt lat="42.7066" lon="0.03386">
        <ele>2269.28</ele>
        <time>2017-03-17T12:25:29Z</time>
      </trkpt>
      <trkpt lat="42.70659" lon="0.03385">
        <ele>2269.47</ele>
        <time>2017-03-17T12:25:48Z</time>
      </trkpt>
      <trkpt lat="42.70654" lon="0.03385">
        <ele>2269.34</ele>
        <time>2017-03-17T12:26:13Z</time>
      </trkpt>
      <trkpt lat="42.70645" lon="0.03387">
        <ele>2270.9</ele>
        <time>2017-03-17T12:26:28Z</time>
      </trkpt>
      <trkpt lat="42.70633" lon="0.03393">
        <ele>2273.79</ele>
        <time>2017-03-17T12:26:47Z</time>
      </trkpt>
      <trkpt lat="42.70626" lon="0.03398">
        <ele>2276.61</ele>
        <time>2017-03-17T12:27:04Z</time>
      </trkpt>
      <trkpt lat="42.70616" lon="0.03398">
        <ele>2277.85</ele>
        <time>2017-03-17T12:27:26Z</time>
      </trkpt>
      <trkpt lat="42.70606" lon="0.03404">
        <ele>2280.64</ele>
        <time>2017-03-17T12:27:42Z</time>
      </trkpt>
      <trkpt lat="42.70601" lon="0.03407">
        <ele>2281.65</ele>
        <time>2017-03-17T12:28:00Z</time>
      </trkpt>
      <trkpt lat="42.70597" lon="0.03409">
        <ele>2281.73</ele>
        <time>2017-03-17T12:28:05Z</time>
      </trkpt>
      <trkpt lat="42.70589" lon="0.03415">
        <ele>2283.17</ele>
        <time>2017-03-17T12:28:16Z</time>
      </trkpt>
      <trkpt lat="42.70585" lon="0.03417">
        <ele>2283.35</ele>
        <time>2017-03-17T12:28:21Z</time>
      </trkpt>
      <trkpt lat="42.70575" lon="0.03424">
        <ele>2284.33</ele>
        <time>2017-03-17T12:28:35Z</time>
      </trkpt>
      <trkpt lat="42.70565" lon="0.03431">
        <ele>2285.74</ele>
        <time>2017-03-17T12:28:53Z</time>
      </trkpt>
      <trkpt lat="42.70563" lon="0.03435">
        <ele>2287.07</ele>
        <time>2017-03-17T12:29:13Z</time>
      </trkpt>
      <trkpt lat="42.70562" lon="0.03435">
        <ele>2286.94</ele>
        <time>2017-03-17T12:29:38Z</time>
      </trkpt>
      <trkpt lat="42.70563" lon="0.03433">
        <ele>2286.85</ele>
        <time>2017-03-17T12:30:03Z</time>
      </trkpt>
      <trkpt lat="42.7056" lon="0.03434">
        <ele>2286.55</ele>
        <time>2017-03-17T12:30:25Z</time>
      </trkpt>
      <trkpt lat="42.70562" lon="0.03435">
        <ele>2286.85</ele>
        <time>2017-03-17T12:30:48Z</time>
      </trkpt>
      <trkpt lat="42.70561" lon="0.03431">
        <ele>2286.89</ele>
        <time>2017-03-17T12:31:09Z</time>
      </trkpt>
      <trkpt lat="42.70559" lon="0.03431">
        <ele>2286.73</ele>
        <time>2017-03-17T12:31:32Z</time>
      </trkpt>
      <trkpt lat="42.70559" lon="0.03427">
        <ele>2287.12</ele>
        <time>2017-03-17T12:31:57Z</time>
      </trkpt>
      <trkpt lat="42.70559" lon="0.0343">
        <ele>2287.03</ele>
        <time>2017-03-17T12:32:19Z</time>
      </trkpt>
      <trkpt lat="42.70563" lon="0.03435">
        <ele>2287.81</ele>
        <time>2017-03-17T12:32:51Z</time>
      </trkpt>
      <trkpt lat="42.70563" lon="0.03437">
        <ele>2287.49</ele>
        <time>2017-03-17T12:33:28Z</time>
      </trkpt>
      <trkpt lat="42.70565" lon="0.03437">
        <ele>2287.68</ele>
        <time>2017-03-17T12:34:09Z</time>
      </trkpt>
      <trkpt lat="42.70565" lon="0.03434">
        <ele>2288.06</ele>
        <time>2017-03-17T12:34:50Z</time>
      </trkpt>
      <trkpt lat="42.70559" lon="0.03441">
        <ele>2288.39</ele>
        <time>2017-03-17T12:35:20Z</time>
      </trkpt>
      <trkpt lat="42.70554" lon="0.03449">
        <ele>2290.43</ele>
        <time>2017-03-17T12:35:40Z</time>
      </trkpt>
      <trkpt lat="42.70554" lon="0.03454">
        <ele>2291.3</ele>
        <time>2017-03-17T12:35:59Z</time>
      </trkpt>
      <trkpt lat="42.7055" lon="0.03462">
        <ele>2292.23</ele>
        <time>2017-03-17T12:36:25Z</time>
      </trkpt>
      <trkpt lat="42.70546" lon="0.03466">
        <ele>2293.64</ele>
        <time>2017-03-17T12:36:47Z</time>
      </trkpt>
      <trkpt lat="42.70545" lon="0.0347">
        <ele>2294.98</ele>
        <time>2017-03-17T12:37:15Z</time>
      </trkpt>
      <trkpt lat="42.70542" lon="0.03477">
        <ele>2294.88</ele>
        <time>2017-03-17T12:37:40Z</time>
      </trkpt>
      <trkpt lat="42.70539" lon="0.03485">
        <ele>2295.85</ele>
        <time>2017-03-17T12:38:04Z</time>
      </trkpt>
      <trkpt lat="42.70533" lon="0.03489">
        <ele>2296.94</ele>
        <time>2017-03-17T12:38:26Z</time>
      </trkpt>
      <trkpt lat="42.7053" lon="0.03494">
        <ele>2298.56</ele>
        <time>2017-03-17T12:38:49Z</time>
      </trkpt>
      <trkpt lat="42.70526" lon="0.03496">
        <ele>2298.83</ele>
        <time>2017-03-17T12:39:07Z</time>
      </trkpt>
      <trkpt lat="42.70523" lon="0.03501">
        <ele>2299.83</ele>
        <time>2017-03-17T12:39:30Z</time>
      </trkpt>
      <trkpt lat="42.7052" lon="0.03502">
        <ele>2300.85</ele>
        <time>2017-03-17T12:39:52Z</time>
      </trkpt>
      <trkpt lat="42.7052" lon="0.03505">
        <ele>2301.5</ele>
        <time>2017-03-17T12:40:20Z</time>
      </trkpt>
      <trkpt lat="42.70519" lon="0.0351">
        <ele>2301.91</ele>
        <time>2017-03-17T12:40:43Z</time>
      </trkpt>
      <trkpt lat="42.70518" lon="0.03515">
        <ele>2302.82</ele>
        <time>2017-03-17T12:41:10Z</time>
      </trkpt>
      <trkpt lat="42.70515" lon="0.03521">
        <ele>2303.64</ele>
        <time>2017-03-17T12:41:31Z</time>
      </trkpt>
      <trkpt lat="42.70513" lon="0.03523">
        <ele>2304.43</ele>
        <time>2017-03-17T12:41:51Z</time>
      </trkpt>
      <trkpt lat="42.7051" lon="0.03526">
        <ele>2304.78</ele>
        <time>2017-03-17T12:42:10Z</time>
      </trkpt>
      <trkpt lat="42.70508" lon="0.03527">
        <ele>2305.19</ele>
        <time>2017-03-17T12:42:37Z</time>
      </trkpt>
      <trkpt lat="42.70506" lon="0.03529">
        <ele>2305.49</ele>
        <time>2017-03-17T12:43:12Z</time>
      </trkpt>
      <trkpt lat="42.70507" lon="0.0353">
        <ele>2305.11</ele>
        <time>2017-03-17T12:43:44Z</time>
      </trkpt>
      <trkpt lat="42.70507" lon="0.03529">
        <ele>2304.99</ele>
        <time>2017-03-17T12:44:23Z</time>
      </trkpt>
      <trkpt lat="42.70507" lon="0.0353">
        <ele>2305.85</ele>
        <time>2017-03-17T12:44:48Z</time>
      </trkpt>
      <trkpt lat="42.70507" lon="0.03528">
        <ele>2306.03</ele>
        <time>2017-03-17T12:45:20Z</time>
      </trkpt>
      <trkpt lat="42.70502" lon="0.03528">
        <ele>2306.66</ele>
        <time>2017-03-17T12:45:47Z</time>
      </trkpt>
      <trkpt lat="42.70503" lon="0.03522">
        <ele>2308.17</ele>
        <time>2017-03-17T12:46:10Z</time>
      </trkpt>
      <trkpt lat="42.70504" lon="0.0352">
        <ele>2308.83</ele>
        <time>2017-03-17T12:46:38Z</time>
      </trkpt>
      <trkpt lat="42.70497" lon="0.0352">
        <ele>2310.26</ele>
        <time>2017-03-17T12:46:59Z</time>
      </trkpt>
      <trkpt lat="42.70497" lon="0.03512">
        <ele>2312.08</ele>
        <time>2017-03-17T12:47:16Z</time>
      </trkpt>
      <trkpt lat="42.70491" lon="0.03511">
        <ele>2313.19</ele>
        <time>2017-03-17T12:47:38Z</time>
      </trkpt>
      <trkpt lat="42.7049" lon="0.03508">
        <ele>2315.06</ele>
        <time>2017-03-17T12:47:58Z</time>
      </trkpt>
      <trkpt lat="42.70491" lon="0.03504">
        <ele>2317.07</ele>
        <time>2017-03-17T12:48:19Z</time>
      </trkpt>
      <trkpt lat="42.70484" lon="0.03508">
        <ele>2318.53</ele>
        <time>2017-03-17T12:48:39Z</time>
      </trkpt>
      <trkpt lat="42.70485" lon="0.03504">
        <ele>2320.08</ele>
        <time>2017-03-17T12:49:01Z</time>
      </trkpt>
      <trkpt lat="42.70481" lon="0.03506">
        <ele>2321.33</ele>
        <time>2017-03-17T12:49:25Z</time>
      </trkpt>
      <trkpt lat="42.70478" lon="0.03509">
        <ele>2322.74</ele>
        <time>2017-03-17T12:49:46Z</time>
      </trkpt>
      <trkpt lat="42.70481" lon="0.03505">
        <ele>2323.01</ele>
        <time>2017-03-17T12:50:11Z</time>
      </trkpt>
      <trkpt lat="42.70483" lon="0.03501">
        <ele>2323.93</ele>
        <time>2017-03-17T12:50:32Z</time>
      </trkpt>
      <trkpt lat="42.70485" lon="0.03498">
        <ele>2325.55</ele>
        <time>2017-03-17T12:50:54Z</time>
      </trkpt>
      <trkpt lat="42.70486" lon="0.03495">
        <ele>2326.3</ele>
        <time>2017-03-17T12:51:14Z</time>
      </trkpt>
      <trkpt lat="42.70487" lon="0.03491">
        <ele>2327.83</ele>
        <time>2017-03-17T12:51:42Z</time>
      </trkpt>
      <trkpt lat="42.70482" lon="0.03489">
        <ele>2328.03</ele>
        <time>2017-03-17T12:52:02Z</time>
      </trkpt>
      <trkpt lat="42.70477" lon="0.03487">
        <ele>2331.05</ele>
        <time>2017-03-17T12:52:20Z</time>
      </trkpt>
      <trkpt lat="42.70478" lon="0.03486">
        <ele>2333.23</ele>
        <time>2017-03-17T12:52:40Z</time>
      </trkpt>
      <trkpt lat="42.70479" lon="0.03486">
        <ele>2333.04</ele>
        <time>2017-03-17T12:53:13Z</time>
      </trkpt>
      <trkpt lat="42.70472" lon="0.03487">
        <ele>2334.68</ele>
        <time>2017-03-17T12:53:32Z</time>
      </trkpt>
      <trkpt lat="42.70463" lon="0.0349">
        <ele>2337.77</ele>
        <time>2017-03-17T12:53:46Z</time>
      </trkpt>
      <trkpt lat="42.70457" lon="0.03495">
        <ele>2340.94</ele>
        <time>2017-03-17T12:53:58Z</time>
      </trkpt>
      <trkpt lat="42.70455" lon="0.03494">
        <ele>2341.6</ele>
        <time>2017-03-17T12:54:21Z</time>
      </trkpt>
      <trkpt lat="42.70455" lon="0.03493">
        <ele>2341.55</ele>
        <time>2017-03-17T12:54:44Z</time>
      </trkpt>
      <trkpt lat="42.70459" lon="0.03484">
        <ele>2343.16</ele>
        <time>2017-03-17T12:55:06Z</time>
      </trkpt>
      <trkpt lat="42.70461" lon="0.03479">
        <ele>2345.16</ele>
        <time>2017-03-17T12:55:26Z</time>
      </trkpt>
      <trkpt lat="42.70454" lon="0.03479">
        <ele>2346.52</ele>
        <time>2017-03-17T12:55:40Z</time>
      </trkpt>
      <trkpt lat="42.70445" lon="0.03481">
        <ele>2348.42</ele>
        <time>2017-03-17T12:55:57Z</time>
      </trkpt>
      <trkpt lat="42.70454" lon="0.03466">
        <ele>2351.13</ele>
        <time>2017-03-17T12:56:19Z</time>
      </trkpt>
      <trkpt lat="42.70449" lon="0.03465">
        <ele>2353.52</ele>
        <time>2017-03-17T12:56:36Z</time>
      </trkpt>
      <trkpt lat="42.70439" lon="0.03465">
        <ele>2356.51</ele>
        <time>2017-03-17T12:56:56Z</time>
      </trkpt>
      <trkpt lat="42.70444" lon="0.03459">
        <ele>2358.1</ele>
        <time>2017-03-17T12:57:17Z</time>
      </trkpt>
      <trkpt lat="42.70448" lon="0.0345">
        <ele>2360.65</ele>
        <time>2017-03-17T12:57:37Z</time>
      </trkpt>
      <trkpt lat="42.70439" lon="0.03445">
        <ele>2363.78</ele>
        <time>2017-03-17T12:57:53Z</time>
      </trkpt>
      <trkpt lat="42.70439" lon="0.03433">
        <ele>2366.99</ele>
        <time>2017-03-17T12:58:09Z</time>
      </trkpt>
      <trkpt lat="42.70432" lon="0.03428">
        <ele>2369.93</ele>
        <time>2017-03-17T12:58:28Z</time>
      </trkpt>
      <trkpt lat="42.70433" lon="0.03423">
        <ele>2372.44</ele>
        <time>2017-03-17T12:58:45Z</time>
      </trkpt>
      <trkpt lat="42.70435" lon="0.03423">
        <ele>2371.76</ele>
        <time>2017-03-17T12:59:11Z</time>
      </trkpt>
      <trkpt lat="42.70439" lon="0.03423">
        <ele>2372.44</ele>
        <time>2017-03-17T12:59:35Z</time>
      </trkpt>
      <trkpt lat="42.70441" lon="0.03423">
        <ele>2372.39</ele>
        <time>2017-03-17T13:00:01Z</time>
      </trkpt>
      <trkpt lat="42.70441" lon="0.03423">
        <ele>2372.2</ele>
        <time>2017-03-17T13:00:30Z</time>
      </trkpt>
      <trkpt lat="42.70444" lon="0.03424">
        <ele>2371.96</ele>
        <time>2017-03-17T13:00:51Z</time>
      </trkpt>
      <trkpt lat="42.70444" lon="0.03425">
        <ele>2372.32</ele>
        <time>2017-03-17T13:01:15Z</time>
      </trkpt>
      <trkpt lat="42.70443" lon="0.03424">
        <ele>2372.3</ele>
        <time>2017-03-17T13:01:50Z</time>
      </trkpt>
      <trkpt lat="42.70443" lon="0.03425">
        <ele>2372.41</ele>
        <time>2017-03-17T13:02:19Z</time>
      </trkpt>
      <trkpt lat="42.70442" lon="0.03424">
        <ele>2372.65</ele>
        <time>2017-03-17T13:02:57Z</time>
      </trkpt>
      <trkpt lat="42.70441" lon="0.03424">
        <ele>2372.22</ele>
        <time>2017-03-17T13:03:24Z</time>
      </trkpt>
      <trkpt lat="42.70441" lon="0.03424">
        <ele>2372.74</ele>
        <time>2017-03-17T13:03:58Z</time>
      </trkpt>
      <trkpt lat="42.7044" lon="0.03422">
        <ele>2372.38</ele>
        <time>2017-03-17T13:04:33Z</time>
      </trkpt>
      <trkpt lat="42.70431" lon="0.03419">
        <ele>2374.38</ele>
        <time>2017-03-17T13:04:52Z</time>
      </trkpt>
      <trkpt lat="42.70419" lon="0.03412">
        <ele>2375.98</ele>
        <time>2017-03-17T13:05:13Z</time>
      </trkpt>
      <trkpt lat="42.70418" lon="0.03412">
        <ele>2376.13</ele>
        <time>2017-03-17T13:05:14Z</time>
      </trkpt>
      <trkpt lat="42.70413" lon="0.03408">
        <ele>2376.62</ele>
        <time>2017-03-17T13:05:20Z</time>
      </trkpt>
      <trkpt lat="42.70403" lon="0.034">
        <ele>2378.02</ele>
        <time>2017-03-17T13:05:34Z</time>
      </trkpt>
      <trkpt lat="42.70401" lon="0.03397">
        <ele>2378.16</ele>
        <time>2017-03-17T13:05:53Z</time>
      </trkpt>
      <trkpt lat="42.70395" lon="0.03392">
        <ele>2379</ele>
        <time>2017-03-17T13:06:15Z</time>
      </trkpt>
      <trkpt lat="42.70388" lon="0.03385">
        <ele>2379.8</ele>
        <time>2017-03-17T13:06:26Z</time>
      </trkpt>
      <trkpt lat="42.70379" lon="0.0338">
        <ele>2381.68</ele>
        <time>2017-03-17T13:06:38Z</time>
      </trkpt>
      <trkpt lat="42.70367" lon="0.03372">
        <ele>2384.69</ele>
        <time>2017-03-17T13:06:55Z</time>
      </trkpt>
      <trkpt lat="42.7036" lon="0.03367">
        <ele>2386.78</ele>
        <time>2017-03-17T13:07:07Z</time>
      </trkpt>
      <trkpt lat="42.70369" lon="0.03352">
        <ele>2389.78</ele>
        <time>2017-03-17T13:07:25Z</time>
      </trkpt>
      <trkpt lat="42.70376" lon="0.03335">
        <ele>2391.76</ele>
        <time>2017-03-17T13:07:46Z</time>
      </trkpt>
      <trkpt lat="42.70384" lon="0.03321">
        <ele>2394.91</ele>
        <time>2017-03-17T13:08:06Z</time>
      </trkpt>
      <trkpt lat="42.70374" lon="0.03311">
        <ele>2398.04</ele>
        <time>2017-03-17T13:08:24Z</time>
      </trkpt>
      <trkpt lat="42.70365" lon="0.03308">
        <ele>2400.79</ele>
        <time>2017-03-17T13:08:43Z</time>
      </trkpt>
      <trkpt lat="42.70365" lon="0.03308">
        <ele>2400.84</ele>
        <time>2017-03-17T13:08:44Z</time>
      </trkpt>
      <trkpt lat="42.70361" lon="0.03302">
        <ele>2401.86</ele>
        <time>2017-03-17T13:09:06Z</time>
      </trkpt>
      <trkpt lat="42.70348" lon="0.03299">
        <ele>2404.98</ele>
        <time>2017-03-17T13:09:23Z</time>
      </trkpt>
      <trkpt lat="42.70343" lon="0.03298">
        <ele>2408.11</ele>
        <time>2017-03-17T13:09:38Z</time>
      </trkpt>
      <trkpt lat="42.70345" lon="0.03291">
        <ele>2409.2</ele>
        <time>2017-03-17T13:09:53Z</time>
      </trkpt>
      <trkpt lat="42.70356" lon="0.03279">
        <ele>2411.61</ele>
        <time>2017-03-17T13:10:10Z</time>
      </trkpt>
      <trkpt lat="42.70364" lon="0.03265">
        <ele>2414.27</ele>
        <time>2017-03-17T13:10:31Z</time>
      </trkpt>
      <trkpt lat="42.70351" lon="0.03264">
        <ele>2417.14</ele>
        <time>2017-03-17T13:10:51Z</time>
      </trkpt>
      <trkpt lat="42.70354" lon="0.03248">
        <ele>2419.53</ele>
        <time>2017-03-17T13:11:09Z</time>
      </trkpt>
      <trkpt lat="42.70358" lon="0.03239">
        <ele>2421.36</ele>
        <time>2017-03-17T13:11:24Z</time>
      </trkpt>
      <trkpt lat="42.70365" lon="0.03226">
        <ele>2423.35</ele>
        <time>2017-03-17T13:11:47Z</time>
      </trkpt>
      <trkpt lat="42.70375" lon="0.03211">
        <ele>2426.2</ele>
        <time>2017-03-17T13:12:05Z</time>
      </trkpt>
      <trkpt lat="42.70381" lon="0.032">
        <ele>2428.61</ele>
        <time>2017-03-17T13:12:22Z</time>
      </trkpt>
      <trkpt lat="42.7039" lon="0.03185">
        <ele>2430.57</ele>
        <time>2017-03-17T13:12:43Z</time>
      </trkpt>
      <trkpt lat="42.70403" lon="0.03174">
        <ele>2432.99</ele>
        <time>2017-03-17T13:13:01Z</time>
      </trkpt>
      <trkpt lat="42.7041" lon="0.03163">
        <ele>2434.2</ele>
        <time>2017-03-17T13:13:18Z</time>
      </trkpt>
      <trkpt lat="42.70421" lon="0.03155">
        <ele>2435.76</ele>
        <time>2017-03-17T13:13:36Z</time>
      </trkpt>
      <trkpt lat="42.70433" lon="0.03152">
        <ele>2437.64</ele>
        <time>2017-03-17T13:13:53Z</time>
      </trkpt>
      <trkpt lat="42.70435" lon="0.03147">
        <ele>2439.83</ele>
        <time>2017-03-17T13:14:15Z</time>
      </trkpt>
      <trkpt lat="42.70442" lon="0.03142">
        <ele>2440.15</ele>
        <time>2017-03-17T13:14:39Z</time>
      </trkpt>
      <trkpt lat="42.70449" lon="0.03132">
        <ele>2442.84</ele>
        <time>2017-03-17T13:15:01Z</time>
      </trkpt>
      <trkpt lat="42.70455" lon="0.03125">
        <ele>2444</ele>
        <time>2017-03-17T13:15:22Z</time>
      </trkpt>
      <trkpt lat="42.70461" lon="0.03112">
        <ele>2446.42</ele>
        <time>2017-03-17T13:15:39Z</time>
      </trkpt>
      <trkpt lat="42.70467" lon="0.03098">
        <ele>2449.47</ele>
        <time>2017-03-17T13:15:55Z</time>
      </trkpt>
      <trkpt lat="42.70472" lon="0.0309">
        <ele>2451.36</ele>
        <time>2017-03-17T13:16:17Z</time>
      </trkpt>
      <trkpt lat="42.70476" lon="0.0309">
        <ele>2451.87</ele>
        <time>2017-03-17T13:16:44Z</time>
      </trkpt>
      <trkpt lat="42.70481" lon="0.03083">
        <ele>2452.48</ele>
        <time>2017-03-17T13:17:08Z</time>
      </trkpt>
      <trkpt lat="42.70489" lon="0.03072">
        <ele>2455.01</ele>
        <time>2017-03-17T13:17:27Z</time>
      </trkpt>
      <trkpt lat="42.70499" lon="0.03061">
        <ele>2458.19</ele>
        <time>2017-03-17T13:17:44Z</time>
      </trkpt>
      <trkpt lat="42.70501" lon="0.03046">
        <ele>2461.18</ele>
        <time>2017-03-17T13:18:02Z</time>
      </trkpt>
      <trkpt lat="42.70504" lon="0.03033">
        <ele>2464.16</ele>
        <time>2017-03-17T13:18:19Z</time>
      </trkpt>
      <trkpt lat="42.70511" lon="0.03019">
        <ele>2467.18</ele>
        <time>2017-03-17T13:18:37Z</time>
      </trkpt>
      <trkpt lat="42.70511" lon="0.03013">
        <ele>2468.87</ele>
        <time>2017-03-17T13:18:58Z</time>
      </trkpt>
      <trkpt lat="42.70511" lon="0.03005">
        <ele>2469.57</ele>
        <time>2017-03-17T13:19:28Z</time>
      </trkpt>
      <trkpt lat="42.7051" lon="0.03004">
        <ele>2471.03</ele>
        <time>2017-03-17T13:19:47Z</time>
      </trkpt>
      <trkpt lat="42.70505" lon="0.03004">
        <ele>2471.14</ele>
        <time>2017-03-17T13:20:09Z</time>
      </trkpt>
      <trkpt lat="42.70508" lon="0.03003">
        <ele>2471.35</ele>
        <time>2017-03-17T13:20:34Z</time>
      </trkpt>
      <trkpt lat="42.70506" lon="0.03004">
        <ele>2471.2</ele>
        <time>2017-03-17T13:20:40Z</time>
      </trkpt>
      <trkpt lat="42.7051" lon="0.02992">
        <ele>2472.5</ele>
        <time>2017-03-17T13:21:05Z</time>
      </trkpt>
      <trkpt lat="42.70509" lon="0.02975">
        <ele>2475.62</ele>
        <time>2017-03-17T13:21:26Z</time>
      </trkpt>
      <trkpt lat="42.7051" lon="0.02961">
        <ele>2478.71</ele>
        <time>2017-03-17T13:21:45Z</time>
      </trkpt>
      <trkpt lat="42.70514" lon="0.02948">
        <ele>2481.74</ele>
        <time>2017-03-17T13:22:05Z</time>
      </trkpt>
      <trkpt lat="42.70506" lon="0.0293">
        <ele>2484.81</ele>
        <time>2017-03-17T13:22:29Z</time>
      </trkpt>
      <trkpt lat="42.70506" lon="0.02919">
        <ele>2487.9</ele>
        <time>2017-03-17T13:22:43Z</time>
      </trkpt>
      <trkpt lat="42.70502" lon="0.02905">
        <ele>2490.94</ele>
        <time>2017-03-17T13:23:00Z</time>
      </trkpt>
      <trkpt lat="42.705" lon="0.02901">
        <ele>2492.56</ele>
        <time>2017-03-17T13:23:13Z</time>
      </trkpt>
      <trkpt lat="42.70495" lon="0.02887">
        <ele>2494.76</ele>
        <time>2017-03-17T13:23:32Z</time>
      </trkpt>
      <trkpt lat="42.70496" lon="0.02868">
        <ele>2497.37</ele>
        <time>2017-03-17T13:23:51Z</time>
      </trkpt>
      <trkpt lat="42.7051" lon="0.02859">
        <ele>2500.08</ele>
        <time>2017-03-17T13:24:10Z</time>
      </trkpt>
      <trkpt lat="42.7052" lon="0.02853">
        <ele>2502.61</ele>
        <time>2017-03-17T13:24:29Z</time>
      </trkpt>
      <trkpt lat="42.70521" lon="0.02846">
        <ele>2504.9</ele>
        <time>2017-03-17T13:24:47Z</time>
      </trkpt>
      <trkpt lat="42.7052" lon="0.02842">
        <ele>2505.89</ele>
        <time>2017-03-17T13:25:13Z</time>
      </trkpt>
      <trkpt lat="42.70518" lon="0.02837">
        <ele>2507.73</ele>
        <time>2017-03-17T13:25:32Z</time>
      </trkpt>
      <trkpt lat="42.70524" lon="0.02837">
        <ele>2508.02</ele>
        <time>2017-03-17T13:25:59Z</time>
      </trkpt>
      <trkpt lat="42.70517" lon="0.02828">
        <ele>2509.03</ele>
        <time>2017-03-17T13:26:29Z</time>
      </trkpt>
      <trkpt lat="42.70511" lon="0.02816">
        <ele>2509.32</ele>
        <time>2017-03-17T13:26:59Z</time>
      </trkpt>
      <trkpt lat="42.70507" lon="0.02805">
        <ele>2511.25</ele>
        <time>2017-03-17T13:27:16Z</time>
      </trkpt>
      <trkpt lat="42.705" lon="0.02795">
        <ele>2514.36</ele>
        <time>2017-03-17T13:27:36Z</time>
      </trkpt>
      <trkpt lat="42.70499" lon="0.02794">
        <ele>2514.63</ele>
        <time>2017-03-17T13:27:39Z</time>
      </trkpt>
      <trkpt lat="42.70494" lon="0.02797">
        <ele>2515.81</ele>
        <time>2017-03-17T13:28:03Z</time>
      </trkpt>
      <trkpt lat="42.70498" lon="0.02791">
        <ele>2517.41</ele>
        <time>2017-03-17T13:28:25Z</time>
      </trkpt>
      <trkpt lat="42.70506" lon="0.02786">
        <ele>2518.21</ele>
        <time>2017-03-17T13:28:41Z</time>
      </trkpt>
      <trkpt lat="42.70515" lon="0.0278">
        <ele>2521.12</ele>
        <time>2017-03-17T13:29:01Z</time>
      </trkpt>
      <trkpt lat="42.70529" lon="0.02779">
        <ele>2523.92</ele>
        <time>2017-03-17T13:29:19Z</time>
      </trkpt>
      <trkpt lat="42.70539" lon="0.02784">
        <ele>2526.93</ele>
        <time>2017-03-17T13:29:37Z</time>
      </trkpt>
      <trkpt lat="42.70552" lon="0.02788">
        <ele>2528.78</ele>
        <time>2017-03-17T13:30:02Z</time>
      </trkpt>
      <trkpt lat="42.70554" lon="0.02778">
        <ele>2530.98</ele>
        <time>2017-03-17T13:30:21Z</time>
      </trkpt>
      <trkpt lat="42.70551" lon="0.02768">
        <ele>2534.07</ele>
        <time>2017-03-17T13:30:37Z</time>
      </trkpt>
      <trkpt lat="42.70554" lon="0.02762">
        <ele>2535.97</ele>
        <time>2017-03-17T13:30:56Z</time>
      </trkpt>
      <trkpt lat="42.70553" lon="0.02756">
        <ele>2537.39</ele>
        <time>2017-03-17T13:31:17Z</time>
      </trkpt>
      <trkpt lat="42.70551" lon="0.02748">
        <ele>2538.88</ele>
        <time>2017-03-17T13:31:35Z</time>
      </trkpt>
      <trkpt lat="42.70546" lon="0.02746">
        <ele>2540.26</ele>
        <time>2017-03-17T13:31:56Z</time>
      </trkpt>
      <trkpt lat="42.70549" lon="0.02747">
        <ele>2541.35</ele>
        <time>2017-03-17T13:32:18Z</time>
      </trkpt>
      <trkpt lat="42.70546" lon="0.02741">
        <ele>2542.12</ele>
        <time>2017-03-17T13:32:36Z</time>
      </trkpt>
      <trkpt lat="42.7055" lon="0.02734">
        <ele>2544.19</ele>
        <time>2017-03-17T13:32:56Z</time>
      </trkpt>
      <trkpt lat="42.70558" lon="0.02729">
        <ele>2545.92</ele>
        <time>2017-03-17T13:33:20Z</time>
      </trkpt>
      <trkpt lat="42.70574" lon="0.0271">
        <ele>2548.21</ele>
        <time>2017-03-17T13:33:40Z</time>
      </trkpt>
      <trkpt lat="42.70582" lon="0.02696">
        <ele>2550.75</ele>
        <time>2017-03-17T13:33:59Z</time>
      </trkpt>
      <trkpt lat="42.70586" lon="0.0269">
        <ele>2553.41</ele>
        <time>2017-03-17T13:34:18Z</time>
      </trkpt>
      <trkpt lat="42.70591" lon="0.02688">
        <ele>2554.59</ele>
        <time>2017-03-17T13:34:37Z</time>
      </trkpt>
      <trkpt lat="42.70607" lon="0.02677">
        <ele>2557.21</ele>
        <time>2017-03-17T13:35:01Z</time>
      </trkpt>
      <trkpt lat="42.7062" lon="0.02671">
        <ele>2560.25</ele>
        <time>2017-03-17T13:35:19Z</time>
      </trkpt>
      <trkpt lat="42.70628" lon="0.02666">
        <ele>2563.08</ele>
        <time>2017-03-17T13:35:36Z</time>
      </trkpt>
      <trkpt lat="42.70629" lon="0.0266">
        <ele>2564.94</ele>
        <time>2017-03-17T13:36:04Z</time>
      </trkpt>
      <trkpt lat="42.70621" lon="0.02647">
        <ele>2566.73</ele>
        <time>2017-03-17T13:36:23Z</time>
      </trkpt>
      <trkpt lat="42.70618" lon="0.02643">
        <ele>2567.86</ele>
        <time>2017-03-17T13:36:38Z</time>
      </trkpt>
      <trkpt lat="42.70623" lon="0.02643">
        <ele>2568.59</ele>
        <time>2017-03-17T13:37:05Z</time>
      </trkpt>
      <trkpt lat="42.70637" lon="0.02645">
        <ele>2571.77</ele>
        <time>2017-03-17T13:37:25Z</time>
      </trkpt>
      <trkpt lat="42.70646" lon="0.02657">
        <ele>2574.48</ele>
        <time>2017-03-17T13:37:44Z</time>
      </trkpt>
      <trkpt lat="42.70648" lon="0.02655">
        <ele>2576.45</ele>
        <time>2017-03-17T13:38:01Z</time>
      </trkpt>
      <trkpt lat="42.70648" lon="0.02651">
        <ele>2576.52</ele>
        <time>2017-03-17T13:38:25Z</time>
      </trkpt>
      <trkpt lat="42.70639" lon="0.02639">
        <ele>2576.23</ele>
        <time>2017-03-17T13:38:45Z</time>
      </trkpt>
      <trkpt lat="42.70638" lon="0.02639">
        <ele>2576.11</ele>
        <time>2017-03-17T13:39:07Z</time>
      </trkpt>
      <trkpt lat="42.70639" lon="0.02641">
        <ele>2576.52</ele>
        <time>2017-03-17T13:39:50Z</time>
      </trkpt>
      <trkpt lat="42.70643" lon="0.02638">
        <ele>2576.08</ele>
        <time>2017-03-17T13:40:17Z</time>
      </trkpt>
      <trkpt lat="42.70647" lon="0.02637">
        <ele>2576.54</ele>
        <time>2017-03-17T13:40:37Z</time>
      </trkpt>
      <trkpt lat="42.70646" lon="0.02636">
        <ele>2575.55</ele>
        <time>2017-03-17T13:41:04Z</time>
      </trkpt>
      <trkpt lat="42.70646" lon="0.02636">
        <ele>2575.7</ele>
        <time>2017-03-17T13:41:31Z</time>
      </trkpt>
      <trkpt lat="42.70648" lon="0.02636">
        <ele>2575.78</ele>
        <time>2017-03-17T13:41:57Z</time>
      </trkpt>
      <trkpt lat="42.70652" lon="0.02634">
        <ele>2576.9</ele>
        <time>2017-03-17T13:42:25Z</time>
      </trkpt>
      <trkpt lat="42.70651" lon="0.02634">
        <ele>2575.93</ele>
        <time>2017-03-17T13:42:50Z</time>
      </trkpt>
      <trkpt lat="42.70647" lon="0.02632">
        <ele>2576.51</ele>
        <time>2017-03-17T13:43:28Z</time>
      </trkpt>
      <trkpt lat="42.70646" lon="0.02634">
        <ele>2576.1</ele>
        <time>2017-03-17T13:44:00Z</time>
      </trkpt>
      <trkpt lat="42.70643" lon="0.02635">
        <ele>2575.8</ele>
        <time>2017-03-17T13:44:25Z</time>
      </trkpt>
      <trkpt lat="42.70643" lon="0.02637">
        <ele>2576.15</ele>
        <time>2017-03-17T13:44:42Z</time>
      </trkpt>
      <trkpt lat="42.70643" lon="0.02639">
        <ele>2575.69</ele>
        <time>2017-03-17T13:44:58Z</time>
      </trkpt>
      <trkpt lat="42.70646" lon="0.02641">
        <ele>2576.15</ele>
        <time>2017-03-17T13:45:17Z</time>
      </trkpt>
      <trkpt lat="42.70647" lon="0.0264">
        <ele>2576.1</ele>
        <time>2017-03-17T13:45:33Z</time>
      </trkpt>
      <trkpt lat="42.70646" lon="0.02639">
        <ele>2575.84</ele>
        <time>2017-03-17T13:45:54Z</time>
      </trkpt>
      <trkpt lat="42.70652" lon="0.02638">
        <ele>2576.27</ele>
        <time>2017-03-17T13:46:23Z</time>
      </trkpt>
      <trkpt lat="42.70653" lon="0.0264">
        <ele>2576.24</ele>
        <time>2017-03-17T13:46:50Z</time>
      </trkpt>
      <trkpt lat="42.70653" lon="0.02639">
        <ele>2575.58</ele>
        <time>2017-03-17T13:47:24Z</time>
      </trkpt>
      <trkpt lat="42.70652" lon="0.0264">
        <ele>2576.15</ele>
        <time>2017-03-17T13:47:51Z</time>
      </trkpt>
      <trkpt lat="42.70647" lon="0.02639">
        <ele>2576.06</ele>
        <time>2017-03-17T13:48:19Z</time>
      </trkpt>
      <trkpt lat="42.70647" lon="0.02638">
        <ele>2575.7</ele>
        <time>2017-03-17T13:48:45Z</time>
      </trkpt>
      <trkpt lat="42.70645" lon="0.02638">
        <ele>2575.75</ele>
        <time>2017-03-17T13:49:18Z</time>
      </trkpt>
      <trkpt lat="42.70645" lon="0.02638">
        <ele>2576.46</ele>
        <time>2017-03-17T13:49:49Z</time>
      </trkpt>
      <trkpt lat="42.70646" lon="0.0264">
        <ele>2575.8</ele>
        <time>2017-03-17T13:50:34Z</time>
      </trkpt>
      <trkpt lat="42.70645" lon="0.0264">
        <ele>2576.24</ele>
        <time>2017-03-17T13:51:13Z</time>
      </trkpt>
      <trkpt lat="42.70645" lon="0.0264">
        <ele>2575.56</ele>
        <time>2017-03-17T13:51:42Z</time>
      </trkpt>
      <trkpt lat="42.70647" lon="0.0264">
        <ele>2576</ele>
        <time>2017-03-17T13:52:16Z</time>
      </trkpt>
      <trkpt lat="42.70648" lon="0.0264">
        <ele>2575.41</ele>
        <time>2017-03-17T13:52:41Z</time>
      </trkpt>
      <trkpt lat="42.70645" lon="0.02639">
        <ele>2575.58</ele>
        <time>2017-03-17T13:53:07Z</time>
      </trkpt>
      <trkpt lat="42.70646" lon="0.02639">
        <ele>2575.67</ele>
        <time>2017-03-17T13:53:37Z</time>
      </trkpt>
      <trkpt lat="42.70647" lon="0.02638">
        <ele>2575.64</ele>
        <time>2017-03-17T13:54:02Z</time>
      </trkpt>
      <trkpt lat="42.70647" lon="0.0264">
        <ele>2575.18</ele>
        <time>2017-03-17T13:54:29Z</time>
      </trkpt>
      <trkpt lat="42.70646" lon="0.02641">
        <ele>2575.63</ele>
        <time>2017-03-17T13:55:02Z</time>
      </trkpt>
      <trkpt lat="42.70645" lon="0.02641">
        <ele>2575.78</ele>
        <time>2017-03-17T13:55:29Z</time>
      </trkpt>
      <trkpt lat="42.70645" lon="0.02639">
        <ele>2575.93</ele>
        <time>2017-03-17T13:56:02Z</time>
      </trkpt>
      <trkpt lat="42.70646" lon="0.02639">
        <ele>2575.6</ele>
        <time>2017-03-17T13:56:26Z</time>
      </trkpt>
      <trkpt lat="42.70647" lon="0.02638">
        <ele>2575.56</ele>
        <time>2017-03-17T13:56:56Z</time>
      </trkpt>
      <trkpt lat="42.70648" lon="0.02637">
        <ele>2576.08</ele>
        <time>2017-03-17T13:57:19Z</time>
      </trkpt>
      <trkpt lat="42.70647" lon="0.02635">
        <ele>2575.88</ele>
        <time>2017-03-17T13:57:48Z</time>
      </trkpt>
      <trkpt lat="42.70647" lon="0.02636">
        <ele>2575.83</ele>
        <time>2017-03-17T13:58:16Z</time>
      </trkpt>
      <trkpt lat="42.70647" lon="0.02638">
        <ele>2616.99</ele>
        <time>2017-03-17T13:58:31Z</time>
      </trkpt>
      <trkpt lat="42.70647" lon="0.02639">
        <ele>2616.99</ele>
        <time>2017-03-17T13:58:32Z</time>
      </trkpt>
      <trkpt lat="42.70646" lon="0.02638">
        <ele>2617.49</ele>
        <time>2017-03-17T13:58:53Z</time>
      </trkpt>
      <trkpt lat="42.70646" lon="0.02638">
        <ele>2617.25</ele>
        <time>2017-03-17T13:59:21Z</time>
      </trkpt>
      <trkpt lat="42.70647" lon="0.02637">
        <ele>2617.09</ele>
        <time>2017-03-17T13:59:45Z</time>
      </trkpt>
      <trkpt lat="42.70645" lon="0.02637">
        <ele>2617.47</ele>
        <time>2017-03-17T14:00:10Z</time>
      </trkpt>
      <trkpt lat="42.70646" lon="0.02637">
        <ele>2617.3</ele>
        <time>2017-03-17T14:00:29Z</time>
      </trkpt>
      <trkpt lat="42.70645" lon="0.02636">
        <ele>2617.06</ele>
        <time>2017-03-17T14:01:09Z</time>
      </trkpt>
      <trkpt lat="42.70645" lon="0.02636">
        <ele>2617.38</ele>
        <time>2017-03-17T14:01:36Z</time>
      </trkpt>
      <trkpt lat="42.70645" lon="0.02635">
        <ele>2617.37</ele>
        <time>2017-03-17T14:02:04Z</time>
      </trkpt>
      <trkpt lat="42.70645" lon="0.02635">
        <ele>2616.8</ele>
        <time>2017-03-17T14:02:34Z</time>
      </trkpt>
      <trkpt lat="42.70647" lon="0.02635">
        <ele>2616.74</ele>
        <time>2017-03-17T14:03:01Z</time>
      </trkpt>
      <trkpt lat="42.70649" lon="0.02635">
        <ele>2616.9</ele>
        <time>2017-03-17T14:03:22Z</time>
      </trkpt>
      <trkpt lat="42.70646" lon="0.02635">
        <ele>2617.59</ele>
        <time>2017-03-17T14:03:40Z</time>
      </trkpt>
      <trkpt lat="42.70646" lon="0.02635">
        <ele>2618.15</ele>
        <time>2017-03-17T14:04:05Z</time>
      </trkpt>
      <trkpt lat="42.70645" lon="0.02636">
        <ele>2617.84</ele>
        <time>2017-03-17T14:04:41Z</time>
      </trkpt>
      <trkpt lat="42.70645" lon="0.02635">
        <ele>2617.37</ele>
        <time>2017-03-17T14:05:20Z</time>
      </trkpt>
      <trkpt lat="42.70646" lon="0.02635">
        <ele>2618.11</ele>
        <time>2017-03-17T14:06:00Z</time>
      </trkpt>
      <trkpt lat="42.70646" lon="0.02635">
        <ele>2618.29</ele>
        <time>2017-03-17T14:06:23Z</time>
      </trkpt>
      <trkpt lat="42.70646" lon="0.02636">
        <ele>2618.02</ele>
        <time>2017-03-17T14:06:43Z</time>
      </trkpt>
      <trkpt lat="42.70646" lon="0.02634">
        <ele>2618.38</ele>
        <time>2017-03-17T14:06:55Z</time>
      </trkpt>
      <trkpt lat="42.70646" lon="0.02627">
        <ele>2618.38</ele>
        <time>2017-03-17T14:06:58Z</time>
      </trkpt>
      <trkpt lat="42.70651" lon="0.02596">
        <ele>2617.24</ele>
        <time>2017-03-17T14:07:04Z</time>
      </trkpt>
      <trkpt lat="42.70654" lon="0.02575">
        <ele>2613.08</ele>
        <time>2017-03-17T14:07:10Z</time>
      </trkpt>
      <trkpt lat="42.70655" lon="0.02573">
        <ele>2611.13</ele>
        <time>2017-03-17T14:07:13Z</time>
      </trkpt>
      <trkpt lat="42.70644" lon="0.02553">
        <ele>2607.88</ele>
        <time>2017-03-17T14:07:19Z</time>
      </trkpt>
      <trkpt lat="42.70648" lon="0.02536">
        <ele>2604.19</ele>
        <time>2017-03-17T14:07:22Z</time>
      </trkpt>
      <trkpt lat="42.70654" lon="0.02512">
        <ele>2597.26</ele>
        <time>2017-03-17T14:07:26Z</time>
      </trkpt>
      <trkpt lat="42.70642" lon="0.02507">
        <ele>2593.35</ele>
        <time>2017-03-17T14:07:29Z</time>
      </trkpt>
      <trkpt lat="42.70634" lon="0.02518">
        <ele>2590.78</ele>
        <time>2017-03-17T14:07:31Z</time>
      </trkpt>
      <trkpt lat="42.70625" lon="0.02521">
        <ele>2585.78</ele>
        <time>2017-03-17T14:07:34Z</time>
      </trkpt>
      <trkpt lat="42.70616" lon="0.02499">
        <ele>2582.77</ele>
        <time>2017-03-17T14:07:38Z</time>
      </trkpt>
      <trkpt lat="42.70609" lon="0.02456">
        <ele>2577.59</ele>
        <time>2017-03-17T14:07:43Z</time>
      </trkpt>
      <trkpt lat="42.70603" lon="0.02432">
        <ele>2573.46</ele>
        <time>2017-03-17T14:07:46Z</time>
      </trkpt>
      <trkpt lat="42.7059" lon="0.02405">
        <ele>2568.24</ele>
        <time>2017-03-17T14:07:50Z</time>
      </trkpt>
      <trkpt lat="42.70591" lon="0.02381">
        <ele>2564.01</ele>
        <time>2017-03-17T14:07:54Z</time>
      </trkpt>
      <trkpt lat="42.70589" lon="0.02363">
        <ele>2560.34</ele>
        <time>2017-03-17T14:07:57Z</time>
      </trkpt>
      <trkpt lat="42.70586" lon="0.02341">
        <ele>2556.81</ele>
        <time>2017-03-17T14:08:00Z</time>
      </trkpt>
      <trkpt lat="42.70593" lon="0.02323">
        <ele>2552.9</ele>
        <time>2017-03-17T14:08:03Z</time>
      </trkpt>
      <trkpt lat="42.70587" lon="0.02308">
        <ele>2549.77</ele>
        <time>2017-03-17T14:08:05Z</time>
      </trkpt>
      <trkpt lat="42.70581" lon="0.02297">
        <ele>2546.7</ele>
        <time>2017-03-17T14:08:07Z</time>
      </trkpt>
      <trkpt lat="42.70578" lon="0.02286">
        <ele>2542.87</ele>
        <time>2017-03-17T14:08:09Z</time>
      </trkpt>
      <trkpt lat="42.70593" lon="0.02272">
        <ele>2538.81</ele>
        <time>2017-03-17T14:08:13Z</time>
      </trkpt>
      <trkpt lat="42.70587" lon="0.02254">
        <ele>2534.61</ele>
        <time>2017-03-17T14:08:16Z</time>
      </trkpt>
      <trkpt lat="42.70581" lon="0.02241">
        <ele>2530.29</ele>
        <time>2017-03-17T14:08:20Z</time>
      </trkpt>
      <trkpt lat="42.7058" lon="0.0224">
        <ele>2526.9</ele>
        <time>2017-03-17T14:08:23Z</time>
      </trkpt>
      <trkpt lat="42.70581" lon="0.02241">
        <ele>2523.77</ele>
        <time>2017-03-17T14:08:28Z</time>
      </trkpt>
      <trkpt lat="42.70579" lon="0.02236">
        <ele>2522.46</ele>
        <time>2017-03-17T14:08:43Z</time>
      </trkpt>
      <trkpt lat="42.70571" lon="0.02192">
        <ele>2519.05</ele>
        <time>2017-03-17T14:08:56Z</time>
      </trkpt>
      <trkpt lat="42.7057" lon="0.02174">
        <ele>2515.89</ele>
        <time>2017-03-17T14:09:03Z</time>
      </trkpt>
      <trkpt lat="42.70571" lon="0.02165">
        <ele>2514.36</ele>
        <time>2017-03-17T14:09:07Z</time>
      </trkpt>
      <trkpt lat="42.70578" lon="0.02145">
        <ele>2510.87</ele>
        <time>2017-03-17T14:09:13Z</time>
      </trkpt>
      <trkpt lat="42.70589" lon="0.02136">
        <ele>2507.39</ele>
        <time>2017-03-17T14:09:17Z</time>
      </trkpt>
      <trkpt lat="42.70589" lon="0.02122">
        <ele>2503.78</ele>
        <time>2017-03-17T14:09:20Z</time>
      </trkpt>
      <trkpt lat="42.70597" lon="0.02109">
        <ele>2499.65</ele>
        <time>2017-03-17T14:09:23Z</time>
      </trkpt>
      <trkpt lat="42.70603" lon="0.02098">
        <ele>2493.03</ele>
        <time>2017-03-17T14:09:27Z</time>
      </trkpt>
      <trkpt lat="42.70605" lon="0.021">
        <ele>2491.36</ele>
        <time>2017-03-17T14:09:28Z</time>
      </trkpt>
      <trkpt lat="42.70615" lon="0.02114">
        <ele>2485.48</ele>
        <time>2017-03-17T14:09:32Z</time>
      </trkpt>
      <trkpt lat="42.70622" lon="0.02123">
        <ele>2482.41</ele>
        <time>2017-03-17T14:09:35Z</time>
      </trkpt>
      <trkpt lat="42.7063" lon="0.02131">
        <ele>2480.07</ele>
        <time>2017-03-17T14:09:38Z</time>
      </trkpt>
      <trkpt lat="42.70645" lon="0.0212">
        <ele>2475.87</ele>
        <time>2017-03-17T14:09:43Z</time>
      </trkpt>
      <trkpt lat="42.70652" lon="0.02116">
        <ele>2472.57</ele>
        <time>2017-03-17T14:09:45Z</time>
      </trkpt>
      <trkpt lat="42.70663" lon="0.02104">
        <ele>2468.71</ele>
        <time>2017-03-17T14:09:48Z</time>
      </trkpt>
      <trkpt lat="42.70678" lon="0.02101">
        <ele>2464.32</ele>
        <time>2017-03-17T14:09:51Z</time>
      </trkpt>
      <trkpt lat="42.70686" lon="0.02097">
        <ele>2460.05</ele>
        <time>2017-03-17T14:09:54Z</time>
      </trkpt>
      <trkpt lat="42.7069" lon="0.02086">
        <ele>2454.99</ele>
        <time>2017-03-17T14:09:59Z</time>
      </trkpt>
      <trkpt lat="42.70702" lon="0.02072">
        <ele>2450.12</ele>
        <time>2017-03-17T14:10:04Z</time>
      </trkpt>
      <trkpt lat="42.70707" lon="0.02063">
        <ele>2446.25</ele>
        <time>2017-03-17T14:10:08Z</time>
      </trkpt>
      <trkpt lat="42.70707" lon="0.02063">
        <ele>2443.16</ele>
        <time>2017-03-17T14:10:12Z</time>
      </trkpt>
      <trkpt lat="42.70712" lon="0.0206">
        <ele>2440.21</ele>
        <time>2017-03-17T14:10:28Z</time>
      </trkpt>
      <trkpt lat="42.70712" lon="0.0206">
        <ele>2439.8</ele>
        <time>2017-03-17T14:10:32Z</time>
      </trkpt>
      <trkpt lat="42.70714" lon="0.02033">
        <ele>2437.9</ele>
        <time>2017-03-17T14:10:39Z</time>
      </trkpt>
      <trkpt lat="42.70716" lon="0.02023">
        <ele>2434.75</ele>
        <time>2017-03-17T14:10:43Z</time>
      </trkpt>
      <trkpt lat="42.70716" lon="0.02023">
        <ele>2431.36</ele>
        <time>2017-03-17T14:10:48Z</time>
      </trkpt>
      <trkpt lat="42.70719" lon="0.02022">
        <ele>2429.3</ele>
        <time>2017-03-17T14:11:00Z</time>
      </trkpt>
      <trkpt lat="42.70723" lon="0.02028">
        <ele>2428.51</ele>
        <time>2017-03-17T14:11:16Z</time>
      </trkpt>
      <trkpt lat="42.70724" lon="0.02031">
        <ele>2428.99</ele>
        <time>2017-03-17T14:11:23Z</time>
      </trkpt>
      <trkpt lat="42.70741" lon="0.02072">
        <ele>2427.45</ele>
        <time>2017-03-17T14:11:33Z</time>
      </trkpt>
      <trkpt lat="42.70744" lon="0.02078">
        <ele>2426.94</ele>
        <time>2017-03-17T14:11:34Z</time>
      </trkpt>
      <trkpt lat="42.70749" lon="0.02093">
        <ele>2425.08</ele>
        <time>2017-03-17T14:11:37Z</time>
      </trkpt>
      <trkpt lat="42.70766" lon="0.02125">
        <ele>2421.22</ele>
        <time>2017-03-17T14:11:43Z</time>
      </trkpt>
      <trkpt lat="42.70768" lon="0.02127">
        <ele>2420.41</ele>
        <time>2017-03-17T14:11:44Z</time>
      </trkpt>
      <trkpt lat="42.70774" lon="0.02121">
        <ele>2418.46</ele>
        <time>2017-03-17T14:11:47Z</time>
      </trkpt>
      <trkpt lat="42.70787" lon="0.02115">
        <ele>2414.61</ele>
        <time>2017-03-17T14:11:51Z</time>
      </trkpt>
      <trkpt lat="42.70792" lon="0.02112">
        <ele>2411.87</ele>
        <time>2017-03-17T14:11:53Z</time>
      </trkpt>
      <trkpt lat="42.70802" lon="0.02109">
        <ele>2405.64</ele>
        <time>2017-03-17T14:11:57Z</time>
      </trkpt>
      <trkpt lat="42.70805" lon="0.02109">
        <ele>2403.93</ele>
        <time>2017-03-17T14:11:58Z</time>
      </trkpt>
      <trkpt lat="42.70818" lon="0.02102">
        <ele>2397.36</ele>
        <time>2017-03-17T14:12:02Z</time>
      </trkpt>
      <trkpt lat="42.70824" lon="0.02098">
        <ele>2393.95</ele>
        <time>2017-03-17T14:12:04Z</time>
      </trkpt>
      <trkpt lat="42.70829" lon="0.02092">
        <ele>2390.55</ele>
        <time>2017-03-17T14:12:06Z</time>
      </trkpt>
      <trkpt lat="42.70834" lon="0.02087">
        <ele>2387.36</ele>
        <time>2017-03-17T14:12:08Z</time>
      </trkpt>
      <trkpt lat="42.7084" lon="0.02081">
        <ele>2383.88</ele>
        <time>2017-03-17T14:12:10Z</time>
      </trkpt>
      <trkpt lat="42.7085" lon="0.02081">
        <ele>2378.49</ele>
        <time>2017-03-17T14:12:12Z</time>
      </trkpt>
      <trkpt lat="42.70855" lon="0.02082">
        <ele>2376.79</ele>
        <time>2017-03-17T14:12:13Z</time>
      </trkpt>
      <trkpt lat="42.70864" lon="0.02086">
        <ele>2373.33</ele>
        <time>2017-03-17T14:12:15Z</time>
      </trkpt>
      <trkpt lat="42.70868" lon="0.02081">
        <ele>2368.09</ele>
        <time>2017-03-17T14:12:19Z</time>
      </trkpt>
      <trkpt lat="42.70868" lon="0.02081">
        <ele>2364.66</ele>
        <time>2017-03-17T14:12:23Z</time>
      </trkpt>
      <trkpt lat="42.70865" lon="0.02081">
        <ele>2362.2</ele>
        <time>2017-03-17T14:13:03Z</time>
      </trkpt>
      <trkpt lat="42.70866" lon="0.02081">
        <ele>2362.37</ele>
        <time>2017-03-17T14:13:19Z</time>
      </trkpt>
      <trkpt lat="42.70875" lon="0.02057">
        <ele>2361.5</ele>
        <time>2017-03-17T14:13:25Z</time>
      </trkpt>
      <trkpt lat="42.70881" lon="0.02042">
        <ele>2357.93</ele>
        <time>2017-03-17T14:13:28Z</time>
      </trkpt>
      <trkpt lat="42.70886" lon="0.02027">
        <ele>2353.44</ele>
        <time>2017-03-17T14:13:31Z</time>
      </trkpt>
      <trkpt lat="42.70895" lon="0.02024">
        <ele>2349.82</ele>
        <time>2017-03-17T14:13:33Z</time>
      </trkpt>
      <trkpt lat="42.70903" lon="0.02022">
        <ele>2345.78</ele>
        <time>2017-03-17T14:13:35Z</time>
      </trkpt>
      <trkpt lat="42.70904" lon="0.02012">
        <ele>2341.81</ele>
        <time>2017-03-17T14:13:37Z</time>
      </trkpt>
      <trkpt lat="42.7091" lon="0.02008">
        <ele>2338.04</ele>
        <time>2017-03-17T14:13:39Z</time>
      </trkpt>
      <trkpt lat="42.70913" lon="0.01998">
        <ele>2334.2</ele>
        <time>2017-03-17T14:13:41Z</time>
      </trkpt>
      <trkpt lat="42.70917" lon="0.01991">
        <ele>2330.43</ele>
        <time>2017-03-17T14:13:43Z</time>
      </trkpt>
      <trkpt lat="42.70924" lon="0.01983">
        <ele>2326.48</ele>
        <time>2017-03-17T14:13:45Z</time>
      </trkpt>
      <trkpt lat="42.70922" lon="0.01971">
        <ele>2322.27</ele>
        <time>2017-03-17T14:13:47Z</time>
      </trkpt>
      <trkpt lat="42.70924" lon="0.01964">
        <ele>2318.05</ele>
        <time>2017-03-17T14:13:49Z</time>
      </trkpt>
      <trkpt lat="42.70932" lon="0.01965">
        <ele>2314.41</ele>
        <time>2017-03-17T14:13:51Z</time>
      </trkpt>
      <trkpt lat="42.70937" lon="0.01957">
        <ele>2310.98</ele>
        <time>2017-03-17T14:13:53Z</time>
      </trkpt>
      <trkpt lat="42.70942" lon="0.01951">
        <ele>2307.61</ele>
        <time>2017-03-17T14:13:55Z</time>
      </trkpt>
      <trkpt lat="42.70949" lon="0.01948">
        <ele>2304.09</ele>
        <time>2017-03-17T14:13:57Z</time>
      </trkpt>
      <trkpt lat="42.70952" lon="0.01936">
        <ele>2300.65</ele>
        <time>2017-03-17T14:13:59Z</time>
      </trkpt>
      <trkpt lat="42.70955" lon="0.01929">
        <ele>2297.07</ele>
        <time>2017-03-17T14:14:01Z</time>
      </trkpt>
      <trkpt lat="42.70963" lon="0.0193">
        <ele>2293.65</ele>
        <time>2017-03-17T14:14:03Z</time>
      </trkpt>
      <trkpt lat="42.70968" lon="0.01922">
        <ele>2290.37</ele>
        <time>2017-03-17T14:14:05Z</time>
      </trkpt>
      <trkpt lat="42.70975" lon="0.01922">
        <ele>2287.11</ele>
        <time>2017-03-17T14:14:07Z</time>
      </trkpt>
      <trkpt lat="42.70983" lon="0.01927">
        <ele>2283.74</ele>
        <time>2017-03-17T14:14:09Z</time>
      </trkpt>
      <trkpt lat="42.70991" lon="0.01922">
        <ele>2279.04</ele>
        <time>2017-03-17T14:14:11Z</time>
      </trkpt>
      <trkpt lat="42.70998" lon="0.01926">
        <ele>2275.93</ele>
        <time>2017-03-17T14:14:13Z</time>
      </trkpt>
      <trkpt lat="42.71006" lon="0.01927">
        <ele>2272.59</ele>
        <time>2017-03-17T14:14:15Z</time>
      </trkpt>
      <trkpt lat="42.71011" lon="0.0192">
        <ele>2269.3</ele>
        <time>2017-03-17T14:14:17Z</time>
      </trkpt>
      <trkpt lat="42.71018" lon="0.01915">
        <ele>2265.75</ele>
        <time>2017-03-17T14:14:19Z</time>
      </trkpt>
      <trkpt lat="42.71021" lon="0.01905">
        <ele>2261.87</ele>
        <time>2017-03-17T14:14:21Z</time>
      </trkpt>
      <trkpt lat="42.71029" lon="0.01899">
        <ele>2258.08</ele>
        <time>2017-03-17T14:14:23Z</time>
      </trkpt>
      <trkpt lat="42.71031" lon="0.01888">
        <ele>2254.36</ele>
        <time>2017-03-17T14:14:25Z</time>
      </trkpt>
      <trkpt lat="42.71037" lon="0.0188">
        <ele>2250.6</ele>
        <time>2017-03-17T14:14:27Z</time>
      </trkpt>
      <trkpt lat="42.7104" lon="0.01875">
        <ele>2248.76</ele>
        <time>2017-03-17T14:14:28Z</time>
      </trkpt>
      <trkpt lat="42.7105" lon="0.01861">
        <ele>2241.22</ele>
        <time>2017-03-17T14:14:32Z</time>
      </trkpt>
      <trkpt lat="42.71053" lon="0.01855">
        <ele>2237.16</ele>
        <time>2017-03-17T14:14:34Z</time>
      </trkpt>
      <trkpt lat="42.7106" lon="0.01852">
        <ele>2233.18</ele>
        <time>2017-03-17T14:14:36Z</time>
      </trkpt>
      <trkpt lat="42.71065" lon="0.01845">
        <ele>2229.15</ele>
        <time>2017-03-17T14:14:38Z</time>
      </trkpt>
      <trkpt lat="42.71072" lon="0.01844">
        <ele>2225.28</ele>
        <time>2017-03-17T14:14:40Z</time>
      </trkpt>
      <trkpt lat="42.71076" lon="0.01836">
        <ele>2221.12</ele>
        <time>2017-03-17T14:14:42Z</time>
      </trkpt>
      <trkpt lat="42.71083" lon="0.01834">
        <ele>2215.15</ele>
        <time>2017-03-17T14:14:44Z</time>
      </trkpt>
      <trkpt lat="42.71088" lon="0.01827">
        <ele>2211.19</ele>
        <time>2017-03-17T14:14:46Z</time>
      </trkpt>
      <trkpt lat="42.71095" lon="0.01826">
        <ele>2207.37</ele>
        <time>2017-03-17T14:14:48Z</time>
      </trkpt>
      <trkpt lat="42.71101" lon="0.0183">
        <ele>2203.64</ele>
        <time>2017-03-17T14:14:50Z</time>
      </trkpt>
      <trkpt lat="42.71105" lon="0.01832">
        <ele>2201.96</ele>
        <time>2017-03-17T14:14:51Z</time>
      </trkpt>
      <trkpt lat="42.71116" lon="0.01834">
        <ele>2197.97</ele>
        <time>2017-03-17T14:14:54Z</time>
      </trkpt>
      <trkpt lat="42.71122" lon="0.0182">
        <ele>2194.09</ele>
        <time>2017-03-17T14:14:58Z</time>
      </trkpt>
      <trkpt lat="42.71128" lon="0.01803">
        <ele>2188.38</ele>
        <time>2017-03-17T14:15:02Z</time>
      </trkpt>
      <trkpt lat="42.71127" lon="0.01795">
        <ele>2184.44</ele>
        <time>2017-03-17T14:15:04Z</time>
      </trkpt>
      <trkpt lat="42.71131" lon="0.01791">
        <ele>2180.32</ele>
        <time>2017-03-17T14:15:06Z</time>
      </trkpt>
      <trkpt lat="42.71134" lon="0.01785">
        <ele>2176.27</ele>
        <time>2017-03-17T14:15:08Z</time>
      </trkpt>
      <trkpt lat="42.71136" lon="0.01785">
        <ele>2172.59</ele>
        <time>2017-03-17T14:15:09Z</time>
      </trkpt>
      <trkpt lat="42.7114" lon="0.01786">
        <ele>2172.59</ele>
        <time>2017-03-17T14:15:10Z</time>
      </trkpt>
      <trkpt lat="42.71142" lon="0.01786">
        <ele>2169.06</ele>
        <time>2017-03-17T14:15:11Z</time>
      </trkpt>
      <trkpt lat="42.71143" lon="0.01784">
        <ele>2169.06</ele>
        <time>2017-03-17T14:15:12Z</time>
      </trkpt>
      <trkpt lat="42.71144" lon="0.01779">
        <ele>2165.89</ele>
        <time>2017-03-17T14:15:14Z</time>
      </trkpt>
      <trkpt lat="42.71149" lon="0.01771">
        <ele>2161.48</ele>
        <time>2017-03-17T14:15:17Z</time>
      </trkpt>
      <trkpt lat="42.71152" lon="0.01764">
        <ele>2158.36</ele>
        <time>2017-03-17T14:15:19Z</time>
      </trkpt>
      <trkpt lat="42.71158" lon="0.0176">
        <ele>2155.03</ele>
        <time>2017-03-17T14:15:21Z</time>
      </trkpt>
      <trkpt lat="42.71162" lon="0.01757">
        <ele>2151.79</ele>
        <time>2017-03-17T14:15:23Z</time>
      </trkpt>
      <trkpt lat="42.71168" lon="0.01759">
        <ele>2148.28</ele>
        <time>2017-03-17T14:15:25Z</time>
      </trkpt>
      <trkpt lat="42.71173" lon="0.01754">
        <ele>2144.87</ele>
        <time>2017-03-17T14:15:27Z</time>
      </trkpt>
      <trkpt lat="42.7118" lon="0.0176">
        <ele>2141.49</ele>
        <time>2017-03-17T14:15:29Z</time>
      </trkpt>
      <trkpt lat="42.71188" lon="0.01765">
        <ele>2136.74</ele>
        <time>2017-03-17T14:15:31Z</time>
      </trkpt>
      <trkpt lat="42.71193" lon="0.01753">
        <ele>2132.78</ele>
        <time>2017-03-17T14:15:34Z</time>
      </trkpt>
      <trkpt lat="42.71202" lon="0.01743">
        <ele>2128.39</ele>
        <time>2017-03-17T14:15:37Z</time>
      </trkpt>
      <trkpt lat="42.71205" lon="0.01735">
        <ele>2125.28</ele>
        <time>2017-03-17T14:15:39Z</time>
      </trkpt>
      <trkpt lat="42.7121" lon="0.01728">
        <ele>2122.03</ele>
        <time>2017-03-17T14:15:41Z</time>
      </trkpt>
      <trkpt lat="42.71208" lon="0.01721">
        <ele>2119.02</ele>
        <time>2017-03-17T14:15:43Z</time>
      </trkpt>
      <trkpt lat="42.71213" lon="0.01711">
        <ele>2115.33</ele>
        <time>2017-03-17T14:15:46Z</time>
      </trkpt>
      <trkpt lat="42.71221" lon="0.01698">
        <ele>2111.4</ele>
        <time>2017-03-17T14:15:49Z</time>
      </trkpt>
      <trkpt lat="42.71228" lon="0.01691">
        <ele>2108.37</ele>
        <time>2017-03-17T14:15:51Z</time>
      </trkpt>
      <trkpt lat="42.71233" lon="0.01681">
        <ele>2105.19</ele>
        <time>2017-03-17T14:15:53Z</time>
      </trkpt>
      <trkpt lat="42.71242" lon="0.01675">
        <ele>2101.72</ele>
        <time>2017-03-17T14:15:55Z</time>
      </trkpt>
      <trkpt lat="42.71244" lon="0.01663">
        <ele>2098.08</ele>
        <time>2017-03-17T14:15:57Z</time>
      </trkpt>
      <trkpt lat="42.71252" lon="0.01659">
        <ele>2094.56</ele>
        <time>2017-03-17T14:15:59Z</time>
      </trkpt>
      <trkpt lat="42.71256" lon="0.01655">
        <ele>2092.71</ele>
        <time>2017-03-17T14:16:00Z</time>
      </trkpt>
      <trkpt lat="42.71268" lon="0.01646">
        <ele>2087.04</ele>
        <time>2017-03-17T14:16:03Z</time>
      </trkpt>
      <trkpt lat="42.71273" lon="0.01646">
        <ele>2083.59</ele>
        <time>2017-03-17T14:16:04Z</time>
      </trkpt>
      <trkpt lat="42.71278" lon="0.01636">
        <ele>2080.14</ele>
        <time>2017-03-17T14:16:06Z</time>
      </trkpt>
      <trkpt lat="42.71284" lon="0.01626">
        <ele>2076.57</ele>
        <time>2017-03-17T14:16:08Z</time>
      </trkpt>
      <trkpt lat="42.71292" lon="0.01623">
        <ele>2072.97</ele>
        <time>2017-03-17T14:16:10Z</time>
      </trkpt>
      <trkpt lat="42.71296" lon="0.01615">
        <ele>2069.46</ele>
        <time>2017-03-17T14:16:12Z</time>
      </trkpt>
      <trkpt lat="42.71303" lon="0.01614">
        <ele>2065.93</ele>
        <time>2017-03-17T14:16:14Z</time>
      </trkpt>
      <trkpt lat="42.71309" lon="0.01608">
        <ele>2062.66</ele>
        <time>2017-03-17T14:16:16Z</time>
      </trkpt>
      <trkpt lat="42.71317" lon="0.01602">
        <ele>2059.61</ele>
        <time>2017-03-17T14:16:18Z</time>
      </trkpt>
      <trkpt lat="42.71321" lon="0.01594">
        <ele>2056.15</ele>
        <time>2017-03-17T14:16:20Z</time>
      </trkpt>
      <trkpt lat="42.7132" lon="0.01583">
        <ele>2052.48</ele>
        <time>2017-03-17T14:16:22Z</time>
      </trkpt>
      <trkpt lat="42.71328" lon="0.01579">
        <ele>2049.05</ele>
        <time>2017-03-17T14:16:24Z</time>
      </trkpt>
      <trkpt lat="42.71332" lon="0.0158">
        <ele>2047.48</ele>
        <time>2017-03-17T14:16:25Z</time>
      </trkpt>
      <trkpt lat="42.7134" lon="0.01584">
        <ele>2042.68</ele>
        <time>2017-03-17T14:16:28Z</time>
      </trkpt>
      <trkpt lat="42.71342" lon="0.01571">
        <ele>2037.9</ele>
        <time>2017-03-17T14:16:32Z</time>
      </trkpt>
      <trkpt lat="42.71354" lon="0.01556">
        <ele>2033.89</ele>
        <time>2017-03-17T14:16:36Z</time>
      </trkpt>
      <trkpt lat="42.71363" lon="0.01547">
        <ele>2029.52</ele>
        <time>2017-03-17T14:16:39Z</time>
      </trkpt>
      <trkpt lat="42.71369" lon="0.01541">
        <ele>2026.29</ele>
        <time>2017-03-17T14:16:41Z</time>
      </trkpt>
      <trkpt lat="42.71369" lon="0.01531">
        <ele>2022.71</ele>
        <time>2017-03-17T14:16:43Z</time>
      </trkpt>
      <trkpt lat="42.71374" lon="0.01525">
        <ele>2019.13</ele>
        <time>2017-03-17T14:16:45Z</time>
      </trkpt>
      <trkpt lat="42.7138" lon="0.01517">
        <ele>2015.77</ele>
        <time>2017-03-17T14:16:47Z</time>
      </trkpt>
      <trkpt lat="42.71385" lon="0.01507">
        <ele>2012.53</ele>
        <time>2017-03-17T14:16:49Z</time>
      </trkpt>
      <trkpt lat="42.7139" lon="0.01506">
        <ele>2009.39</ele>
        <time>2017-03-17T14:16:50Z</time>
      </trkpt>
      <trkpt lat="42.71394" lon="0.01503">
        <ele>2009.39</ele>
        <time>2017-03-17T14:16:51Z</time>
      </trkpt>
      <trkpt lat="42.71397" lon="0.01497">
        <ele>2006.13</ele>
        <time>2017-03-17T14:16:52Z</time>
      </trkpt>
      <trkpt lat="42.71399" lon="0.01492">
        <ele>2006.13</ele>
        <time>2017-03-17T14:16:53Z</time>
      </trkpt>
      <trkpt lat="42.71403" lon="0.01489">
        <ele>2002.74</ele>
        <time>2017-03-17T14:16:54Z</time>
      </trkpt>
      <trkpt lat="42.71412" lon="0.01491">
        <ele>1999.52</ele>
        <time>2017-03-17T14:16:56Z</time>
      </trkpt>
      <trkpt lat="42.7142" lon="0.01484">
        <ele>1996.29</ele>
        <time>2017-03-17T14:16:58Z</time>
      </trkpt>
      <trkpt lat="42.71428" lon="0.01474">
        <ele>1989.73</ele>
        <time>2017-03-17T14:17:02Z</time>
      </trkpt>
      <trkpt lat="42.71434" lon="0.01477">
        <ele>1985.72</ele>
        <time>2017-03-17T14:17:05Z</time>
      </trkpt>
      <trkpt lat="42.71444" lon="0.01485">
        <ele>1982.91</ele>
        <time>2017-03-17T14:17:08Z</time>
      </trkpt>
      <trkpt lat="42.71455" lon="0.01477">
        <ele>1978.62</ele>
        <time>2017-03-17T14:17:14Z</time>
      </trkpt>
      <trkpt lat="42.71459" lon="0.01474">
        <ele>1974.12</ele>
        <time>2017-03-17T14:17:20Z</time>
      </trkpt>
      <trkpt lat="42.71459" lon="0.01473">
        <ele>1972.06</ele>
        <time>2017-03-17T14:17:25Z</time>
      </trkpt>
      <trkpt lat="42.7146" lon="0.01466">
        <ele>1971.41</ele>
        <time>2017-03-17T14:17:27Z</time>
      </trkpt>
      <trkpt lat="42.71457" lon="0.01443">
        <ele>1969.63</ele>
        <time>2017-03-17T14:17:33Z</time>
      </trkpt>
      <trkpt lat="42.71457" lon="0.01421">
        <ele>1968.29</ele>
        <time>2017-03-17T14:17:36Z</time>
      </trkpt>
      <trkpt lat="42.7147" lon="0.01398">
        <ele>1964.39</ele>
        <time>2017-03-17T14:17:41Z</time>
      </trkpt>
      <trkpt lat="42.71478" lon="0.01379">
        <ele>1960.3</ele>
        <time>2017-03-17T14:17:44Z</time>
      </trkpt>
      <trkpt lat="42.7148" lon="0.01371">
        <ele>1958.79</ele>
        <time>2017-03-17T14:17:45Z</time>
      </trkpt>
      <trkpt lat="42.71482" lon="0.01356">
        <ele>1955.56</ele>
        <time>2017-03-17T14:17:47Z</time>
      </trkpt>
      <trkpt lat="42.71488" lon="0.01334">
        <ele>1949.76</ele>
        <time>2017-03-17T14:17:51Z</time>
      </trkpt>
      <trkpt lat="42.71487" lon="0.01333">
        <ele>1946.27</ele>
        <time>2017-03-17T14:17:54Z</time>
      </trkpt>
      <trkpt lat="42.71487" lon="0.01334">
        <ele>1942.94</ele>
        <time>2017-03-17T14:17:59Z</time>
      </trkpt>
      <trkpt lat="42.71486" lon="0.01335">
        <ele>1941.25</ele>
        <time>2017-03-17T14:18:26Z</time>
      </trkpt>
      <trkpt lat="42.71486" lon="0.01335">
        <ele>1942.11</ele>
        <time>2017-03-17T14:18:51Z</time>
      </trkpt>
      <trkpt lat="42.71486" lon="0.01335">
        <ele>1941.81</ele>
        <time>2017-03-17T14:19:13Z</time>
      </trkpt>
      <trkpt lat="42.71487" lon="0.01335">
        <ele>1941.64</ele>
        <time>2017-03-17T14:19:31Z</time>
      </trkpt>
      <trkpt lat="42.71501" lon="0.01325">
        <ele>1940.76</ele>
        <time>2017-03-17T14:19:37Z</time>
      </trkpt>
      <trkpt lat="42.71516" lon="0.01329">
        <ele>1937.07</ele>
        <time>2017-03-17T14:19:41Z</time>
      </trkpt>
      <trkpt lat="42.71518" lon="0.01311">
        <ele>1933.39</ele>
        <time>2017-03-17T14:19:44Z</time>
      </trkpt>
      <trkpt lat="42.7153" lon="0.01308">
        <ele>1929.15</ele>
        <time>2017-03-17T14:19:47Z</time>
      </trkpt>
      <trkpt lat="42.71539" lon="0.0131">
        <ele>1926.02</ele>
        <time>2017-03-17T14:19:49Z</time>
      </trkpt>
      <trkpt lat="42.71547" lon="0.01296">
        <ele>1921.27</ele>
        <time>2017-03-17T14:19:53Z</time>
      </trkpt>
      <trkpt lat="42.71557" lon="0.01278">
        <ele>1917.14</ele>
        <time>2017-03-17T14:19:57Z</time>
      </trkpt>
      <trkpt lat="42.71566" lon="0.01281">
        <ele>1913.23</ele>
        <time>2017-03-17T14:20:00Z</time>
      </trkpt>
      <trkpt lat="42.71569" lon="0.0128">
        <ele>1912.2</ele>
        <time>2017-03-17T14:20:01Z</time>
      </trkpt>
      <trkpt lat="42.71588" lon="0.01269">
        <ele>1909.21</ele>
        <time>2017-03-17T14:20:05Z</time>
      </trkpt>
      <trkpt lat="42.71618" lon="0.01257">
        <ele>1905.07</ele>
        <time>2017-03-17T14:20:09Z</time>
      </trkpt>
      <trkpt lat="42.71653" lon="0.01236">
        <ele>1899.88</ele>
        <time>2017-03-17T14:20:13Z</time>
      </trkpt>
      <trkpt lat="42.71657" lon="0.01204">
        <ele>1895.63</ele>
        <time>2017-03-17T14:20:16Z</time>
      </trkpt>
      <trkpt lat="42.71662" lon="0.01184">
        <ele>1892.89</ele>
        <time>2017-03-17T14:20:18Z</time>
      </trkpt>
      <trkpt lat="42.71671" lon="0.0117">
        <ele>1889.01</ele>
        <time>2017-03-17T14:20:20Z</time>
      </trkpt>
      <trkpt lat="42.71683" lon="0.01145">
        <ele>1885.18</ele>
        <time>2017-03-17T14:20:23Z</time>
      </trkpt>
      <trkpt lat="42.71685" lon="0.01135">
        <ele>1883.95</ele>
        <time>2017-03-17T14:20:24Z</time>
      </trkpt>
      <trkpt lat="42.71702" lon="0.01099">
        <ele>1878.39</ele>
        <time>2017-03-17T14:20:29Z</time>
      </trkpt>
      <trkpt lat="42.71717" lon="0.01091">
        <ele>1874.98</ele>
        <time>2017-03-17T14:20:33Z</time>
      </trkpt>
      <trkpt lat="42.71733" lon="0.01073">
        <ele>1871.31</ele>
        <time>2017-03-17T14:20:41Z</time>
      </trkpt>
      <trkpt lat="42.71734" lon="0.01072">
        <ele>1871.06</ele>
        <time>2017-03-17T14:20:42Z</time>
      </trkpt>
      <trkpt lat="42.7176" lon="0.01071">
        <ele>1869.92</ele>
        <time>2017-03-17T14:20:53Z</time>
      </trkpt>
      <trkpt lat="42.71767" lon="0.01071">
        <ele>1869.02</ele>
        <time>2017-03-17T14:21:04Z</time>
      </trkpt>
      <trkpt lat="42.71767" lon="0.01071">
        <ele>1869.09</ele>
        <time>2017-03-17T14:21:06Z</time>
      </trkpt>
      <trkpt lat="42.71796" lon="0.01049">
        <ele>1868.21</ele>
        <time>2017-03-17T14:21:16Z</time>
      </trkpt>
      <trkpt lat="42.71809" lon="0.01021">
        <ele>1864.19</ele>
        <time>2017-03-17T14:21:22Z</time>
      </trkpt>
      <trkpt lat="42.71811" lon="0.01018">
        <ele>1861.13</ele>
        <time>2017-03-17T14:21:27Z</time>
      </trkpt>
      <trkpt lat="42.71811" lon="0.01015">
        <ele>1858.61</ele>
        <time>2017-03-17T14:21:38Z</time>
      </trkpt>
      <trkpt lat="42.71811" lon="0.01015">
        <ele>1858.03</ele>
        <time>2017-03-17T14:22:01Z</time>
      </trkpt>
      <trkpt lat="42.71812" lon="0.0101">
        <ele>1858.2</ele>
        <time>2017-03-17T14:22:22Z</time>
      </trkpt>
      <trkpt lat="42.71819" lon="0.00999">
        <ele>1856.69</ele>
        <time>2017-03-17T14:22:33Z</time>
      </trkpt>
      <trkpt lat="42.71825" lon="0.00984">
        <ele>1854.34</ele>
        <time>2017-03-17T14:22:46Z</time>
      </trkpt>
      <trkpt lat="42.71831" lon="0.00969">
        <ele>1852.11</ele>
        <time>2017-03-17T14:23:01Z</time>
      </trkpt>
      <trkpt lat="42.71836" lon="0.00956">
        <ele>1851.1</ele>
        <time>2017-03-17T14:23:16Z</time>
      </trkpt>
      <trkpt lat="42.7184" lon="0.00937">
        <ele>1848.13</ele>
        <time>2017-03-17T14:23:32Z</time>
      </trkpt>
      <trkpt lat="42.7184" lon="0.00932">
        <ele>1847.41</ele>
        <time>2017-03-17T14:23:37Z</time>
      </trkpt>
      <trkpt lat="42.71842" lon="0.00924">
        <ele>1846.64</ele>
        <time>2017-03-17T14:23:43Z</time>
      </trkpt>
      <trkpt lat="42.7185" lon="0.00894">
        <ele>1844.38</ele>
        <time>2017-03-17T14:24:02Z</time>
      </trkpt>
      <trkpt lat="42.71856" lon="0.0088">
        <ele>1842.69</ele>
        <time>2017-03-17T14:24:15Z</time>
      </trkpt>
      <trkpt lat="42.7186" lon="0.00868">
        <ele>1841.56</ele>
        <time>2017-03-17T14:24:26Z</time>
      </trkpt>
      <trkpt lat="42.71858" lon="0.00855">
        <ele>1841.19</ele>
        <time>2017-03-17T14:24:42Z</time>
      </trkpt>
      <trkpt lat="42.71858" lon="0.00855">
        <ele>1841.18</ele>
        <time>2017-03-17T14:24:57Z</time>
      </trkpt>
      <trkpt lat="42.71859" lon="0.00853">
        <ele>1841.36</ele>
        <time>2017-03-17T14:25:18Z</time>
      </trkpt>
      <trkpt lat="42.71864" lon="0.0085">
        <ele>1841.4</ele>
        <time>2017-03-17T14:25:34Z</time>
      </trkpt>
      <trkpt lat="42.71865" lon="0.00848">
        <ele>1841.56</ele>
        <time>2017-03-17T14:25:55Z</time>
      </trkpt>
      <trkpt lat="42.71863" lon="0.00848">
        <ele>1841.87</ele>
        <time>2017-03-17T14:26:18Z</time>
      </trkpt>
      <trkpt lat="42.71864" lon="0.00846">
        <ele>1841.97</ele>
        <time>2017-03-17T14:26:40Z</time>
      </trkpt>
      <trkpt lat="42.71864" lon="0.00847">
        <ele>1841.64</ele>
        <time>2017-03-17T14:27:00Z</time>
      </trkpt>
      <trkpt lat="42.71866" lon="0.00845">
        <ele>1841.89</ele>
        <time>2017-03-17T14:27:21Z</time>
      </trkpt>
      <trkpt lat="42.71862" lon="0.00847">
        <ele>1841.91</ele>
        <time>2017-03-17T14:27:47Z</time>
      </trkpt>
      <trkpt lat="42.71864" lon="0.00845">
        <ele>1841.93</ele>
        <time>2017-03-17T14:27:52Z</time>
      </trkpt>
      <trkpt lat="42.71866" lon="0.00836">
        <ele>1842</ele>
        <time>2017-03-17T14:27:56Z</time>
      </trkpt>
      <trkpt lat="42.71878" lon="0.00779">
        <ele>1838.67</ele>
        <time>2017-03-17T14:28:04Z</time>
      </trkpt>
      <trkpt lat="42.71883" lon="0.00753">
        <ele>1835.53</ele>
        <time>2017-03-17T14:28:08Z</time>
      </trkpt>
      <trkpt lat="42.71887" lon="0.00722">
        <ele>1832.08</ele>
        <time>2017-03-17T14:28:14Z</time>
      </trkpt>
      <trkpt lat="42.71895" lon="0.00677">
        <ele>1828.76</ele>
        <time>2017-03-17T14:28:23Z</time>
      </trkpt>
      <trkpt lat="42.71912" lon="0.00641">
        <ele>1825.68</ele>
        <time>2017-03-17T14:28:34Z</time>
      </trkpt>
      <trkpt lat="42.71923" lon="0.00606">
        <ele>1822.52</ele>
        <time>2017-03-17T14:28:44Z</time>
      </trkpt>
      <trkpt lat="42.71934" lon="0.00558">
        <ele>1819.16</ele>
        <time>2017-03-17T14:28:56Z</time>
      </trkpt>
      <trkpt lat="42.7195" lon="0.00513">
        <ele>1816.04</ele>
        <time>2017-03-17T14:29:07Z</time>
      </trkpt>
      <trkpt lat="42.71956" lon="0.00469">
        <ele>1812.98</ele>
        <time>2017-03-17T14:29:17Z</time>
      </trkpt>
      <trkpt lat="42.71956" lon="0.00456">
        <ele>1812.46</ele>
        <time>2017-03-17T14:29:19Z</time>
      </trkpt>
      <trkpt lat="42.71967" lon="0.00438">
        <ele>1810.64</ele>
        <time>2017-03-17T14:29:23Z</time>
      </trkpt>
      <trkpt lat="42.71982" lon="0.00416">
        <ele>1806.35</ele>
        <time>2017-03-17T14:29:29Z</time>
      </trkpt>
      <trkpt lat="42.71987" lon="0.00414">
        <ele>1804.77</ele>
        <time>2017-03-17T14:29:30Z</time>
      </trkpt>
      <trkpt lat="42.72004" lon="0.00411">
        <ele>1800.5</ele>
        <time>2017-03-17T14:29:35Z</time>
      </trkpt>
      <trkpt lat="42.72006" lon="0.00408">
        <ele>1799.84</ele>
        <time>2017-03-17T14:29:37Z</time>
      </trkpt>
      <trkpt lat="42.72014" lon="0.004">
        <ele>1798.07</ele>
        <time>2017-03-17T14:29:40Z</time>
      </trkpt>
      <trkpt lat="42.72011" lon="0.00383">
        <ele>1796.43</ele>
        <time>2017-03-17T14:29:43Z</time>
      </trkpt>
      <trkpt lat="42.72019" lon="0.00359">
        <ele>1792.67</ele>
        <time>2017-03-17T14:29:47Z</time>
      </trkpt>
      <trkpt lat="42.72037" lon="0.00345">
        <ele>1788.11</ele>
        <time>2017-03-17T14:29:51Z</time>
      </trkpt>
      <trkpt lat="42.72039" lon="0.00325">
        <ele>1784.98</ele>
        <time>2017-03-17T14:29:55Z</time>
      </trkpt>
      <trkpt lat="42.72033" lon="0.00313">
        <ele>1783.34</ele>
        <time>2017-03-17T14:29:57Z</time>
      </trkpt>
      <trkpt lat="42.72034" lon="0.00292">
        <ele>1778.94</ele>
        <time>2017-03-17T14:30:02Z</time>
      </trkpt>
      <trkpt lat="42.72035" lon="0.00292">
        <ele>1775.93</ele>
        <time>2017-03-17T14:30:07Z</time>
      </trkpt>
      <trkpt lat="42.72035" lon="0.00291">
        <ele>1775.58</ele>
        <time>2017-03-17T14:30:08Z</time>
      </trkpt>
      <trkpt lat="42.72025" lon="0.00272">
        <ele>1773.49</ele>
        <time>2017-03-17T14:30:15Z</time>
      </trkpt>
      <trkpt lat="42.72021" lon="0.00264">
        <ele>1772.96</ele>
        <time>2017-03-17T14:30:17Z</time>
      </trkpt>
      <trkpt lat="42.72029" lon="0.00233">
        <ele>1770.05</ele>
        <time>2017-03-17T14:30:24Z</time>
      </trkpt>
      <trkpt lat="42.72033" lon="0.00208">
        <ele>1767.01</ele>
        <time>2017-03-17T14:30:29Z</time>
      </trkpt>
      <trkpt lat="42.72048" lon="0.00197">
        <ele>1763.76</ele>
        <time>2017-03-17T14:30:34Z</time>
      </trkpt>
      <trkpt lat="42.72056" lon="0.00197">
        <ele>1760.48</ele>
        <time>2017-03-17T14:30:39Z</time>
      </trkpt>
      <trkpt lat="42.72073" lon="0.00202">
        <ele>1757.8</ele>
        <time>2017-03-17T14:30:50Z</time>
      </trkpt>
      <trkpt lat="42.72094" lon="0.00189">
        <ele>1753.96</ele>
        <time>2017-03-17T14:30:59Z</time>
      </trkpt>
      <trkpt lat="42.72105" lon="0.00179">
        <ele>1750.29</ele>
        <time>2017-03-17T14:31:03Z</time>
      </trkpt>
      <trkpt lat="42.72105" lon="0.00177">
        <ele>1747.06</ele>
        <time>2017-03-17T14:31:08Z</time>
      </trkpt>
      <trkpt lat="42.72106" lon="0.00175">
        <ele>1745.15</ele>
        <time>2017-03-17T14:31:17Z</time>
      </trkpt>
      <trkpt lat="42.72113" lon="0.00153">
        <ele>1743.71</ele>
        <time>2017-03-17T14:31:23Z</time>
      </trkpt>
      <trkpt lat="42.72113" lon="0.00153">
        <ele>1742.85</ele>
        <time>2017-03-17T14:31:24Z</time>
      </trkpt>
      <trkpt lat="42.72122" lon="0.00148">
        <ele>1738.77</ele>
        <time>2017-03-17T14:31:30Z</time>
      </trkpt>
      <trkpt lat="42.72124" lon="0.00147">
        <ele>1737.08</ele>
        <time>2017-03-17T14:31:34Z</time>
      </trkpt>
      <trkpt lat="42.72121" lon="0.00123">
        <ele>1734.62</ele>
        <time>2017-03-17T14:31:40Z</time>
      </trkpt>
      <trkpt lat="42.72126" lon="0.00121">
        <ele>1731.14</ele>
        <time>2017-03-17T14:31:45Z</time>
      </trkpt>
      <trkpt lat="42.72129" lon="0.00117">
        <ele>1728.42</ele>
        <time>2017-03-17T14:31:54Z</time>
      </trkpt>
      <trkpt lat="42.72128" lon="0.00114">
        <ele>1727.81</ele>
        <time>2017-03-17T14:31:57Z</time>
      </trkpt>
      <trkpt lat="42.72135" lon="0.00101">
        <ele>1726.68</ele>
        <time>2017-03-17T14:32:02Z</time>
      </trkpt>
      <trkpt lat="42.72136" lon="0.001">
        <ele>1725.3</ele>
        <time>2017-03-17T14:32:05Z</time>
      </trkpt>
      <trkpt lat="42.72138" lon="0.00097">
        <ele>1723.62</ele>
        <time>2017-03-17T14:32:08Z</time>
      </trkpt>
      <trkpt lat="42.72135" lon="0.00093">
        <ele>1720.11</ele>
        <time>2017-03-17T14:32:16Z</time>
      </trkpt>
      <trkpt lat="42.72136" lon="0.00092">
        <ele>1718</ele>
        <time>2017-03-17T14:32:34Z</time>
      </trkpt>
      <trkpt lat="42.72137" lon="0.00094">
        <ele>1718.11</ele>
        <time>2017-03-17T14:32:55Z</time>
      </trkpt>
      <trkpt lat="42.72135" lon="0.00093">
        <ele>1717.88</ele>
        <time>2017-03-17T14:33:17Z</time>
      </trkpt>
      <trkpt lat="42.72138" lon="0.00092">
        <ele>1716.67</ele>
        <time>2017-03-17T14:33:52Z</time>
      </trkpt>
      <trkpt lat="42.72141" lon="0.00089">
        <ele>1717.54</ele>
        <time>2017-03-17T14:34:24Z</time>
      </trkpt>
      <trkpt lat="42.7214" lon="0.00089">
        <ele>1717.09</ele>
        <time>2017-03-17T14:35:01Z</time>
      </trkpt>
      <trkpt lat="42.7214" lon="0.00091">
        <ele>1717.6</ele>
        <time>2017-03-17T14:35:33Z</time>
      </trkpt>
      <trkpt lat="42.72139" lon="0.00094">
        <ele>1717.22</ele>
        <time>2017-03-17T14:36:11Z</time>
      </trkpt>
      <trkpt lat="42.72138" lon="0.00092">
        <ele>1717.09</ele>
        <time>2017-03-17T14:36:52Z</time>
      </trkpt>
      <trkpt lat="42.72137" lon="0.00092">
        <ele>1716.78</ele>
        <time>2017-03-17T14:37:35Z</time>
      </trkpt>
      <trkpt lat="42.72137" lon="0.0009">
        <ele>1716.91</ele>
        <time>2017-03-17T14:38:02Z</time>
      </trkpt>
      <trkpt lat="42.72136" lon="0.00093">
        <ele>1717.03</ele>
        <time>2017-03-17T14:39:04Z</time>
      </trkpt>
      <trkpt lat="42.72132" lon="0.00092">
        <ele>1716.67</ele>
        <time>2017-03-17T14:40:10Z</time>
      </trkpt>
      <trkpt lat="42.72135" lon="0.00093">
        <ele>1717.02</ele>
        <time>2017-03-17T14:41:03Z</time>
      </trkpt>
      <trkpt lat="42.72135" lon="0.00093">
        <ele>1717.94</ele>
        <time>2017-03-17T14:41:39Z</time>
      </trkpt>
      <trkpt lat="42.7214" lon="0.00092">
        <ele>1717.71</ele>
        <time>2017-03-17T14:42:06Z</time>
      </trkpt>
      <trkpt lat="42.72141" lon="0.00093">
        <ele>1717.52</ele>
        <time>2017-03-17T14:42:35Z</time>
      </trkpt>
      <trkpt lat="42.72138" lon="0.00093">
        <ele>1717.92</ele>
        <time>2017-03-17T14:43:02Z</time>
      </trkpt>
      <trkpt lat="42.72138" lon="0.00095">
        <ele>1718.4</ele>
        <time>2017-03-17T14:43:21Z</time>
      </trkpt>
      <trkpt lat="42.72141" lon="0.00098">
        <ele>1718.21</ele>
        <time>2017-03-17T14:43:56Z</time>
      </trkpt>
      <trkpt lat="42.72136" lon="0.00097">
        <ele>1718.38</ele>
        <time>2017-03-17T14:44:16Z</time>
      </trkpt>
      <trkpt lat="42.72145" lon="0.00093">
        <ele>1717.37</ele>
        <time>2017-03-17T14:44:32Z</time>
      </trkpt>
      <trkpt lat="42.7215" lon="0.00081">
        <ele>1715</ele>
        <time>2017-03-17T14:44:48Z</time>
      </trkpt>
      <trkpt lat="42.72154" lon="0.00072">
        <ele>1712.48</ele>
        <time>2017-03-17T14:45:02Z</time>
      </trkpt>
      <trkpt lat="42.7216" lon="0.00061">
        <ele>1710.35</ele>
        <time>2017-03-17T14:45:16Z</time>
      </trkpt>
      <trkpt lat="42.72164" lon="0.00058">
        <ele>1709.29</ele>
        <time>2017-03-17T14:45:22Z</time>
      </trkpt>
      <trkpt lat="42.7217" lon="0.00051">
        <ele>1707.45</ele>
        <time>2017-03-17T14:45:30Z</time>
      </trkpt>
      <trkpt lat="42.72179" lon="0.00039">
        <ele>1705.38</ele>
        <time>2017-03-17T14:45:45Z</time>
      </trkpt>
      <trkpt lat="42.72184" lon="0.00029">
        <ele>1703.43</ele>
        <time>2017-03-17T14:45:57Z</time>
      </trkpt>
      <trkpt lat="42.7219" lon="0.0002">
        <ele>1701.83</ele>
        <time>2017-03-17T14:46:08Z</time>
      </trkpt>
      <trkpt lat="42.72199" lon="5.0E-5">
        <ele>1698.57</ele>
        <time>2017-03-17T14:46:26Z</time>
      </trkpt>
      <trkpt lat="42.72202" lon="-0">
        <ele>1697.29</ele>
        <time>2017-03-17T14:46:31Z</time>
      </trkpt>
      <trkpt lat="42.72211" lon="-0.0001">
        <ele>1694.98</ele>
        <time>2017-03-17T14:46:44Z</time>
      </trkpt>
      <trkpt lat="42.72218" lon="-0.00025">
        <ele>1691.79</ele>
        <time>2017-03-17T14:47:00Z</time>
      </trkpt>
      <trkpt lat="42.72233" lon="-0.00037">
        <ele>1688.72</ele>
        <time>2017-03-17T14:47:16Z</time>
      </trkpt>
      <trkpt lat="42.72244" lon="-0.00044">
        <ele>1686.76</ele>
        <time>2017-03-17T14:47:31Z</time>
      </trkpt>
      <trkpt lat="42.72246" lon="-0.00047">
        <ele>1685.96</ele>
        <time>2017-03-17T14:47:35Z</time>
      </trkpt>
      <trkpt lat="42.72255" lon="-0.00057">
        <ele>1683.52</ele>
        <time>2017-03-17T14:47:50Z</time>
      </trkpt>
      <trkpt lat="42.72259" lon="-0.00061">
        <ele>1683.07</ele>
        <time>2017-03-17T14:47:55Z</time>
      </trkpt>
      <trkpt lat="42.72265" lon="-0.00071">
        <ele>1681.59</ele>
        <time>2017-03-17T14:48:04Z</time>
      </trkpt>
      <trkpt lat="42.72268" lon="-0.00077">
        <ele>1681.08</ele>
        <time>2017-03-17T14:48:09Z</time>
      </trkpt>
      <trkpt lat="42.72275" lon="-0.00082">
        <ele>1678.59</ele>
        <time>2017-03-17T14:48:24Z</time>
      </trkpt>
      <trkpt lat="42.72278" lon="-0.00086">
        <ele>1678.19</ele>
        <time>2017-03-17T14:48:39Z</time>
      </trkpt>
      <trkpt lat="42.72281" lon="-0.00095">
        <ele>1677.25</ele>
        <time>2017-03-17T14:48:47Z</time>
      </trkpt>
      <trkpt lat="42.72282" lon="-0.00097">
        <ele>1677.04</ele>
        <time>2017-03-17T14:48:49Z</time>
      </trkpt>
      <trkpt lat="42.72287" lon="-0.00101">
        <ele>1676.56</ele>
        <time>2017-03-17T14:48:54Z</time>
      </trkpt>
      <trkpt lat="42.72298" lon="-0.00116">
        <ele>1673.53</ele>
        <time>2017-03-17T14:49:11Z</time>
      </trkpt>
      <trkpt lat="42.72311" lon="-0.00117">
        <ele>1670.48</ele>
        <time>2017-03-17T14:49:25Z</time>
      </trkpt>
      <trkpt lat="42.72323" lon="-0.00112">
        <ele>1667.44</ele>
        <time>2017-03-17T14:49:41Z</time>
      </trkpt>
      <trkpt lat="42.72327" lon="-0.00112">
        <ele>1666.62</ele>
        <time>2017-03-17T14:49:45Z</time>
      </trkpt>
      <trkpt lat="42.72341" lon="-0.00109">
        <ele>1663.68</ele>
        <time>2017-03-17T14:50:01Z</time>
      </trkpt>
      <trkpt lat="42.7235" lon="-0.00101">
        <ele>1661.61</ele>
        <time>2017-03-17T14:50:15Z</time>
      </trkpt>
      <trkpt lat="42.72359" lon="-0.00102">
        <ele>1659.65</ele>
        <time>2017-03-17T14:50:30Z</time>
      </trkpt>
      <trkpt lat="42.72358" lon="-0.00104">
        <ele>1658.92</ele>
        <time>2017-03-17T14:50:32Z</time>
      </trkpt>
      <trkpt lat="42.72356" lon="-0.0011">
        <ele>1657.08</ele>
        <time>2017-03-17T14:50:38Z</time>
      </trkpt>
      <trkpt lat="42.72351" lon="-0.00121">
        <ele>1653.61</ele>
        <time>2017-03-17T14:50:49Z</time>
      </trkpt>
      <trkpt lat="42.72348" lon="-0.00126">
        <ele>1652.71</ele>
        <time>2017-03-17T14:50:55Z</time>
      </trkpt>
      <trkpt lat="42.72343" lon="-0.00132">
        <ele>1651.42</ele>
        <time>2017-03-17T14:51:02Z</time>
      </trkpt>
      <trkpt lat="42.72335" lon="-0.00137">
        <ele>1648.95</ele>
        <time>2017-03-17T14:51:14Z</time>
      </trkpt>
      <trkpt lat="42.72325" lon="-0.00149">
        <ele>1646.66</ele>
        <time>2017-03-17T14:51:27Z</time>
      </trkpt>
      <trkpt lat="42.7232" lon="-0.00158">
        <ele>1644.33</ele>
        <time>2017-03-17T14:51:37Z</time>
      </trkpt>
      <trkpt lat="42.72317" lon="-0.00162">
        <ele>1643.05</ele>
        <time>2017-03-17T14:51:41Z</time>
      </trkpt>
      <trkpt lat="42.72314" lon="-0.00166">
        <ele>1642.07</ele>
        <time>2017-03-17T14:51:44Z</time>
      </trkpt>
      <trkpt lat="42.72314" lon="-0.00175">
        <ele>1640.13</ele>
        <time>2017-03-17T14:51:50Z</time>
      </trkpt>
      <trkpt lat="42.72324" lon="-0.00184">
        <ele>1636.76</ele>
        <time>2017-03-17T14:52:02Z</time>
      </trkpt>
      <trkpt lat="42.7233" lon="-0.00186">
        <ele>1633.62</ele>
        <time>2017-03-17T14:52:11Z</time>
      </trkpt>
      <trkpt lat="42.72335" lon="-0.00189">
        <ele>1631.34</ele>
        <time>2017-03-17T14:52:22Z</time>
      </trkpt>
      <trkpt lat="42.7234" lon="-0.00187">
        <ele>1629.59</ele>
        <time>2017-03-17T14:52:31Z</time>
      </trkpt>
      <trkpt lat="42.72344" lon="-0.00183">
        <ele>1628.77</ele>
        <time>2017-03-17T14:52:36Z</time>
      </trkpt>
      <trkpt lat="42.72353" lon="-0.00185">
        <ele>1626.47</ele>
        <time>2017-03-17T14:52:49Z</time>
      </trkpt>
      <trkpt lat="42.72363" lon="-0.00187">
        <ele>1624.69</ele>
        <time>2017-03-17T14:53:02Z</time>
      </trkpt>
      <trkpt lat="42.72365" lon="-0.00189">
        <ele>1623.11</ele>
        <time>2017-03-17T14:53:14Z</time>
      </trkpt>
      <trkpt lat="42.72359" lon="-0.00196">
        <ele>1620.07</ele>
        <time>2017-03-17T14:53:29Z</time>
      </trkpt>
      <trkpt lat="42.72366" lon="-0.00199">
        <ele>1617.07</ele>
        <time>2017-03-17T14:53:42Z</time>
      </trkpt>
      <trkpt lat="42.72377" lon="-0.00201">
        <ele>1613.99</ele>
        <time>2017-03-17T14:53:58Z</time>
      </trkpt>
      <trkpt lat="42.72384" lon="-0.00202">
        <ele>1611.53</ele>
        <time>2017-03-17T14:54:11Z</time>
      </trkpt>
      <trkpt lat="42.72389" lon="-0.00207">
        <ele>1608.49</ele>
        <time>2017-03-17T14:54:26Z</time>
      </trkpt>
      <trkpt lat="42.72396" lon="-0.00212">
        <ele>1605.99</ele>
        <time>2017-03-17T14:54:39Z</time>
      </trkpt>
      <trkpt lat="42.72398" lon="-0.00221">
        <ele>1603.44</ele>
        <time>2017-03-17T14:54:54Z</time>
      </trkpt>
      <trkpt lat="42.72396" lon="-0.00224">
        <ele>1602.49</ele>
        <time>2017-03-17T14:54:59Z</time>
      </trkpt>
      <trkpt lat="42.72391" lon="-0.00232">
        <ele>1599.83</ele>
        <time>2017-03-17T14:55:11Z</time>
      </trkpt>
      <trkpt lat="42.72401" lon="-0.00235">
        <ele>1597.27</ele>
        <time>2017-03-17T14:55:24Z</time>
      </trkpt>
      <trkpt lat="42.72412" lon="-0.0024">
        <ele>1594.52</ele>
        <time>2017-03-17T14:55:38Z</time>
      </trkpt>
      <trkpt lat="42.72409" lon="-0.00245">
        <ele>1591.95</ele>
        <time>2017-03-17T14:55:51Z</time>
      </trkpt>
      <trkpt lat="42.72408" lon="-0.00245">
        <ele>1591.74</ele>
        <time>2017-03-17T14:55:52Z</time>
      </trkpt>
      <trkpt lat="42.724" lon="-0.00249">
        <ele>1589.27</ele>
        <time>2017-03-17T14:56:04Z</time>
      </trkpt>
      <trkpt lat="42.72395" lon="-0.00256">
        <ele>1586.77</ele>
        <time>2017-03-17T14:56:18Z</time>
      </trkpt>
      <trkpt lat="42.72396" lon="-0.00257">
        <ele>1586.58</ele>
        <time>2017-03-17T14:56:19Z</time>
      </trkpt>
      <trkpt lat="42.72408" lon="-0.00259">
        <ele>1584.25</ele>
        <time>2017-03-17T14:56:34Z</time>
      </trkpt>
      <trkpt lat="42.72415" lon="-0.00261">
        <ele>1581.96</ele>
        <time>2017-03-17T14:56:47Z</time>
      </trkpt>
      <trkpt lat="42.72413" lon="-0.00269">
        <ele>1578.93</ele>
        <time>2017-03-17T14:56:58Z</time>
      </trkpt>
      <trkpt lat="42.72407" lon="-0.00271">
        <ele>1577.72</ele>
        <time>2017-03-17T14:57:06Z</time>
      </trkpt>
      <trkpt lat="42.72405" lon="-0.00273">
        <ele>1577.13</ele>
        <time>2017-03-17T14:57:09Z</time>
      </trkpt>
      <trkpt lat="42.72399" lon="-0.00276">
        <ele>1574.32</ele>
        <time>2017-03-17T14:57:20Z</time>
      </trkpt>
      <trkpt lat="42.72398" lon="-0.00281">
        <ele>1572.06</ele>
        <time>2017-03-17T14:57:33Z</time>
      </trkpt>
      <trkpt lat="42.72401" lon="-0.00281">
        <ele>1571.67</ele>
        <time>2017-03-17T14:57:36Z</time>
      </trkpt>
      <trkpt lat="42.72408" lon="-0.00286">
        <ele>1568.42</ele>
        <time>2017-03-17T14:57:48Z</time>
      </trkpt>
      <trkpt lat="42.72416" lon="-0.00291">
        <ele>1566.18</ele>
        <time>2017-03-17T14:57:59Z</time>
      </trkpt>
      <trkpt lat="42.72429" lon="-0.00292">
        <ele>1563.24</ele>
        <time>2017-03-17T14:58:14Z</time>
      </trkpt>
      <trkpt lat="42.72433" lon="-0.00291">
        <ele>1562.19</ele>
        <time>2017-03-17T14:58:19Z</time>
      </trkpt>
      <trkpt lat="42.72433" lon="-0.00294">
        <ele>1560.05</ele>
        <time>2017-03-17T14:58:33Z</time>
      </trkpt>
      <trkpt lat="42.72426" lon="-0.00299">
        <ele>1558.29</ele>
        <time>2017-03-17T14:58:47Z</time>
      </trkpt>
      <trkpt lat="42.72432" lon="-0.00303">
        <ele>1555.91</ele>
        <time>2017-03-17T14:58:59Z</time>
      </trkpt>
      <trkpt lat="42.72435" lon="-0.00308">
        <ele>1553.67</ele>
        <time>2017-03-17T14:59:11Z</time>
      </trkpt>
      <trkpt lat="42.72432" lon="-0.00308">
        <ele>1552.69</ele>
        <time>2017-03-17T14:59:17Z</time>
      </trkpt>
      <trkpt lat="42.72427" lon="-0.00317">
        <ele>1550.18</ele>
        <time>2017-03-17T14:59:28Z</time>
      </trkpt>
      <trkpt lat="42.72425" lon="-0.0032">
        <ele>1549.32</ele>
        <time>2017-03-17T14:59:32Z</time>
      </trkpt>
      <trkpt lat="42.72415" lon="-0.00326">
        <ele>1546.32</ele>
        <time>2017-03-17T14:59:46Z</time>
      </trkpt>
      <trkpt lat="42.72412" lon="-0.0033">
        <ele>1545.31</ele>
        <time>2017-03-17T14:59:52Z</time>
      </trkpt>
      <trkpt lat="42.72403" lon="-0.00331">
        <ele>1542.67</ele>
        <time>2017-03-17T15:00:09Z</time>
      </trkpt>
      <trkpt lat="42.72399" lon="-0.00338">
        <ele>1540.22</ele>
        <time>2017-03-17T15:00:22Z</time>
      </trkpt>
      <trkpt lat="42.72403" lon="-0.00341">
        <ele>1538.96</ele>
        <time>2017-03-17T15:00:27Z</time>
      </trkpt>
      <trkpt lat="42.7241" lon="-0.00349">
        <ele>1536.41</ele>
        <time>2017-03-17T15:00:41Z</time>
      </trkpt>
      <trkpt lat="42.72406" lon="-0.00351">
        <ele>1535.45</ele>
        <time>2017-03-17T15:00:47Z</time>
      </trkpt>
      <trkpt lat="42.72396" lon="-0.00351">
        <ele>1532.99</ele>
        <time>2017-03-17T15:01:00Z</time>
      </trkpt>
      <trkpt lat="42.72395" lon="-0.00354">
        <ele>1532.51</ele>
        <time>2017-03-17T15:01:03Z</time>
      </trkpt>
      <trkpt lat="42.724" lon="-0.0036">
        <ele>1531.38</ele>
        <time>2017-03-17T15:01:10Z</time>
      </trkpt>
      <trkpt lat="42.72407" lon="-0.00363">
        <ele>1529.51</ele>
        <time>2017-03-17T15:01:19Z</time>
      </trkpt>
      <trkpt lat="42.72412" lon="-0.00364">
        <ele>1528.92</ele>
        <time>2017-03-17T15:01:24Z</time>
      </trkpt>
      <trkpt lat="42.72413" lon="-0.00368">
        <ele>1526.59</ele>
        <time>2017-03-17T15:01:39Z</time>
      </trkpt>
      <trkpt lat="42.72405" lon="-0.00374">
        <ele>1523.57</ele>
        <time>2017-03-17T15:01:54Z</time>
      </trkpt>
      <trkpt lat="42.72407" lon="-0.00381">
        <ele>1521.37</ele>
        <time>2017-03-17T15:02:05Z</time>
      </trkpt>
      <trkpt lat="42.72416" lon="-0.00383">
        <ele>1518.84</ele>
        <time>2017-03-17T15:02:18Z</time>
      </trkpt>
      <trkpt lat="42.7242" lon="-0.00385">
        <ele>1517.57</ele>
        <time>2017-03-17T15:02:26Z</time>
      </trkpt>
      <trkpt lat="42.72423" lon="-0.00384">
        <ele>1516.76</ele>
        <time>2017-03-17T15:02:30Z</time>
      </trkpt>
      <trkpt lat="42.72432" lon="-0.00386">
        <ele>1514.39</ele>
        <time>2017-03-17T15:02:44Z</time>
      </trkpt>
      <trkpt lat="42.72427" lon="-0.00394">
        <ele>1511.77</ele>
        <time>2017-03-17T15:02:55Z</time>
      </trkpt>
      <trkpt lat="42.72423" lon="-0.00397">
        <ele>1510.62</ele>
        <time>2017-03-17T15:03:01Z</time>
      </trkpt>
      <trkpt lat="42.72416" lon="-0.00405">
        <ele>1507.81</ele>
        <time>2017-03-17T15:03:15Z</time>
      </trkpt>
      <trkpt lat="42.7241" lon="-0.00406">
        <ele>1505.88</ele>
        <time>2017-03-17T15:03:23Z</time>
      </trkpt>
      <trkpt lat="42.72406" lon="-0.00407">
        <ele>1504.9</ele>
        <time>2017-03-17T15:03:28Z</time>
      </trkpt>
      <trkpt lat="42.72401" lon="-0.00412">
        <ele>1502.46</ele>
        <time>2017-03-17T15:03:38Z</time>
      </trkpt>
      <trkpt lat="42.724" lon="-0.00416">
        <ele>1501.82</ele>
        <time>2017-03-17T15:03:41Z</time>
      </trkpt>
      <trkpt lat="42.72403" lon="-0.00419">
        <ele>1500.78</ele>
        <time>2017-03-17T15:03:45Z</time>
      </trkpt>
      <trkpt lat="42.72413" lon="-0.00424">
        <ele>1497.85</ele>
        <time>2017-03-17T15:03:57Z</time>
      </trkpt>
      <trkpt lat="42.72416" lon="-0.00425">
        <ele>1496.62</ele>
        <time>2017-03-17T15:04:02Z</time>
      </trkpt>
      <trkpt lat="42.72418" lon="-0.00425">
        <ele>1496.08</ele>
        <time>2017-03-17T15:04:04Z</time>
      </trkpt>
      <trkpt lat="42.7242" lon="-0.00426">
        <ele>1495.53</ele>
        <time>2017-03-17T15:04:07Z</time>
      </trkpt>
      <trkpt lat="42.72427" lon="-0.00433">
        <ele>1492.3</ele>
        <time>2017-03-17T15:04:22Z</time>
      </trkpt>
      <trkpt lat="42.72424" lon="-0.00434">
        <ele>1491.34</ele>
        <time>2017-03-17T15:04:27Z</time>
      </trkpt>
      <trkpt lat="42.72416" lon="-0.00441">
        <ele>1489.18</ele>
        <time>2017-03-17T15:04:39Z</time>
      </trkpt>
      <trkpt lat="42.72406" lon="-0.00448">
        <ele>1485.89</ele>
        <time>2017-03-17T15:04:54Z</time>
      </trkpt>
      <trkpt lat="42.72407" lon="-0.00451">
        <ele>1485.48</ele>
        <time>2017-03-17T15:04:57Z</time>
      </trkpt>
      <trkpt lat="42.7241" lon="-0.00451">
        <ele>1485.05</ele>
        <time>2017-03-17T15:05:00Z</time>
      </trkpt>
      <trkpt lat="42.72421" lon="-0.00455">
        <ele>1481.79</ele>
        <time>2017-03-17T15:05:13Z</time>
      </trkpt>
      <trkpt lat="42.72434" lon="-0.00455">
        <ele>1478.76</ele>
        <time>2017-03-17T15:05:29Z</time>
      </trkpt>
      <trkpt lat="42.72441" lon="-0.00461">
        <ele>1475.86</ele>
        <time>2017-03-17T15:05:43Z</time>
      </trkpt>
      <trkpt lat="42.72438" lon="-0.00469">
        <ele>1473.96</ele>
        <time>2017-03-17T15:05:55Z</time>
      </trkpt>
      <trkpt lat="42.72428" lon="-0.00478">
        <ele>1471.63</ele>
        <time>2017-03-17T15:06:07Z</time>
      </trkpt>
      <trkpt lat="42.72426" lon="-0.00478">
        <ele>1471.13</ele>
        <time>2017-03-17T15:06:09Z</time>
      </trkpt>
      <trkpt lat="42.72419" lon="-0.00488">
        <ele>1468.53</ele>
        <time>2017-03-17T15:06:22Z</time>
      </trkpt>
      <trkpt lat="42.72419" lon="-0.0049">
        <ele>1468.08</ele>
        <time>2017-03-17T15:06:24Z</time>
      </trkpt>
      <trkpt lat="42.72412" lon="-0.00502">
        <ele>1465.52</ele>
        <time>2017-03-17T15:06:37Z</time>
      </trkpt>
      <trkpt lat="42.72409" lon="-0.00505">
        <ele>1464.71</ele>
        <time>2017-03-17T15:06:40Z</time>
      </trkpt>
      <trkpt lat="42.72399" lon="-0.00507">
        <ele>1462.13</ele>
        <time>2017-03-17T15:06:50Z</time>
      </trkpt>
      <trkpt lat="42.72388" lon="-0.00516">
        <ele>1459.12</ele>
        <time>2017-03-17T15:07:05Z</time>
      </trkpt>
      <trkpt lat="42.7238" lon="-0.0053">
        <ele>1456</ele>
        <time>2017-03-17T15:07:22Z</time>
      </trkpt>
      <trkpt lat="42.72374" lon="-0.00541">
        <ele>1453.74</ele>
        <time>2017-03-17T15:07:35Z</time>
      </trkpt>
      <trkpt lat="42.72367" lon="-0.00554">
        <ele>1450.91</ele>
        <time>2017-03-17T15:07:51Z</time>
      </trkpt>
      <trkpt lat="42.72364" lon="-0.0056">
        <ele>1449.58</ele>
        <time>2017-03-17T15:07:59Z</time>
      </trkpt>
      <trkpt lat="42.72362" lon="-0.00565">
        <ele>1449.05</ele>
        <time>2017-03-17T15:08:03Z</time>
      </trkpt>
      <trkpt lat="42.72358" lon="-0.00572">
        <ele>1447.75</ele>
        <time>2017-03-17T15:08:11Z</time>
      </trkpt>
      <trkpt lat="42.72348" lon="-0.00594">
        <ele>1445.48</ele>
        <time>2017-03-17T15:08:28Z</time>
      </trkpt>
      <trkpt lat="42.72348" lon="-0.00598">
        <ele>1444.69</ele>
        <time>2017-03-17T15:08:32Z</time>
      </trkpt>
      <trkpt lat="42.72348" lon="-0.00608">
        <ele>1443.56</ele>
        <time>2017-03-17T15:08:39Z</time>
      </trkpt>
      <trkpt lat="42.72339" lon="-0.00629">
        <ele>1440.73</ele>
        <time>2017-03-17T15:08:59Z</time>
      </trkpt>
      <trkpt lat="42.72338" lon="-0.00631">
        <ele>1440.51</ele>
        <time>2017-03-17T15:09:01Z</time>
      </trkpt>
      <trkpt lat="42.72333" lon="-0.00638">
        <ele>1439.69</ele>
        <time>2017-03-17T15:09:08Z</time>
      </trkpt>
      <trkpt lat="42.72323" lon="-0.00662">
        <ele>1436.53</ele>
        <time>2017-03-17T15:09:27Z</time>
      </trkpt>
      <trkpt lat="42.72325" lon="-0.00691">
        <ele>1433.16</ele>
        <time>2017-03-17T15:09:45Z</time>
      </trkpt>
      <trkpt lat="42.72325" lon="-0.00695">
        <ele>1432.7</ele>
        <time>2017-03-17T15:09:48Z</time>
      </trkpt>
      <trkpt lat="42.72317" lon="-0.00722">
        <ele>1429.93</ele>
        <time>2017-03-17T15:10:06Z</time>
      </trkpt>
      <trkpt lat="42.72316" lon="-0.00732">
        <ele>1429</ele>
        <time>2017-03-17T15:10:11Z</time>
      </trkpt>
      <trkpt lat="42.72334" lon="-0.00745">
        <ele>1428.03</ele>
        <time>2017-03-17T15:10:27Z</time>
      </trkpt>
      <trkpt lat="42.72358" lon="-0.00757">
        <ele>1427.07</ele>
        <time>2017-03-17T15:10:44Z</time>
      </trkpt>
      <trkpt lat="42.72368" lon="-0.00763">
        <ele>1426.72</ele>
        <time>2017-03-17T15:10:52Z</time>
      </trkpt>
      <trkpt lat="42.72389" lon="-0.00777">
        <ele>1425.66</ele>
        <time>2017-03-17T15:11:09Z</time>
      </trkpt>
      <trkpt lat="42.72415" lon="-0.00788">
        <ele>1424.77</ele>
        <time>2017-03-17T15:11:28Z</time>
      </trkpt>
      <trkpt lat="42.72438" lon="-0.00797">
        <ele>1424.5</ele>
        <time>2017-03-17T15:11:44Z</time>
      </trkpt>
      <trkpt lat="42.72457" lon="-0.008">
        <ele>1423.82</ele>
        <time>2017-03-17T15:11:59Z</time>
      </trkpt>
      <trkpt lat="42.72483" lon="-0.008">
        <ele>1423.11</ele>
        <time>2017-03-17T15:12:18Z</time>
      </trkpt>
      <trkpt lat="42.7251" lon="-0.00796">
        <ele>1422.32</ele>
        <time>2017-03-17T15:12:37Z</time>
      </trkpt>
      <trkpt lat="42.72532" lon="-0.00788">
        <ele>1421.42</ele>
        <time>2017-03-17T15:12:54Z</time>
      </trkpt>
      <trkpt lat="42.72553" lon="-0.00774">
        <ele>1421.04</ele>
        <time>2017-03-17T15:13:10Z</time>
      </trkpt>
      <trkpt lat="42.72575" lon="-0.0076">
        <ele>1420.56</ele>
        <time>2017-03-17T15:13:27Z</time>
      </trkpt>
      <trkpt lat="42.72596" lon="-0.00754">
        <ele>1420.22</ele>
        <time>2017-03-17T15:13:44Z</time>
      </trkpt>
      <trkpt lat="42.72623" lon="-0.00746">
        <ele>1420.27</ele>
        <time>2017-03-17T15:14:02Z</time>
      </trkpt>
      <trkpt lat="42.72646" lon="-0.00742">
        <ele>1419.7</ele>
        <time>2017-03-17T15:14:17Z</time>
      </trkpt>
      <trkpt lat="42.72668" lon="-0.00739">
        <ele>1419.45</ele>
        <time>2017-03-17T15:14:33Z</time>
      </trkpt>
      <trkpt lat="42.7269" lon="-0.00741">
        <ele>1418.64</ele>
        <time>2017-03-17T15:14:49Z</time>
      </trkpt>
      <trkpt lat="42.7271" lon="-0.00746">
        <ele>1418.23</ele>
        <time>2017-03-17T15:15:05Z</time>
      </trkpt>
      <trkpt lat="42.72731" lon="-0.00753">
        <ele>1417.61</ele>
        <time>2017-03-17T15:15:22Z</time>
      </trkpt>
      <trkpt lat="42.72752" lon="-0.0076">
        <ele>1417.87</ele>
        <time>2017-03-17T15:15:38Z</time>
      </trkpt>
      <trkpt lat="42.72768" lon="-0.00767">
        <ele>1417.46</ele>
        <time>2017-03-17T15:15:50Z</time>
      </trkpt>
      <trkpt lat="42.72772" lon="-0.00787">
        <ele>1417.67</ele>
        <time>2017-03-17T15:16:03Z</time>
      </trkpt>
      <trkpt lat="42.72794" lon="-0.0079">
        <ele>1416.37</ele>
        <time>2017-03-17T15:16:20Z</time>
      </trkpt>
      <trkpt lat="42.72806" lon="-0.00791">
        <ele>1416.38</ele>
        <time>2017-03-17T15:16:29Z</time>
      </trkpt>
      <trkpt lat="42.72809" lon="-0.00791">
        <ele>1416.16</ele>
        <time>2017-03-17T15:16:43Z</time>
      </trkpt>
      <trkpt lat="42.72806" lon="-0.0079">
        <ele>1415.05</ele>
        <time>2017-03-17T15:16:56Z</time>
      </trkpt>
      <trkpt lat="42.72805" lon="-0.00786">
        <ele>1415.5</ele>
        <time>2017-03-17T15:17:32Z</time>
      </trkpt>
      <trkpt lat="42.72808" lon="-0.00784">
        <ele>1415.02</ele>
        <time>2017-03-17T15:18:04Z</time>
      </trkpt>
      <trkpt lat="42.72808" lon="-0.00786">
        <ele>1415.1</ele>
        <time>2017-03-17T15:18:51Z</time>
      </trkpt>
      <trkpt lat="42.72808" lon="-0.00789">
        <ele>1414.81</ele>
        <time>2017-03-17T15:19:45Z</time>
      </trkpt>
      <trkpt lat="42.72809" lon="-0.0079">
        <ele>1415.49</ele>
        <time>2017-03-17T15:20:34Z</time>
      </trkpt>
      <trkpt lat="42.7281" lon="-0.0079">
        <ele>1415.83</ele>
        <time>2017-03-17T15:20:56Z</time>
      </trkpt>
      <trkpt lat="42.72812" lon="-0.0079">
        <ele>1415.85</ele>
        <time>2017-03-17T15:20:57Z</time>
      </trkpt>
    </trkseg>
  </trk>
</gpx>